GFSNW_925_thetae_009.txt.gz
Theta_e
312 313 314 318 319 319 320 322 323 323 323 324 328 326 322 316 321 322 322 323 323 324 323 324 324 323 323 320 320 321 319 321 320 318 320 320 321 321 320 321 319 320 322 320
311 313 313 318 319 322 324 323 324 323 325 332 332 323 322 322 322 322 323 323 323 323 324 325 323 323 321 320 320 322 320 322 321 319 322 321 320 320 318 318 319 320 327 321
310 312 313 317 318 320 322 324 331 324 325 324 324 324 323 323 321 321 322 322 323 323 323 323 324 323 321 320 320 314 317 319 318 319 317 316 316 316 315 317 321 321 320 319
310 311 312 315 318 316 321 325 327 325 328 327 324 323 323 323 322 321 321 322 322 323 324 323 323 321 321 318 315 319 319 320 319 318 316 315 315 316 316 316 316 319 319 318
309 311 312 315 317 315 323 323 325 323 326 324 324 321 323 322 321 321 321 322 322 320 322 317 319 317 316 317 319 319 319 322 319 318 316 315 316 315 315 316 316 317 317 317
309 310 312 315 317 318 322 320 321 325 317 325 325 324 322 321 321 321 320 321 319 321 319 320 320 320 319 318 319 320 321 321 320 323 320 318 323 319 315 316 316 317 318 317
309 311 312 314 317 318 323 321 322 329 327 326 324 321 321 321 321 321 320 319 322 320 318 319 318 318 318 319 319 319 322 320 321 323 320 327 319 316 315 315 315 315 315 315
309 311 312 314 317 317 320 316 322 325 330 324 322 321 321 321 321 321 321 320 320 319 320 322 321 317 315 318 316 317 318 322 321 321 320 318 317 316 315 315 316 315 317 317
310 311 312 313 318 317 319 316 317 323 321 327 321 322 322 324 324 323 321 319 319 321 324 322 324 323 318 319 318 315 316 319 322 321 320 322 319 316 314 315 318 317 316 316
311 312 312 313 316 317 322 319 313 321 328 320 321 324 324 322 322 323 322 321 321 321 323 325 327 323 317 318 320 317 318 317 322 319 321 318 315 314 314 318 321 317 314 313
311 312 313 313 313 318 321 319 314 323 324 319 318 318 321 321 322 327 323 322 323 324 320 322 324 323 321 319 316 318 319 321 318 318 320 319 314 313 318 317 315 314 312 311
311 312 313 314 313 315 318 321 313 318 322 322 319 318 318 320 320 321 322 321 322 322 324 322 320 317 318 321 320 316 318 318 319 319 319 315 315 316 315 314 314 312 310 308
312 312 313 314 314 314 317 321 318 320 324 321 320 320 318 316 318 319 323 322 320 321 321 322 319 315 320 318 321 321 316 316 319 317 315 314 315 315 314 312 311 308 306 308
312 312 313 313 314 314 315 319 316 319 318 318 323 313 318 315 318 319 320 318 318 319 319 314 312 319 319 319 319 319 318 317 317 319 316 314 314 313 312 310 309 308 306 304
312 313 313 313 314 314 317 318 316 315 322 323 322 315 314 315 318 319 318 318 319 320 316 312 316 320 320 318 316 319 316 317 320 320 316 315 315 312 310 310 308 306 303 302
311 312 313 313 314 315 319 321 318 314 318 322 323 316 314 314 316 318 318 318 319 320 319 314 319 318 319 314 318 314 314 314 314 316 314 313 310 308 308 307 304 302 301 300
311 312 313 313 313 316 318 319 315 314 318 319 319 322 312 311 316 316 318 317 319 319 318 318 318 319 317 318 318 313 313 313 313 312 310 307 307 308 304 303 301 300 299 298
312 311 313 313 313 313 315 314 312 314 317 317 317 316 314 310 315 315 310 314 314 317 318 313 315 317 317 317 315 314 313 311 308 307 307 307 306 304 302 301 299 298 297 296
312 312 313 313 312 312 315 313 312 312 316 318 310 314 314 310 309 308 308 310 314 311 313 313 314 314 316 315 314 313 310 309 306 306 306 304 303 301 299 297 297 297 296 295
312 309 309 303 308 311 311 312 314 310 311 312 311 314 314 313 308 307 309 308 312 311 310 305 305 309 311 311 310 310 308 308 307 306 304 302 300 297 297 296 296 295 294 294
306 301 299 301 305 306 305 306 309 308 308 306 309 311 312 308 311 309 305 308 307 313 310 310 312 311 311 308 306 305 305 304 304 302 300 296 296 296 296 296 295 294 294 294
303 302 302 303 302 301 312 306 302 305 311 303 304 305 307 303 304 304 300 305 305 313 307 309 309 310 307 306 306 304 303 301 299 296 295 295 295 295 295 295 294 294 293 292
300 297 297 298 298 305 308 308 308 307 302 300 301 302 300 299 301 301 304 307 311 304 305 307 309 307 305 306 304 302 300 297 295 295 295 294 294 294 294 294 293 292 292 292
298 299 304 304 306 305 306 307 306 302 302 301 300 300 302 299 303 303 308 303 304 306 306 308 307 305 304 304 302 301 299 295 293 293 293 294 294 294 293 292 292 291 291 292
300 301 305 303 300 299 298 298 300 299 301 302 304 304 305 303 304 304 302 303 305 306 307 306 303 303 302 299 298 297 295 294 294 294 294 293 293 293 293 293 292 292 292 291
298 299 301 299 302 301 299 299 299 299 299 301 303 304 306 304 305 303 305 306 305 305 304 303 300 298 297 297 297 296 295 294 293 293 292 293 293 292 293 293 291 291 291 290
301 299 299 300 301 302 298 300 299 298 301 303 303 304 305 299 303 304 302 304 303 302 301 299 297 297 297 297 296 295 294 294 293 293 293 293 293 293 292 292 293 293 291 290

GFSNW_925_thetae_012.txt.gz
Theta_e
312 313 315 317 318 317 319 324 323 326 319 323 324 329 323 317 321 322 323 323 322 323 323 324 324 324 324 320 320 321 318 321 327 319 319 319 319 320 320 329 322 328 326 320
311 312 314 317 319 317 323 324 327 325 326 331 338 325 323 322 321 321 322 323 323 324 324 325 324 325 321 320 322 322 320 324 328 322 323 320 318 319 318 320 323 321 326 322
311 312 313 318 319 319 321 327 330 323 323 328 327 326 324 324 322 323 323 323 323 324 324 324 324 324 322 320 319 315 319 320 319 322 318 316 316 316 316 317 326 324 322 319
310 311 312 316 318 320 319 328 327 321 327 327 325 324 323 324 323 322 322 322 322 324 324 324 324 323 320 318 315 319 320 321 320 318 316 316 316 316 316 316 317 319 319 317
310 311 312 316 317 316 321 328 326 325 326 325 324 322 324 323 322 323 322 322 323 323 325 321 322 320 318 320 319 319 320 325 322 320 317 316 316 315 315 316 316 316 317 317
309 311 312 316 316 317 324 324 325 326 322 325 328 327 324 323 323 323 322 322 323 324 322 321 321 320 320 318 320 321 323 325 323 325 319 320 326 321 316 316 316 316 319 317
309 310 312 316 316 320 326 326 324 333 330 328 325 324 323 322 323 322 321 321 324 321 318 319 319 320 320 320 320 321 322 322 322 323 321 327 319 316 316 316 316 315 315 317
309 310 311 315 316 319 323 321 327 328 324 327 324 323 322 323 321 322 323 322 320 320 320 325 319 320 316 319 317 318 320 323 318 325 320 318 318 317 316 316 316 315 318 317
310 311 312 313 317 318 322 315 321 327 323 330 322 322 323 326 326 325 322 321 320 320 327 324 324 327 320 321 318 316 319 323 325 319 321 320 319 316 315 315 319 318 317 316
310 311 312 313 317 318 324 321 317 328 332 323 324 325 326 323 325 326 323 322 323 322 323 320 328 327 318 322 321 318 316 318 320 320 318 319 315 315 314 318 321 317 316 314
311 312 312 313 314 318 323 320 314 326 327 322 322 322 325 323 325 330 324 324 326 329 319 322 327 324 324 322 318 318 317 320 317 318 320 320 315 314 317 319 317 315 313 312
311 312 312 313 313 315 321 324 316 322 326 323 321 320 320 320 320 325 325 322 324 325 325 326 324 317 318 322 325 315 321 322 323 320 320 318 316 315 315 315 315 313 312 310
311 312 313 313 314 314 320 323 320 322 329 323 321 321 319 319 320 321 327 328 321 323 323 320 317 313 321 318 323 319 316 315 324 321 317 315 316 315 315 314 312 310 309 308
312 312 312 313 314 314 318 321 319 322 319 312 325 317 319 317 319 320 322 321 321 323 320 313 311 314 321 322 321 322 319 317 318 319 317 317 316 315 313 311 310 309 308 305
312 312 312 313 314 315 319 320 319 319 324 321 325 318 317 317 319 319 320 321 323 323 315 309 314 322 325 322 319 322 317 316 320 321 318 318 316 312 310 310 309 308 304 303
312 312 313 313 314 315 321 321 319 317 321 322 320 319 317 317 318 320 319 319 321 322 319 314 320 320 323 318 318 315 314 313 314 316 315 315 312 309 309 309 306 303 302 301
311 312 313 313 314 317 318 318 315 315 320 319 317 322 315 313 318 319 320 320 321 321 323 321 319 322 319 313 317 315 313 313 313 313 312 311 309 309 306 304 303 301 300 298
311 311 312 313 313 314 317 315 313 316 320 319 319 318 316 313 319 319 313 316 316 318 319 315 317 319 314 317 316 314 313 313 312 311 309 309 308 306 305 302 300 298 297 297
311 311 312 313 313 315 317 314 313 314 318 321 309 314 315 313 310 309 311 312 312 314 311 314 315 315 315 316 314 314 314 312 310 308 308 307 307 304 301 299 298 297 297 295
311 311 310 305 309 312 312 314 317 315 317 315 311 315 316 313 309 309 309 307 312 312 311 307 307 312 312 313 312 313 311 310 308 309 307 305 302 300 298 297 297 296 295 294
306 302 300 302 306 309 308 312 314 312 311 310 311 314 312 310 311 309 307 308 309 312 310 311 311 311 311 310 311 308 309 309 308 306 304 300 298 297 297 298 297 295 295 294
303 303 302 304 302 301 310 308 304 307 314 306 305 308 310 306 309 309 303 308 305 312 307 308 311 311 310 309 307 307 306 305 303 300 297 296 296 296 296 296 296 295 294 293
301 299 298 301 298 305 308 309 307 308 302 301 301 302 301 301 302 301 303 307 309 305 309 308 310 308 307 307 306 305 301 297 297 296 296 295 295 294 293 294 293 293 293 292
298 299 304 304 306 305 304 304 303 300 300 300 300 300 302 298 302 301 307 305 306 308 310 308 310 306 305 306 305 303 298 292 294 294 294 294 294 294 293 293 292 292 292 292
301 300 305 304 300 299 298 296 298 298 299 299 300 300 303 302 303 303 304 305 308 308 309 306 306 304 303 301 301 297 295 293 293 295 294 293 293 293 293 293 293 293 293 293
300 300 302 300 301 300 298 297 298 298 298 301 302 302 305 305 305 305 307 308 308 309 307 305 300 299 299 298 297 296 296 295 295 294 294 293 293 293 293 294 294 293 292 291
298 301 300 300 300 300 298 299 299 299 300 302 303 306 303 301 305 305 304 306 305 305 303 299 298 298 298 297 297 296 295 295 295 294 294 293 293 293 293 293 293 293 294 293

GFSNW_925_thetae_015.txt.gz
Theta_e
311 312 314 316 316 316 316 325 321 325 322 319 322 324 326 316 320 321 323 323 322 323 322 324 324 325 322 319 320 319 316 319 316 320 318 318 318 320 320 315 320 315 315 315
311 312 315 316 317 316 321 323 324 325 328 318 318 325 322 321 321 321 322 323 323 323 324 324 325 324 321 320 319 319 318 318 318 321 321 319 317 318 318 320 312 315 309 313
310 312 314 317 317 317 322 325 320 322 322 324 328 327 323 323 322 322 322 323 322 324 323 323 325 323 322 318 316 314 318 319 317 317 317 315 315 315 314 318 314 316 316 318
310 311 313 317 318 318 320 324 324 318 317 320 324 325 323 324 323 322 322 322 323 323 323 324 324 322 320 319 314 318 318 320 319 317 316 315 315 315 314 314 314 314 314 318
310 311 313 316 317 318 320 327 327 321 319 318 324 322 323 324 323 322 322 322 322 322 322 322 322 321 319 320 317 319 319 318 317 317 317 316 316 316 315 314 315 315 315 316
309 310 312 316 316 315 323 326 325 324 323 321 323 323 324 323 322 322 322 321 320 318 320 318 318 317 317 319 319 320 320 313 312 317 315 316 313 317 316 316 315 315 314 316
310 310 312 316 317 321 326 324 327 320 318 324 324 325 323 323 322 321 322 320 318 319 315 313 312 312 314 318 317 319 315 314 310 309 307 309 318 315 314 315 314 313 316 315
310 310 312 316 317 322 321 322 327 316 312 325 324 322 323 321 322 322 321 320 317 316 319 312 310 309 306 312 316 317 318 311 306 312 312 312 317 316 315 315 314 316 316 314
310 311 312 316 318 321 317 316 324 320 314 318 325 321 321 320 321 321 321 320 319 320 310 307 311 314 314 316 317 313 316 310 308 306 307 306 313 315 314 314 312 316 314 313
311 311 311 313 317 322 322 314 321 327 319 320 322 322 321 321 321 319 320 321 320 317 309 314 312 315 317 316 315 309 307 307 306 314 303 309 314 314 313 314 311 315 312 311
311 311 312 312 315 321 324 316 320 325 317 319 320 321 323 322 320 315 319 315 314 308 313 309 310 310 311 314 315 312 309 307 312 314 312 311 313 313 311 311 314 312 310 310
311 311 312 312 313 317 323 321 321 323 321 320 320 318 318 319 321 319 318 314 321 317 312 309 311 312 313 311 312 314 314 313 312 311 310 310 313 312 312 312 312 311 310 309
311 312 312 313 313 315 322 321 320 324 315 317 318 319 319 319 320 322 318 316 319 320 317 311 314 309 312 309 313 315 314 315 310 313 315 315 313 313 313 311 310 309 309 309
311 311 312 313 313 316 320 321 319 320 312 308 317 318 319 317 319 321 321 320 321 317 309 308 310 307 314 309 310 309 311 314 314 311 315 314 314 311 309 309 308 309 307 308
312 312 312 313 314 317 319 318 317 319 320 310 311 318 317 317 320 319 320 320 318 313 308 306 308 304 309 304 306 309 315 313 311 310 313 313 312 310 310 311 309 308 307 302
312 312 313 313 314 315 321 318 319 317 321 310 310 316 316 317 318 320 319 319 317 316 308 304 311 317 310 310 309 313 314 313 312 312 314 312 310 308 309 308 308 305 301 301
311 312 313 313 314 317 316 315 315 315 319 306 308 315 311 312 316 313 314 317 315 315 310 310 306 310 313 307 313 313 313 312 312 311 309 308 308 308 307 305 303 301 299 296
310 311 312 313 313 314 317 315 314 318 318 309 311 313 307 312 307 308 308 306 309 314 312 309 307 307 304 310 313 314 313 312 311 309 308 308 306 306 305 303 299 296 295 294
311 311 312 312 313 315 315 314 313 315 316 309 304 309 310 308 306 303 303 307 308 308 306 308 310 308 313 312 313 313 311 310 309 307 307 307 307 306 300 296 295 295 294 294
311 311 311 305 310 310 312 313 307 304 304 307 307 308 310 309 303 304 305 301 306 310 307 306 305 309 308 309 310 310 309 308 308 308 307 307 302 297 296 295 295 295 294 294
308 303 300 305 309 310 305 307 309 307 308 307 307 306 309 305 306 306 302 305 304 309 305 308 307 308 307 307 308 307 308 308 307 304 300 298 296 295 295 295 295 294 294 293
304 303 303 305 301 301 308 307 304 306 310 303 305 305 306 302 306 303 301 307 304 309 304 307 308 304 307 306 306 306 305 301 298 297 297 296 296 295 294 294 293 294 294 293
302 300 298 302 297 305 308 309 307 306 301 300 300 302 299 300 301 301 303 307 308 302 307 307 303 307 306 305 297 296 295 295 295 295 294 294 293 292 292 292 292 292 292 292
297 300 303 303 304 303 301 302 302 298 298 298 298 299 301 298 302 301 306 303 302 307 306 301 304 305 304 302 297 295 293 292 292 293 294 294 293 293 293 293 292 292 292 292
298 299 304 302 298 297 297 296 297 296 297 298 299 299 300 301 301 301 301 303 306 306 306 302 300 299 299 296 295 292 291 290 292 294 293 293 293 292 292 292 293 293 293 293
298 298 299 298 300 300 298 297 297 296 295 297 298 301 304 303 302 303 305 306 306 305 301 298 296 296 295 295 294 294 294 294 294 294 294 293 293 293 293 293 293 293 292 292
298 298 297 298 298 299 298 296 297 298 298 301 300 303 301 299 302 303 302 304 302 299 296 294 295 295 295 294 295 296 295 294 294 294 293 293 293 292 292 292 293 293 293 293

GFSNW_925_thetae_018.txt.gz
Theta_e
312 312 315 315 315 314 316 320 317 326 325 310 316 321 324 318 319 320 321 322 323 321 322 324 323 323 321 318 319 316 316 315 315 320 316 317 317 319 316 314 317 312 312 314
311 312 316 316 316 315 317 318 320 326 326 311 311 320 321 320 319 320 321 322 322 322 322 324 324 322 319 316 317 319 315 315 315 319 319 316 316 317 319 314 310 314 308 310
311 312 316 316 316 317 323 320 317 317 317 316 319 325 321 322 320 321 321 321 321 321 322 322 323 322 320 315 314 313 317 317 315 317 318 313 314 314 316 315 311 313 312 314
311 312 315 317 317 317 319 321 318 313 313 314 320 323 321 322 322 320 320 321 321 321 323 323 322 321 319 317 313 316 315 317 317 315 314 314 314 314 313 313 313 314 313 315
310 311 315 316 317 317 319 323 322 315 311 315 320 320 322 322 322 321 321 320 321 320 320 320 322 318 317 317 316 318 316 315 314 315 315 316 315 315 315 313 313 314 314 317
310 312 316 316 317 318 319 321 322 316 316 313 318 320 320 322 321 320 320 319 317 317 319 316 315 315 316 317 316 319 316 311 308 311 312 313 310 315 315 315 313 313 313 314
310 312 316 316 315 317 324 324 322 316 315 318 318 323 321 321 320 321 320 317 316 318 314 310 309 309 312 315 316 315 312 311 303 305 302 305 315 313 313 313 315 314 313 312
311 312 315 316 320 321 322 322 322 313 309 320 322 321 321 320 319 320 320 319 315 313 312 307 308 307 309 311 315 317 312 305 306 303 309 306 314 314 314 312 313 314 314 312
310 311 314 317 320 319 316 323 326 312 311 316 322 319 319 318 318 317 320 318 317 311 304 304 309 310 308 315 317 312 312 304 304 308 303 302 306 313 312 311 312 314 312 311
310 311 312 316 321 321 315 318 324 321 315 317 320 318 319 317 316 316 319 320 318 310 300 309 306 314 312 314 312 308 307 302 304 297 300 306 307 312 311 312 309 313 311 309
311 311 312 314 319 321 318 320 324 320 313 316 319 319 319 318 315 314 315 313 310 306 306 304 310 304 309 311 313 311 309 308 307 306 301 309 309 312 311 308 311 311 309 308
311 311 312 312 316 322 320 318 322 321 315 316 318 318 319 319 317 315 314 312 314 311 309 307 311 305 309 307 313 312 312 308 309 310 310 308 309 310 309 310 311 308 307 307
311 311 312 312 316 322 318 320 322 320 308 312 315 318 318 319 319 318 315 311 317 316 309 308 304 305 307 309 311 314 311 312 309 311 312 311 311 312 311 310 309 307 307 307
311 311 312 313 318 320 319 318 321 317 306 305 314 317 317 318 320 321 319 317 316 310 306 305 306 304 308 304 307 307 308 312 313 309 311 313 313 312 308 307 307 307 308 307
311 311 312 313 318 318 317 317 318 321 313 309 308 315 316 317 319 319 319 317 314 309 305 303 306 300 306 303 303 306 312 311 310 311 309 310 311 308 307 308 308 308 307 301
312 312 312 313 315 319 320 314 316 320 319 307 307 310 311 314 318 317 318 316 313 310 306 304 305 311 305 309 312 310 313 313 311 312 311 311 309 307 308 309 308 308 301 296
312 312 312 313 315 319 315 311 314 317 317 304 308 307 308 311 314 309 310 312 311 312 305 304 304 306 310 306 310 311 311 311 311 310 308 308 307 307 308 309 304 297 295 294
311 312 312 313 315 316 316 312 316 318 314 304 306 305 305 310 304 306 305 304 307 309 310 306 306 305 303 311 312 312 312 312 310 308 308 307 306 305 304 301 296 295 293 293
311 311 311 311 312 313 314 313 314 315 313 307 302 308 309 305 305 301 300 303 305 304 308 306 308 307 313 311 311 312 312 310 309 306 306 307 307 306 298 296 295 294 293 293
311 311 310 308 308 310 312 313 305 303 304 303 304 304 308 307 301 303 303 300 306 311 306 306 305 309 308 306 308 309 308 307 307 308 308 307 300 297 296 295 294 294 293 293
310 304 301 307 309 310 303 306 307 306 307 305 305 304 307 301 306 306 300 304 303 309 303 307 302 307 304 305 305 306 306 306 303 304 303 298 297 296 295 294 293 293 293 292
306 305 305 306 301 302 309 307 304 306 309 302 304 303 305 301 302 304 302 305 304 308 303 307 308 305 305 301 300 299 298 298 297 297 296 295 294 293 292 291 291 291 292 293
303 300 298 303 299 307 311 313 307 306 300 300 300 304 299 300 301 301 303 307 307 302 307 308 304 306 301 297 297 296 296 295 295 294 295 293 292 292 292 292 291 292 291 291
298 301 303 304 303 302 301 302 302 298 297 298 298 299 301 298 302 301 306 303 302 307 306 301 303 303 302 297 296 295 293 291 292 293 293 292 292 292 292 292 292 292 292 292
298 297 302 298 297 297 297 296 297 296 296 297 299 299 300 300 301 301 301 303 305 305 304 302 298 299 297 294 293 292 291 291 292 292 292 293 292 292 292 292 292 292 292 293
296 297 299 297 299 299 298 297 297 296 295 296 297 301 303 301 301 302 304 304 303 303 300 297 296 296 295 294 295 294 294 293 293 293 293 293 292 292 291 292 292 292 292 292
297 298 296 297 297 298 297 296 296 297 297 300 299 297 299 298 301 302 302 302 301 299 297 294 294 294 294 293 294 294 294 293 293 293 292 291 292 292 292 291 292 292 293 293

GFSNW_925_thetae_021.txt.gz
Theta_e
311 312 313 314 312 313 318 315 310 325 321 309 313 319 322 319 318 318 321 321 321 318 321 323 322 321 319 317 318 315 315 313 315 318 315 316 316 317 314 311 316 311 310 313
311 312 314 314 313 314 319 314 320 325 317 308 310 316 321 319 318 319 320 321 321 320 322 322 322 320 318 313 316 317 315 314 315 317 317 314 317 316 314 311 308 313 308 311
311 313 316 314 314 314 320 313 316 314 314 310 313 320 320 321 319 320 319 320 320 320 322 320 321 321 318 312 312 313 314 315 313 316 315 313 313 313 315 313 311 312 310 312
311 313 316 315 314 315 322 317 314 312 314 316 321 320 320 321 321 320 318 320 321 320 322 322 321 320 318 314 313 315 313 315 315 313 313 313 313 313 312 314 313 313 312 312
311 314 316 316 315 319 318 321 316 312 308 312 317 319 321 320 321 320 320 319 320 319 319 319 321 317 315 312 315 317 313 313 312 316 313 314 314 311 311 310 311 313 311 315
311 315 316 316 316 317 316 318 319 313 312 313 317 318 321 320 319 319 318 318 316 316 318 315 314 314 314 315 315 317 312 309 306 306 309 311 305 311 314 313 312 312 312 312
312 315 316 316 316 316 321 323 317 314 313 311 313 320 320 320 319 320 318 316 316 316 310 309 308 308 312 315 315 312 310 307 301 303 302 303 308 311 312 312 313 314 313 311
312 315 316 316 317 317 324 322 317 311 309 316 320 320 319 318 318 319 319 318 314 310 306 306 309 306 308 310 314 312 310 303 305 303 305 305 310 313 312 313 311 312 312 310
312 315 317 318 316 317 322 323 319 311 314 317 319 319 318 316 315 316 319 316 313 308 301 303 305 306 308 314 316 311 307 301 303 305 300 300 304 312 310 310 311 311 310 309
312 314 318 321 320 318 319 322 323 317 313 316 318 317 317 314 313 314 318 318 316 307 299 300 305 312 309 313 311 308 307 300 303 294 299 305 305 311 310 312 307 311 310 309
312 312 316 320 318 315 318 321 323 318 311 316 318 318 317 315 313 313 314 312 309 303 306 303 304 302 308 310 311 311 310 310 306 304 302 308 307 310 311 309 307 311 309 308
311 312 314 318 320 317 320 321 320 318 313 316 317 318 318 318 314 313 311 313 311 310 306 301 304 302 309 306 310 309 310 307 308 308 309 306 306 309 308 307 309 309 308 306
311 311 313 318 322 321 318 321 321 316 307 311 314 317 317 319 319 316 313 308 312 311 305 306 306 303 303 309 309 311 310 309 307 309 309 308 307 308 310 308 309 306 306 306
310 311 314 318 320 318 318 319 317 313 303 305 312 316 316 317 319 320 316 314 311 306 303 302 304 302 305 304 306 307 308 310 310 308 309 310 311 309 309 308 306 307 307 306
310 311 314 317 317 317 318 319 319 319 311 308 307 313 315 315 318 319 318 314 311 307 304 303 306 299 304 303 302 306 309 310 308 310 308 310 309 309 307 307 306 307 307 302
311 311 313 317 316 315 314 309 315 319 314 307 309 308 310 313 316 315 314 314 310 308 307 303 303 306 304 309 312 310 310 310 307 309 308 308 309 306 306 307 307 306 299 296
311 311 312 313 317 317 311 307 314 318 313 304 308 304 306 309 310 307 309 309 309 309 306 302 304 307 308 306 310 310 310 309 310 309 307 309 307 307 307 307 302 296 294 293
312 312 314 315 315 315 313 314 317 316 311 301 304 303 304 308 305 306 303 304 306 307 308 305 308 304 304 309 310 310 311 310 310 308 307 308 306 306 303 296 295 294 294 293
311 311 311 311 312 310 313 313 315 315 311 305 302 306 308 303 304 301 301 303 306 304 306 305 306 306 309 312 310 310 310 311 310 306 306 305 304 298 297 296 296 295 293 292
310 310 308 300 306 309 312 311 303 302 303 301 302 303 307 307 301 303 303 300 309 311 305 306 306 309 306 304 304 305 307 307 306 306 306 300 299 298 298 297 296 294 293 292
310 305 301 308 308 309 301 305 303 307 308 304 303 303 307 302 306 305 298 304 303 311 303 309 306 307 303 301 301 300 300 300 300 301 299 298 297 295 294 293 293 293 292 292
307 306 306 306 300 300 305 306 304 306 308 301 304 303 305 301 300 304 302 305 304 308 302 307 308 302 298 297 297 297 297 296 296 295 295 294 293 293 292 291 290 290 291 291
305 302 299 304 300 309 311 311 307 306 300 300 300 304 298 300 300 301 303 307 307 301 307 308 305 302 299 298 299 298 297 296 296 295 294 293 292 291 291 291 291 292 291 291
299 302 304 304 304 302 302 302 302 297 297 298 298 299 300 298 302 301 306 303 302 307 305 300 302 300 298 295 292 293 292 290 295 293 292 291 291 291 292 292 292 292 291 292
298 297 301 298 297 297 296 296 297 295 296 297 299 299 300 301 302 300 300 303 304 303 300 301 298 296 296 294 294 294 293 292 292 291 292 292 292 291 291 291 291 291 292 292
297 297 298 297 298 299 298 297 297 295 295 295 297 301 301 301 300 300 301 302 301 301 300 297 295 296 295 294 295 296 296 293 292 292 292 291 291 291 291 292 292 292 292 292
297 298 296 297 297 298 297 296 296 296 297 300 299 294 297 297 298 301 301 300 300 298 298 295 296 296 294 293 293 293 293 292 291 291 291 291 291 292 292 291 291 292 292 292

GFSNW_925_thetae_027.txt.gz
Theta_e
312 309 308 310 312 311 313 308 312 321 317 313 311 315 316 320 317 317 319 316 317 318 318 320 320 320 318 314 317 319 314 317 320 316 314 315 315 316 316 318 315 314 315 317
311 309 308 311 311 311 314 310 320 318 309 314 313 313 318 319 316 318 319 320 318 319 321 321 320 319 315 311 315 317 315 317 320 319 316 314 317 316 312 311 313 317 325 316
310 308 308 312 311 312 316 316 321 316 309 308 313 318 318 319 317 318 317 318 318 320 321 319 321 320 316 312 314 313 314 314 317 319 315 314 315 317 313 315 318 315 317 315
309 307 310 311 311 312 316 312 316 316 317 313 311 314 318 319 320 318 316 319 319 320 321 320 319 318 314 313 314 315 313 317 314 313 313 312 311 313 314 314 314 318 314 313
308 308 311 311 312 312 315 315 313 307 311 314 313 316 318 318 318 319 319 320 318 318 320 319 321 318 313 311 315 316 312 316 312 315 313 312 314 312 311 313 312 313 312 313
307 310 311 311 313 313 314 315 310 311 308 314 312 316 318 318 319 317 316 317 317 318 317 315 313 312 312 313 317 314 312 313 311 313 308 308 312 312 312 311 311 314 315 314
309 310 311 313 313 314 317 318 311 311 309 313 313 316 318 318 317 319 316 315 316 313 310 309 311 311 313 313 310 310 309 307 304 312 306 313 311 310 310 312 311 310 310 311
310 311 312 315 313 314 321 320 314 309 306 309 315 317 318 317 316 318 317 316 311 309 308 313 314 312 312 311 309 307 307 307 307 315 311 308 309 306 311 313 313 311 311 311
310 311 314 315 313 314 320 321 315 309 309 311 314 317 316 317 316 316 315 312 307 305 305 309 315 318 314 313 315 309 306 304 312 306 311 312 309 306 310 311 317 310 311 311
312 314 315 315 313 315 320 320 317 314 315 315 314 317 317 312 313 315 313 313 314 306 306 310 312 313 308 313 312 312 313 309 312 303 313 310 306 307 309 314 315 308 311 311
314 315 315 315 314 316 320 320 321 315 312 315 316 314 313 313 314 317 314 315 313 308 312 313 310 312 311 311 310 313 314 314 313 305 310 315 306 311 315 314 308 309 310 310
316 317 316 316 314 316 320 318 315 316 314 315 315 315 315 315 311 313 310 315 312 313 311 305 305 311 307 308 316 308 314 312 315 311 315 309 306 312 309 307 309 309 310 309
318 320 316 315 315 316 320 317 316 314 309 313 314 315 315 317 315 313 316 308 311 309 305 305 305 310 307 314 312 311 309 306 311 310 311 307 307 307 306 307 309 308 309 310
319 319 318 316 316 319 318 317 311 311 306 309 314 313 312 314 317 316 312 309 306 304 304 304 305 310 304 308 309 310 310 308 310 309 309 308 308 308 310 309 307 308 308 308
318 319 318 318 318 318 315 314 312 311 310 310 310 310 311 312 313 312 310 309 309 308 307 305 309 302 306 304 305 308 308 311 313 315 310 310 310 308 308 310 310 309 308 304
317 317 318 318 318 317 315 312 316 312 312 310 311 306 306 310 311 310 310 310 308 309 309 305 305 304 307 310 311 309 308 307 307 310 308 307 308 307 308 309 308 306 303 299
316 316 316 314 312 309 306 307 312 311 310 306 308 307 304 305 307 305 307 308 307 309 307 304 305 308 306 307 313 309 308 308 309 308 308 311 308 309 304 299 296 295 295 296
314 314 313 313 313 314 313 310 313 311 306 302 306 305 306 305 308 306 304 306 308 308 308 305 306 306 306 312 307 304 304 304 307 306 306 306 298 296 296 296 298 297 296 294
313 312 311 310 311 309 312 311 312 311 307 304 300 307 310 305 304 302 304 305 310 304 307 308 310 306 308 301 300 300 300 302 303 299 297 298 299 298 298 296 295 294 293 292
310 310 308 304 308 308 309 309 304 303 300 303 303 302 307 307 303 304 305 304 307 314 306 306 307 307 298 298 298 298 298 298 301 302 299 298 297 296 296 295 294 294 294 293
309 304 304 307 307 307 299 303 305 304 305 304 303 304 307 302 310 307 301 306 304 311 308 310 308 306 299 298 298 296 296 296 296 296 295 295 295 295 294 294 294 294 294 292
307 307 306 305 302 301 306 305 303 305 307 302 305 303 305 301 300 305 303 306 305 310 303 308 308 300 300 299 298 297 296 296 296 295 295 295 295 294 295 294 291 290 290 290
306 302 299 303 300 304 304 310 309 307 301 300 301 303 300 301 301 302 305 309 309 302 308 308 304 300 298 297 297 296 295 294 294 294 293 292 291 290 291 290 290 290 290 290
298 302 306 301 307 304 303 304 304 298 298 299 299 300 302 299 303 302 309 302 303 308 307 302 300 297 295 294 294 295 294 290 291 290 290 290 289 289 290 290 290 291 290 290
299 299 301 300 297 297 296 296 297 296 296 297 300 300 301 302 303 301 302 303 302 301 300 300 297 294 294 295 294 294 294 291 291 291 291 290 289 289 289 290 290 290 290 290
296 297 299 297 299 299 298 298 298 296 295 296 298 301 303 301 301 301 301 302 300 299 299 297 295 295 295 295 294 294 294 292 291 290 289 289 289 289 289 289 288 287 286 286
297 298 295 297 298 298 297 296 296 295 298 301 300 301 301 298 301 302 301 301 299 298 297 296 295 295 295 294 294 292 291 290 290 289 289 288 288 287 286 285 285 283 283 283

GFSNW_925_thetae_030.txt.gz
Theta_e
305 311 313 314 309 311 311 316 320 320 319 324 322 322 319 322 321 320 320 320 320 320 322 322 319 321 321 319 320 322 319 323 325 322 319 319 320 321 319 319 319 321 322 317
304 311 313 312 308 311 313 318 324 318 314 324 324 319 319 323 320 321 322 322 322 322 324 324 323 323 318 317 320 323 320 323 325 322 320 319 320 320 318 318 320 320 329 316
303 309 314 310 309 311 316 320 326 324 319 317 320 320 320 322 320 321 322 323 323 324 324 324 325 324 318 316 318 312 316 322 323 324 320 320 320 320 318 318 320 317 319 314
302 308 312 309 310 311 317 321 322 323 323 319 319 320 319 321 323 321 322 323 324 324 326 324 325 323 317 317 316 319 320 322 320 317 317 317 317 318 319 318 318 318 315 316
301 308 310 308 311 311 317 321 321 318 321 317 318 317 320 321 322 322 323 325 324 324 326 323 325 323 320 321 319 321 318 322 319 320 317 316 317 317 317 318 318 318 317 317
302 307 311 308 311 312 319 319 314 320 315 318 319 319 319 319 324 321 321 324 324 324 323 321 321 319 318 318 321 322 321 320 319 319 314 315 321 318 317 316 317 317 318 317
305 309 310 308 311 313 319 321 318 323 321 318 316 317 320 321 323 324 320 321 324 319 317 317 318 318 318 317 316 316 318 317 316 321 313 328 314 313 314 316 316 316 315 315
308 311 308 310 311 313 320 319 319 321 323 319 317 318 321 322 322 323 322 320 317 317 317 322 321 323 323 319 314 314 314 316 317 327 316 314 311 311 312 315 314 315 315 314
311 308 308 310 311 312 320 320 315 321 323 320 316 320 323 324 325 323 319 314 313 312 318 323 327 326 321 321 320 314 312 313 319 316 332 333 315 312 313 314 316 313 315 316
307 308 310 311 312 312 321 318 314 320 326 317 320 320 323 322 324 325 318 316 317 314 322 333 329 325 315 319 319 320 321 319 325 319 326 318 312 310 313 316 315 315 315 316
309 310 310 313 313 313 320 319 316 323 324 320 320 318 321 320 324 327 319 320 319 319 328 330 323 328 317 317 315 318 320 323 324 317 326 326 310 314 319 316 316 314 315 316
310 310 312 314 313 313 319 320 316 319 323 322 317 316 316 318 319 322 319 324 321 322 325 322 319 321 315 320 323 314 319 319 320 318 319 313 312 316 315 314 315 314 314 314
313 314 314 314 313 314 318 319 316 319 322 320 322 321 317 316 316 316 323 319 319 318 316 320 320 323 319 323 321 319 315 312 317 315 314 314 313 313 312 312 313 313 313 313
315 315 315 314 313 315 318 318 315 317 320 318 322 314 316 313 317 318 316 317 313 312 315 321 316 327 314 320 317 318 315 314 316 316 315 313 313 312 312 313 314 314 313 313
319 317 315 314 314 316 316 314 312 312 318 321 322 315 312 313 314 314 314 315 317 318 320 319 325 314 316 311 313 317 312 315 318 318 313 313 314 313 312 313 314 314 313 312
318 315 315 314 315 317 315 321 315 312 313 323 324 313 313 313 315 315 316 316 317 318 321 315 313 309 316 318 321 313 312 313 313 315 314 314 313 312 310 310 308 307 306 304
316 315 316 318 316 314 316 316 313 310 310 320 317 319 312 310 314 312 316 315 317 319 314 310 313 314 315 314 323 310 309 309 311 310 313 314 307 306 303 303 302 300 298 296
314 315 314 313 313 314 314 308 310 308 312 317 317 316 318 310 314 314 309 313 317 313 311 310 312 310 312 317 306 306 306 307 309 305 307 305 303 302 301 299 298 297 295 294
311 310 311 311 312 317 315 310 310 309 314 318 310 321 319 309 308 307 310 312 314 309 314 313 314 311 313 303 302 303 303 304 304 303 303 301 300 298 297 297 296 296 295 295
309 310 313 316 310 308 309 311 316 314 311 309 306 307 312 311 310 310 311 310 312 317 313 309 314 304 300 300 299 299 300 302 302 301 299 297 296 296 296 296 296 296 296 296
310 312 312 309 307 310 310 312 313 313 313 308 307 310 311 306 313 312 307 312 310 315 313 314 313 306 300 299 297 298 298 298 298 297 296 296 297 297 295 297 297 296 295 294
309 310 306 306 308 311 311 308 309 311 312 306 309 307 308 306 306 309 307 310 309 315 310 313 311 302 300 299 298 298 298 298 298 298 298 297 297 296 296 294 292 292 291 290
307 308 306 312 307 314 318 313 312 312 305 303 305 306 306 305 308 307 309 314 313 307 310 311 305 301 299 298 298 298 297 296 296 295 294 293 293 292 292 292 291 290 291 291
304 308 310 310 313 307 307 309 307 300 300 302 304 304 309 304 307 305 313 304 306 312 311 308 302 299 297 297 297 297 296 292 293 293 293 291 291 291 289 289 289 289 290 290
302 305 305 303 299 298 298 297 299 298 297 300 305 304 306 305 307 305 306 308 310 309 309 303 299 297 297 297 297 296 295 293 294 294 291 289 290 291 291 289 288 287 286 285
299 299 301 299 301 300 299 298 298 297 297 298 302 304 309 306 307 308 309 310 309 304 302 299 297 296 296 296 295 295 295 294 293 292 291 290 289 289 289 288 285 284 284 284
299 300 296 298 299 299 297 297 296 295 299 303 305 309 306 302 306 306 305 306 304 301 299 297 296 296 295 296 295 293 292 292 292 291 290 288 287 285 285 285 283 282 283 282

GFSNW_925_thetae_033.txt.gz
Theta_e
302 305 304 306 310 314 310 318 321 321 322 321 325 326 322 319 320 323 320 320 320 319 320 320 319 320 321 322 322 322 322 322 324 323 322 322 322 323 323 323 321 321 326 319
302 304 306 306 309 312 312 321 323 324 321 327 331 324 321 321 321 323 321 319 320 319 320 321 319 319 322 322 323 322 323 321 323 324 323 321 320 320 321 320 321 320 327 320
301 303 305 307 309 311 314 321 326 325 325 323 325 324 321 321 321 322 321 319 323 322 322 322 322 322 322 321 322 313 317 321 323 325 322 322 323 320 320 320 321 319 319 318
300 302 303 306 310 311 314 322 322 323 327 328 326 323 321 321 322 323 323 323 323 323 324 325 325 324 322 321 317 320 323 323 322 321 321 320 320 319 320 320 319 321 319 316
301 301 302 307 311 310 314 322 322 323 325 324 323 320 321 320 323 323 324 323 322 322 323 324 324 325 323 323 323 324 322 323 323 324 322 320 320 320 318 318 318 317 317 317
302 302 302 306 311 310 315 321 320 323 325 327 323 324 320 320 324 325 323 322 323 324 325 326 325 324 323 323 325 325 324 323 322 319 318 318 323 321 320 318 318 318 320 318
302 301 302 305 311 310 316 320 321 325 328 327 321 320 320 321 324 324 324 324 325 324 322 322 322 321 321 321 321 323 324 323 323 322 318 326 315 315 315 317 317 317 316 316
302 301 299 305 310 309 317 322 322 323 330 322 320 319 320 320 324 325 325 323 323 322 323 324 324 324 324 320 317 317 319 320 322 329 318 316 314 313 314 315 315 315 315 315
301 302 302 304 309 309 312 322 323 324 329 323 318 318 319 324 326 327 322 320 320 320 325 327 326 325 322 324 323 316 316 317 320 319 328 329 319 314 314 315 317 314 314 314
302 302 304 307 309 309 311 324 320 320 321 318 318 319 320 321 323 325 323 322 321 320 329 333 330 327 321 323 324 322 323 324 327 322 327 321 316 314 315 318 319 316 315 315
303 306 307 310 308 310 311 324 323 324 325 323 322 320 320 323 323 329 324 324 323 324 329 334 329 332 323 322 320 322 323 327 325 325 327 326 314 315 317 319 315 315 316 315
306 308 310 308 309 311 312 323 322 325 324 324 322 321 320 322 324 324 323 324 325 325 326 330 331 327 322 327 324 318 322 322 323 321 321 316 315 314 315 315 315 315 315 315
309 308 308 310 311 312 314 323 324 323 326 324 323 323 320 319 321 322 325 326 324 325 325 327 329 327 326 326 326 323 319 317 319 318 315 315 314 314 314 314 315 315 315 315
308 309 310 311 312 312 313 322 322 323 325 324 325 319 319 318 320 321 322 323 321 322 324 330 320 328 321 327 323 321 319 317 317 318 316 316 315 315 315 316 316 316 316 316
310 310 311 313 314 313 315 318 318 318 323 326 325 319 317 318 319 319 319 320 322 323 326 322 329 322 323 320 320 323 316 318 320 320 316 317 317 316 315 315 314 313 313 313
313 313 314 314 313 312 317 324 316 313 321 325 327 319 319 318 319 319 321 322 322 323 327 324 320 316 323 326 324 317 315 314 314 318 316 316 315 310 309 308 308 307 306 304
315 314 314 313 313 317 320 317 317 314 317 324 323 324 318 317 319 319 321 321 322 324 323 318 321 319 320 320 325 315 312 312 313 311 314 315 309 309 307 303 300 298 297 296
315 314 313 313 314 313 318 308 312 311 317 321 320 320 322 317 322 320 316 322 323 318 315 315 317 316 319 324 312 311 310 311 309 309 308 308 306 304 302 299 298 297 296 295
312 313 313 315 316 320 315 309 310 312 317 321 312 321 321 314 313 314 316 319 318 314 318 317 318 315 318 309 309 307 307 307 306 305 304 303 302 300 298 297 297 297 297 297
313 315 316 319 313 309 310 312 320 318 315 313 312 315 319 316 315 314 315 313 318 318 316 314 318 310 304 302 302 302 303 305 303 301 300 299 299 299 300 301 300 299 298 298
316 318 315 311 309 313 315 316 318 318 316 311 310 315 315 310 316 312 311 316 314 317 316 317 315 310 304 300 300 301 302 304 303 300 300 300 300 299 299 298 297 296 294 294
312 313 310 310 313 315 315 311 311 315 314 308 311 310 309 308 311 311 312 311 312 319 313 317 316 304 300 299 301 301 301 301 300 300 299 299 298 297 296 294 294 293 293 292
312 312 309 315 310 317 316 313 314 311 308 306 310 309 310 309 310 311 311 318 318 311 314 314 307 301 299 300 300 299 299 298 298 297 296 295 294 294 294 293 292 293 292 292
310 313 312 313 311 308 308 309 308 301 303 307 307 307 310 308 311 310 321 306 309 314 314 312 303 299 298 299 299 299 297 295 296 295 294 293 293 292 290 290 290 289 290 289
304 307 309 305 300 299 299 299 301 299 300 306 308 308 310 308 309 309 309 309 312 312 312 305 300 297 297 299 299 297 295 294 296 295 292 292 292 292 292 290 288 287 286 285
301 301 302 300 302 301 300 299 299 298 299 303 309 310 311 308 308 309 315 315 314 308 304 301 299 297 298 299 298 297 297 296 294 294 292 291 291 292 291 287 285 284 284 284
302 301 297 299 299 299 298 297 297 296 300 305 306 314 310 306 309 310 308 310 306 302 300 299 299 297 297 297 296 294 294 294 294 293 292 291 289 287 287 286 285 284 284 282

GFSNW_925_thetae_036.txt.gz
Theta_e
300 302 303 303 305 307 311 314 316 318 319 322 319 327 324 321 323 320 321 320 319 319 321 320 318 319 321 321 321 321 321 322 327 323 322 321 321 323 322 334 323 326 333 325
298 301 303 302 304 307 311 315 319 320 320 321 323 324 324 322 322 322 322 321 320 320 320 320 320 320 324 324 323 323 324 323 326 322 323 322 321 320 319 322 325 326 336 325
299 301 302 303 305 307 312 316 322 324 324 318 322 326 324 322 322 320 321 321 320 321 320 321 321 320 323 322 323 315 323 322 320 326 322 322 324 322 319 320 331 324 323 318
298 301 301 304 305 306 311 318 320 323 324 326 323 326 323 322 322 321 321 321 319 323 322 321 323 321 324 322 317 320 323 320 320 319 321 321 322 321 320 319 321 323 323 318
298 300 302 304 305 306 310 318 322 323 322 323 324 325 326 322 321 321 323 322 321 323 323 323 323 323 325 323 323 323 323 325 323 325 323 322 321 320 320 320 318 318 318 318
301 301 302 304 305 307 309 313 320 322 323 324 325 327 326 324 323 323 322 322 323 323 324 326 326 326 326 324 326 326 326 328 328 327 320 319 321 321 320 320 319 319 320 320
301 302 301 301 302 306 310 313 321 323 326 324 325 326 324 322 323 326 323 324 325 326 324 324 324 323 324 325 325 325 327 328 330 331 319 325 316 316 315 316 316 316 316 316
300 301 302 302 302 305 310 315 322 324 325 324 324 326 325 322 322 325 325 326 326 326 326 327 326 327 322 322 320 321 323 326 328 330 324 318 316 315 315 315 315 315 315 315
300 302 302 302 301 303 308 312 317 323 326 327 323 322 324 324 329 328 324 324 325 326 330 334 329 331 323 323 321 317 317 323 329 325 331 328 321 315 315 315 320 316 315 316
302 302 302 301 302 304 307 311 313 324 325 324 323 322 324 326 328 328 326 323 323 324 337 329 337 331 322 328 327 323 325 327 326 325 329 325 317 315 315 321 323 317 316 316
301 302 300 301 303 304 308 311 312 320 326 324 324 322 322 325 327 330 327 326 325 332 332 337 335 332 329 326 321 324 325 330 325 330 324 325 315 316 318 321 318 317 316 317
302 301 301 302 303 303 307 310 312 314 325 327 324 323 323 324 325 329 326 328 326 327 330 333 336 326 323 330 329 320 326 325 329 325 326 319 315 315 316 316 316 316 317 317
300 301 303 304 304 306 308 310 313 321 327 325 324 325 322 322 324 324 328 330 326 327 328 332 333 322 331 325 332 328 320 319 324 321 316 316 316 315 316 316 317 316 316 317
301 302 303 305 306 308 309 310 313 325 326 325 325 321 321 320 322 324 326 328 327 330 331 335 320 325 326 333 328 329 321 319 318 319 317 317 318 318 317 317 316 315 315 311
303 303 305 308 309 308 309 311 315 320 325 325 325 320 320 320 322 322 324 327 328 329 329 317 332 327 329 326 326 330 319 319 326 326 318 319 317 313 313 312 311 310 309 304
308 309 309 308 309 310 312 320 320 319 323 325 326 320 321 320 321 321 324 325 327 327 331 328 325 320 328 325 329 319 317 317 316 319 316 317 312 309 307 306 305 304 303 301
307 308 309 310 311 312 318 318 316 319 323 325 322 322 319 320 321 322 323 323 326 326 326 325 324 321 324 320 330 317 314 314 313 312 314 312 312 307 303 301 299 299 298 297
309 310 312 313 315 315 315 310 312 316 320 324 321 316 323 319 325 322 321 326 324 321 318 319 324 319 325 327 316 313 312 312 311 310 310 308 306 303 301 300 299 298 298 297
312 312 313 315 316 320 314 312 313 314 318 321 314 321 320 318 316 317 319 321 319 316 319 320 320 317 321 317 313 311 311 310 308 306 306 305 303 301 300 299 299 298 298 298
313 313 316 315 315 310 310 316 317 315 318 315 315 318 321 317 317 315 317 315 318 320 316 315 318 311 307 306 306 306 307 307 305 302 302 301 300 300 300 300 299 298 296 295
316 319 314 311 312 315 316 316 317 316 318 311 313 316 317 313 316 313 313 316 316 319 317 318 315 313 306 303 304 303 305 304 303 302 301 301 301 300 299 298 296 294 294 293
315 314 312 312 316 316 313 313 313 316 315 309 312 313 311 311 314 313 313 312 313 318 313 316 317 307 302 302 303 303 303 302 302 301 300 299 299 298 296 295 294 294 292 290
312 312 308 315 309 316 318 314 316 310 307 306 311 309 310 310 310 311 310 312 317 315 316 314 309 302 301 302 302 301 300 300 300 299 297 296 295 295 294 293 293 293 292 289
310 310 310 310 311 307 306 307 306 301 302 306 308 309 309 309 308 308 310 307 310 314 314 314 303 300 301 301 300 300 298 296 297 296 294 293 292 291 291 290 289 289 288 287
304 306 307 304 300 299 299 298 300 299 302 307 310 310 310 308 310 310 307 310 313 312 314 307 300 299 299 300 300 296 296 295 296 294 293 292 292 292 291 289 287 286 284 284
298 299 302 300 302 301 299 299 299 298 300 305 310 310 310 309 309 310 314 314 315 310 305 300 298 298 298 299 297 296 296 297 295 293 292 292 292 292 289 286 284 285 283 282
301 300 296 299 299 299 298 296 296 296 301 305 308 310 309 307 310 311 309 309 306 302 300 298 297 297 298 298 297 296 296 295 294 293 293 291 290 287 287 287 285 284 284 282

GFSNW_925_thetae_042.txt.gz
Theta_e
299 297 298 299 301 302 303 309 314 313 313 315 313 318 318 317 320 321 323 323 321 317 317 317 316 317 316 318 320 320 320 321 320 322 320 320 318 320 319 316 318 318 315 317
298 298 297 298 302 301 304 310 313 313 314 316 312 315 318 317 319 322 322 322 321 319 317 319 319 320 322 321 318 319 320 320 321 319 319 321 320 318 320 321 316 318 316 317
298 297 296 297 301 303 304 310 314 316 315 312 311 313 317 319 317 318 320 323 322 320 319 319 320 323 322 321 319 317 318 318 319 318 317 318 321 321 321 317 316 317 316 318
297 297 296 297 300 304 304 310 312 312 316 316 312 312 315 318 318 320 321 322 322 323 319 318 322 323 321 321 315 319 317 319 317 316 318 320 320 320 320 318 317 316 316 316
297 298 297 299 300 304 304 310 313 313 315 315 314 313 314 315 315 317 319 322 322 320 319 317 320 322 320 319 320 318 318 317 318 319 318 317 318 317 316 317 317 317 316 316
297 297 298 299 301 304 303 306 308 314 314 316 316 316 314 314 313 317 317 320 321 320 319 319 317 319 319 319 318 319 319 319 315 319 313 314 314 314 315 316 317 317 315 313
295 296 298 299 300 302 305 306 308 315 316 318 318 316 314 314 315 314 320 319 321 320 318 317 316 316 321 322 321 319 318 318 311 313 310 313 316 313 314 312 311 310 310 311
295 296 298 299 298 299 303 306 308 314 312 317 320 318 316 314 315 320 317 321 319 319 320 319 319 316 316 319 317 319 320 314 315 312 313 314 315 312 311 313 314 312 311 312
295 297 298 298 298 299 302 303 307 310 316 316 317 319 316 315 318 318 321 322 319 322 319 314 319 319 319 320 317 315 315 314 314 312 312 311 313 312 312 312 314 313 312 313
295 297 298 298 298 298 301 303 304 306 316 317 317 318 317 315 318 320 324 322 323 318 310 315 314 317 318 318 316 312 311 311 310 305 308 309 311 312 312 311 310 312 312 312
297 297 297 298 299 299 302 303 304 305 311 315 317 315 313 315 319 320 320 321 319 317 316 316 313 309 315 316 317 315 314 313 308 311 309 313 313 313 313 311 312 311 312 312
297 298 298 297 299 300 301 303 304 306 307 314 311 312 314 317 317 319 318 320 320 321 320 314 312 314 307 313 318 317 316 313 313 314 313 313 312 313 311 312 313 313 313 312
298 299 298 299 299 301 303 303 303 305 308 310 314 318 321 321 320 321 320 317 321 323 316 316 314 314 309 312 312 316 316 317 317 315 316 316 315 313 312 309 306 305 306 305
301 300 300 302 302 302 302 303 305 305 311 312 317 320 319 321 320 320 320 318 320 321 317 311 309 313 313 308 314 314 314 314 314 316 315 314 311 309 305 304 302 302 301 300
300 300 301 301 301 301 301 301 306 309 312 312 316 317 320 322 321 319 319 319 320 316 311 307 313 314 314 309 310 311 313 313 312 312 314 311 309 306 305 303 302 300 299 298
300 301 301 301 301 301 302 305 304 307 310 312 314 314 318 320 322 321 321 320 319 317 315 312 314 315 310 307 306 314 313 313 313 313 309 306 303 302 302 301 299 298 297 296
300 301 301 301 301 302 306 307 308 305 308 312 312 314 317 318 318 316 318 316 315 318 315 309 312 314 310 304 311 314 311 309 308 305 305 304 304 301 299 298 296 296 295 295
300 300 301 302 303 303 307 309 311 310 310 313 311 315 315 316 314 317 315 315 311 312 311 307 307 310 300 310 312 310 308 307 307 305 304 302 299 297 296 296 296 295 294 293
301 301 302 304 306 308 308 307 310 309 311 311 306 314 317 312 310 307 309 307 311 311 308 307 309 303 310 311 310 308 307 306 302 301 300 299 298 297 296 295 294 293 292 291
302 303 306 308 309 308 307 310 310 309 308 306 308 309 313 312 305 307 304 305 308 313 309 309 307 307 304 304 305 304 304 302 300 300 299 298 297 297 297 295 294 293 291 289
305 310 308 310 308 309 309 306 306 308 306 303 307 308 312 308 308 308 302 308 305 312 311 310 310 309 306 303 303 302 302 302 299 299 298 298 298 297 295 294 292 290 288 288
311 311 311 310 308 304 306 305 304 307 309 304 308 308 309 306 308 308 306 307 304 312 306 310 311 303 302 305 305 304 302 301 299 299 299 298 297 295 293 291 289 287 287 287
310 306 302 307 302 306 303 305 308 307 303 303 303 306 304 304 305 305 307 305 308 299 310 305 303 303 302 303 302 301 300 300 299 298 297 295 294 292 290 288 286 286 285 284
302 302 304 304 304 302 302 304 303 299 299 301 301 303 306 300 306 303 310 306 306 307 305 304 302 302 301 301 300 298 296 294 294 294 292 291 290 290 289 286 285 284 283 281
299 300 302 301 299 298 298 297 298 297 298 299 302 302 303 304 306 303 305 308 309 305 302 303 300 299 299 298 296 295 293 292 292 291 290 289 288 287 286 285 284 283 282 280
295 297 301 300 301 300 298 298 299 297 296 297 297 303 306 306 305 307 308 304 304 305 301 299 299 298 296 295 294 294 293 292 291 290 289 288 287 286 284 283 282 282 282 280
296 297 296 297 298 298 297 296 296 295 299 304 301 305 306 302 306 305 303 302 301 299 297 297 297 295 295 295 293 292 292 291 291 290 289 287 285 284 283 283 281 281 281 280

GFSNW_925_thetae_045.txt.gz
Theta_e
299 301 301 299 300 302 303 303 308 310 311 316 314 312 316 316 318 319 321 322 323 321 316 315 315 315 315 312 316 316 318 316 317 319 319 319 318 318 316 316 317 316 314 316
300 301 301 299 299 302 304 304 308 311 311 317 315 313 313 316 317 318 319 322 321 319 316 316 315 315 317 320 316 318 318 317 318 318 317 318 320 318 319 317 313 317 315 316
300 301 300 297 298 301 304 306 309 312 312 312 313 314 315 317 316 316 317 320 322 321 319 317 317 320 320 319 318 317 316 317 317 318 317 318 321 319 317 317 315 317 315 316
301 300 299 298 297 299 304 305 308 311 316 314 314 312 313 316 318 316 316 316 320 322 322 318 320 321 321 319 315 318 317 318 316 315 315 317 318 319 318 317 315 316 316 315
301 300 299 297 298 298 303 305 311 310 312 313 313 313 312 314 316 317 317 317 320 317 321 319 319 320 319 320 318 318 315 316 316 318 316 315 318 317 316 316 316 315 315 315
300 300 298 297 298 298 303 302 306 310 312 312 313 312 312 313 314 315 315 317 320 320 320 317 315 317 317 317 317 316 316 316 313 315 313 313 314 313 315 315 315 315 315 312
300 299 298 297 298 298 302 303 307 312 311 313 312 312 312 312 313 313 314 313 314 318 316 316 315 316 318 318 318 316 315 314 309 312 310 314 314 313 313 313 311 309 311 310
299 298 298 298 298 299 298 303 306 311 308 312 314 312 312 312 312 313 312 314 312 315 319 318 319 314 318 316 316 319 316 311 312 313 313 313 315 311 311 312 313 311 310 310
298 298 298 297 298 299 298 303 304 308 312 314 314 314 313 313 313 312 312 313 316 318 317 312 319 322 320 319 317 314 311 311 314 309 313 314 314 312 310 310 312 311 311 311
298 297 296 297 298 299 299 301 305 307 309 312 314 316 315 313 312 313 314 318 321 317 312 313 315 316 318 318 317 312 311 310 314 305 309 311 309 311 310 311 310 310 311 310
295 295 297 299 299 299 299 300 303 305 307 309 312 312 314 314 313 314 316 320 319 312 316 316 314 311 315 314 315 313 316 314 308 306 305 315 310 311 310 309 310 310 309 310
296 297 298 298 298 298 298 301 302 304 305 309 306 307 307 309 312 313 315 318 319 318 318 314 313 312 306 313 316 315 315 314 314 313 312 310 312 311 310 309 311 311 311 308
297 298 298 298 299 298 299 302 304 304 306 306 307 311 314 313 312 316 317 315 318 319 316 314 313 314 309 312 311 315 315 313 313 314 315 315 313 309 308 309 309 309 308 303
298 298 297 296 298 298 299 301 304 304 307 306 310 316 316 319 319 319 317 317 318 316 315 312 310 310 312 307 313 313 313 314 314 314 314 313 310 305 304 303 302 301 300 301
296 296 296 296 297 298 300 301 302 304 305 310 311 312 316 319 320 319 318 318 318 314 313 306 311 312 314 308 309 310 312 313 313 312 313 312 310 304 303 302 301 299 299 297
297 298 297 297 298 299 301 302 301 303 307 307 309 311 316 318 319 317 317 318 317 316 314 310 315 315 313 310 310 313 313 311 310 312 311 306 303 301 300 300 298 297 296 295
299 299 298 299 301 300 303 303 303 301 304 310 308 310 313 317 317 314 317 314 314 317 314 308 312 314 311 304 312 313 310 308 306 304 304 303 302 300 298 297 296 295 294 294
300 300 300 300 299 300 301 303 308 303 306 309 309 310 312 315 315 314 313 313 313 312 311 306 308 309 300 311 311 309 306 305 305 303 303 302 298 296 296 295 295 294 293 292
300 301 301 301 301 302 303 306 306 306 308 309 305 312 315 312 311 308 309 311 312 310 308 309 311 306 314 311 309 308 306 307 301 299 298 298 297 296 295 294 293 292 291 290
300 302 303 303 303 304 304 305 307 307 307 308 307 308 314 312 306 306 308 305 309 314 311 309 308 309 304 303 305 303 302 300 299 298 297 296 296 295 294 294 293 292 291 290
302 303 304 307 307 306 305 306 306 305 306 304 307 308 313 308 311 308 303 308 306 315 313 313 310 312 306 302 302 301 300 300 299 299 298 298 296 295 295 294 291 289 289 288
302 308 307 307 307 305 304 304 303 304 308 304 307 307 309 304 306 306 305 308 305 313 307 311 313 305 302 302 302 301 301 300 300 299 298 297 296 295 293 291 289 288 287 286
307 304 302 306 300 307 308 308 307 307 302 303 302 305 302 301 302 300 301 300 302 303 310 312 304 303 304 304 302 301 300 299 299 298 297 295 293 291 290 288 287 286 285 284
301 303 302 303 302 302 301 303 303 300 299 300 301 303 304 300 303 301 305 305 305 305 303 302 302 302 301 301 300 299 298 296 296 294 292 291 289 287 287 287 286 284 283 282
299 300 302 301 299 298 298 297 298 297 298 299 302 301 303 303 306 303 305 308 309 301 299 301 300 299 299 298 296 295 293 293 292 291 290 288 287 286 285 285 284 282 281 281
296 296 300 298 300 299 298 297 299 297 297 297 299 300 304 305 305 307 306 307 306 304 300 298 298 297 296 295 294 293 293 291 291 290 289 288 287 286 284 283 282 281 280 280
296 297 296 297 297 298 297 296 296 295 299 303 301 306 305 303 304 304 302 300 299 298 298 297 295 295 294 293 292 292 291 290 289 288 288 287 285 284 282 282 281 280 280 280

GFSNW_925_thetae_048.txt.gz
Theta_e
302 301 300 302 303 302 302 304 304 306 308 313 314 315 313 314 318 317 318 321 322 322 315 315 314 315 314 311 313 314 315 313 313 316 317 317 315 317 315 317 317 315 314 316
302 301 301 301 303 301 302 304 304 309 309 311 312 313 314 313 317 316 318 320 320 320 317 316 315 314 313 313 313 315 316 314 314 314 315 317 319 317 316 314 312 316 314 316
302 301 300 301 302 301 302 304 304 310 309 308 310 313 315 312 314 315 316 318 320 321 319 315 315 315 317 318 314 316 315 315 314 315 314 315 319 317 317 316 315 316 314 315
302 301 300 301 301 302 302 304 303 308 310 309 310 311 313 313 313 315 315 316 319 320 320 318 317 319 320 318 317 316 315 316 315 314 314 316 317 318 315 316 315 317 317 314
302 300 300 301 301 301 302 304 305 308 310 307 309 312 312 313 312 315 315 316 316 318 321 319 318 320 319 318 315 316 313 316 313 317 315 315 318 316 316 315 315 314 314 313
302 301 300 301 301 300 302 302 303 307 310 309 308 309 311 312 312 312 315 314 315 317 317 316 316 316 316 316 317 315 314 314 312 316 312 314 313 314 314 314 313 314 315 313
301 301 301 301 299 300 301 301 303 307 308 311 310 308 311 311 312 313 313 314 314 314 315 315 316 315 316 315 318 314 313 312 309 311 310 313 314 312 312 313 312 310 310 310
301 300 301 300 299 300 300 302 303 308 306 310 311 310 309 310 310 312 312 313 313 311 315 318 320 315 318 316 315 316 313 310 311 313 313 313 314 311 311 311 310 309 308 309
301 301 300 299 300 300 299 302 303 305 310 309 310 311 310 310 311 310 311 311 310 315 315 314 320 321 320 319 317 312 311 309 312 307 312 313 312 312 308 309 311 309 309 310
301 301 300 299 300 300 298 299 300 304 308 311 310 312 311 309 309 310 309 312 317 313 306 310 317 319 317 317 318 315 312 309 310 303 309 312 311 310 308 312 311 308 309 309
300 300 299 299 299 300 298 298 299 302 306 308 310 308 310 310 310 309 309 311 313 311 314 316 315 309 314 315 315 316 318 314 309 306 307 319 308 309 311 309 309 308 308 307
300 300 299 299 299 299 298 298 297 299 305 308 305 305 305 307 310 310 310 312 314 314 317 311 307 309 303 313 317 312 317 315 315 314 315 311 308 309 309 307 308 308 308 306
299 299 298 297 296 297 298 298 298 298 306 305 307 306 310 310 308 311 312 312 315 315 312 311 312 313 309 313 313 315 312 310 313 313 313 312 313 310 309 310 309 308 306 303
297 296 295 295 296 297 298 298 299 301 304 305 305 309 309 314 314 311 312 312 316 313 312 310 309 312 311 310 313 314 312 312 312 312 313 312 310 306 305 304 303 302 301 300
295 297 298 299 299 299 299 299 301 303 305 307 307 304 308 310 317 315 314 315 314 312 311 305 312 312 312 308 311 308 311 313 313 315 311 311 310 304 302 303 301 300 299 297
297 298 297 298 298 298 300 301 300 302 303 305 305 307 310 315 317 316 315 315 313 312 311 309 313 313 314 314 314 313 311 309 310 313 310 305 303 300 300 299 298 298 297 296
297 296 297 296 297 299 300 302 301 300 302 306 305 304 308 316 316 312 313 312 312 313 311 308 314 315 312 305 313 313 311 309 307 304 304 303 302 301 297 296 296 295 294 294
297 297 297 296 297 298 300 302 304 301 301 302 307 309 310 314 316 316 312 310 310 309 309 304 308 309 303 312 311 309 306 305 305 303 302 303 298 297 295 294 294 294 293 292
298 298 298 300 299 300 300 302 305 302 302 306 304 310 314 311 310 310 309 308 308 309 306 308 312 307 316 313 310 307 306 307 302 298 298 298 297 295 295 294 294 293 292 291
298 299 300 300 301 302 305 305 305 305 306 306 308 307 311 311 303 307 308 306 310 314 310 309 309 311 305 303 304 304 301 300 299 298 297 296 296 295 294 294 293 292 292 291
301 302 299 303 302 304 302 300 305 304 305 304 305 306 310 308 309 307 303 307 306 314 310 314 312 314 306 303 302 301 300 299 299 298 297 297 295 294 293 292 292 291 291 290
302 303 305 304 306 304 305 305 302 305 308 304 306 307 309 305 307 307 303 307 306 315 307 311 314 307 302 302 302 301 300 299 298 298 297 296 295 294 293 291 290 289 288 286
301 303 300 305 300 307 308 308 307 307 302 302 303 305 303 302 304 302 303 308 309 304 311 313 306 303 303 302 301 299 299 298 298 297 296 295 293 291 290 289 287 287 286 284
300 302 302 302 302 301 301 303 303 299 298 300 301 302 304 300 304 301 309 305 305 307 307 303 302 302 301 300 299 299 298 297 296 294 292 291 290 289 288 287 286 285 284 283
298 299 302 301 299 298 298 297 299 297 297 299 302 302 303 303 304 303 305 307 307 304 304 302 299 299 299 298 297 295 294 293 292 291 289 288 288 287 286 285 284 283 283 282
296 296 298 297 298 297 297 296 298 297 296 297 299 302 305 305 304 306 305 306 303 302 299 298 297 296 295 295 294 293 292 291 290 289 288 287 286 286 284 282 282 282 282 280
295 296 292 294 296 294 294 294 294 294 299 302 302 301 299 300 302 300 298 298 298 296 297 295 295 294 293 292 292 291 290 290 289 289 287 286 284 284 282 281 280 280 280 280

GFSNW_925_thetae_051.txt.gz
Theta_e
303 303 303 302 302 301 303 302 303 302 303 309 310 312 313 313 315 316 318 320 322 323 316 315 316 316 316 311 313 316 317 319 319 320 316 316 318 321 320 325 321 319 320 320
303 303 303 302 302 301 303 302 304 303 305 309 310 311 312 313 315 316 318 320 320 320 320 316 315 315 313 312 314 318 317 316 318 317 317 318 320 318 317 316 317 320 326 322
304 304 303 302 302 301 302 303 304 306 305 307 307 311 312 313 312 314 316 318 319 320 320 317 315 316 315 314 314 315 316 316 319 319 318 318 321 319 318 320 323 322 320 320
304 304 303 302 301 302 301 303 304 307 307 306 306 309 310 312 313 313 315 317 317 320 319 319 316 318 319 317 317 316 318 319 316 314 313 316 319 319 319 319 320 323 321 317
304 304 303 302 301 302 301 303 304 305 308 305 306 308 311 311 312 312 314 317 317 318 320 320 319 319 319 320 316 318 315 319 316 317 315 315 318 317 317 318 316 316 316 316
302 304 303 301 302 302 302 302 302 304 308 307 306 308 309 311 312 311 312 314 316 317 318 316 317 316 317 318 319 317 316 317 317 319 314 315 319 317 318 317 316 319 319 319
303 304 302 301 301 302 301 302 302 306 307 308 306 305 308 311 312 312 312 313 313 313 314 316 316 315 315 316 317 317 316 316 315 318 313 322 318 313 314 317 315 314 313 313
303 303 302 301 302 300 301 301 302 306 305 308 308 307 306 310 311 311 311 313 313 311 313 317 318 318 318 317 316 316 314 314 316 321 320 317 315 313 315 316 317 313 314 311
304 302 302 302 302 301 301 301 301 305 306 307 308 309 307 309 311 311 311 311 311 313 313 313 317 323 321 321 318 312 310 312 321 313 320 323 319 313 310 311 317 312 311 312
303 302 301 301 302 301 300 301 301 303 307 308 308 311 309 308 310 310 310 311 312 312 310 315 317 319 320 323 320 319 315 314 318 314 321 318 313 311 310 319 320 312 311 312
302 302 301 301 301 301 300 299 302 302 305 306 306 307 309 309 309 310 309 312 312 312 313 315 316 316 319 320 317 318 320 319 318 314 319 322 311 309 316 318 310 311 311 312
302 301 300 301 301 301 299 298 300 301 301 305 305 305 306 306 308 309 310 310 312 313 316 313 313 315 312 318 322 313 321 319 321 320 322 317 310 315 311 310 312 310 312 309
301 302 301 300 300 300 298 298 298 299 297 302 305 306 308 308 307 309 312 311 313 313 313 313 315 316 313 316 317 317 314 313 318 318 317 314 312 312 311 310 311 309 310 307
301 300 300 300 300 299 298 298 298 298 299 303 306 305 306 307 310 308 310 312 314 314 314 312 312 316 313 315 317 318 316 315 315 315 314 314 314 312 311 309 308 306 306 305
300 299 298 298 298 299 297 297 297 297 301 303 304 306 306 305 311 309 310 312 314 314 314 310 317 312 313 309 312 314 313 315 317 319 316 317 316 313 307 307 307 305 303 301
298 298 298 298 298 297 297 299 298 298 298 300 303 304 306 311 312 312 312 312 314 315 316 313 314 313 315 316 318 314 313 313 315 315 312 306 304 303 304 304 303 301 301 299
295 296 296 297 298 297 299 300 300 298 297 303 306 307 307 309 314 313 315 314 315 315 314 312 315 316 315 310 317 314 312 312 310 306 307 307 304 306 301 300 299 297 296 296
297 297 298 296 297 298 299 301 301 298 300 302 305 307 309 312 314 316 313 314 313 312 314 308 315 310 309 317 315 313 310 307 306 306 303 305 300 299 297 296 296 296 295 294
297 297 298 298 298 298 299 303 301 301 301 302 303 309 313 311 310 309 309 310 314 310 310 312 314 310 317 315 312 311 308 309 307 301 300 300 300 298 297 296 296 295 294 293
296 297 299 299 298 301 302 302 303 302 303 304 303 307 312 311 306 306 310 305 310 315 312 309 312 316 308 305 305 306 304 302 301 301 300 298 298 298 297 296 295 294 293 292
298 299 299 299 302 301 300 302 303 303 304 304 303 303 307 307 311 308 303 308 307 315 314 316 315 316 308 303 303 302 301 300 300 300 299 299 298 296 295 294 294 293 292 291
301 302 302 302 302 301 302 304 302 304 306 304 306 306 307 305 307 307 304 308 306 315 308 313 315 307 303 303 302 301 300 300 299 298 297 296 295 295 294 294 293 291 288 286
301 302 301 304 301 305 307 306 306 306 302 302 303 305 303 303 303 302 305 309 311 303 310 310 304 303 303 302 301 300 299 298 297 296 295 295 293 292 292 290 288 287 286 285
297 301 301 302 301 301 301 302 303 299 299 300 301 302 304 301 303 303 309 305 305 310 308 305 303 299 299 300 299 299 297 296 295 293 292 291 290 289 288 287 287 286 285 283
298 298 301 300 299 297 297 297 298 296 296 299 301 302 304 303 304 304 306 308 306 304 304 301 298 297 297 296 295 294 293 292 292 291 290 289 288 287 287 286 285 284 283 282
295 292 293 294 295 293 293 293 295 295 295 297 300 304 306 305 304 303 301 304 299 298 297 297 296 295 295 294 293 292 291 290 289 289 288 287 286 285 284 283 283 282 282 281
294 292 289 289 290 290 290 290 292 293 298 300 299 296 296 297 297 295 293 292 291 291 292 295 294 294 293 292 291 290 290 289 288 287 286 285 283 283 283 283 281 280 280 280

GFSNW_925_thetae_054.txt.gz
Theta_e
303 304 304 304 303 302 302 302 305 304 304 306 307 312 313 310 313 318 319 321 322 324 318 317 316 318 317 317 318 319 319 320 321 321 320 321 323 323 323 325 325 324 326 323
301 304 304 304 303 303 302 303 304 304 304 307 306 309 310 311 313 317 318 320 321 322 323 319 318 318 318 316 318 319 320 320 321 320 320 321 321 321 321 322 322 322 329 323
300 302 303 304 303 303 302 302 305 305 306 306 306 308 311 310 311 313 317 318 320 321 321 320 320 317 317 317 318 317 319 319 320 321 319 319 321 321 321 322 324 321 322 320
301 301 303 303 303 303 301 303 307 305 306 308 307 308 308 310 311 313 315 318 319 321 321 319 320 318 320 317 317 317 320 320 320 318 317 317 317 318 319 320 321 321 321 320
300 301 302 302 303 303 301 302 306 308 307 307 307 309 310 310 311 311 315 316 318 319 320 319 322 320 320 321 321 319 320 320 321 320 319 318 318 318 318 319 319 321 321 321
301 301 301 301 303 302 302 302 304 307 307 307 307 309 308 309 311 311 311 315 316 318 318 317 317 317 318 318 321 322 322 321 321 321 320 320 322 321 320 320 321 322 321 321
301 301 301 301 303 302 301 302 304 307 308 308 307 306 306 307 309 312 311 312 315 315 315 316 317 317 317 319 320 321 323 323 323 322 320 330 320 319 320 320 321 321 321 320
301 302 302 302 302 301 302 301 304 306 309 307 307 306 306 307 308 311 310 312 312 315 313 313 313 317 317 317 319 322 322 323 324 331 324 321 318 317 319 321 321 320 320 320
301 302 301 303 302 301 302 303 303 306 308 307 306 308 306 308 309 312 311 312 314 315 317 318 317 312 313 318 322 317 318 320 326 321 325 332 321 320 319 318 323 319 318 318
302 302 301 303 302 302 302 302 302 306 306 305 306 309 308 307 309 313 312 314 315 315 319 322 319 316 317 318 322 323 321 321 327 326 328 324 321 318 316 321 323 320 319 318
302 301 303 302 301 301 301 303 304 306 306 306 306 307 309 308 310 313 312 314 315 316 319 319 320 323 320 321 319 323 323 325 327 325 331 330 317 315 320 322 321 320 319 319
302 303 303 302 301 301 301 301 302 303 306 306 304 305 306 307 309 311 313 311 310 315 315 318 316 325 322 320 322 319 324 322 325 323 324 322 318 320 318 320 320 318 319 318
303 303 302 301 302 301 300 300 301 302 304 304 304 304 305 306 307 310 312 315 311 312 313 317 319 324 321 327 322 319 318 316 322 321 321 320 320 318 317 316 317 316 317 316
302 302 301 302 302 300 299 300 300 302 303 304 303 304 303 303 305 309 311 312 313 315 316 319 319 322 316 322 319 321 319 318 320 322 321 319 318 319 318 316 314 314 315 314
302 302 302 302 300 298 299 299 300 301 302 303 304 304 304 303 306 308 311 313 316 320 319 315 318 320 320 318 319 323 318 320 323 324 321 322 322 320 319 317 315 314 313 312
301 301 301 299 298 298 298 300 298 300 300 302 305 306 306 303 303 309 313 314 314 316 318 320 318 317 318 324 322 317 318 317 318 320 317 317 313 311 316 316 314 312 312 311
300 300 299 298 298 299 300 300 300 299 298 301 305 308 306 305 306 314 314 314 314 315 317 318 319 321 319 322 323 319 318 317 317 315 312 314 310 314 309 310 310 308 309 307
299 299 298 298 297 298 299 301 299 298 300 301 304 309 310 309 312 315 315 316 316 317 317 317 319 318 320 322 318 318 319 315 315 313 311 311 308 306 306 306 304 305 304 303
297 298 298 297 298 299 301 300 298 298 301 305 303 310 313 312 312 311 309 314 315 315 319 318 318 319 322 317 317 319 319 317 318 312 309 307 308 307 304 304 303 303 301 300
297 297 298 300 299 299 300 301 302 301 302 305 306 304 308 311 309 310 314 310 311 314 316 317 320 321 317 313 311 311 312 312 309 309 309 307 306 305 304 304 303 302 300 299
299 301 301 300 299 303 304 304 304 305 305 306 305 304 303 303 313 311 309 314 311 317 314 321 321 320 314 307 309 309 308 308 308 308 307 307 307 305 303 301 299 297 296 296
300 301 301 302 303 303 303 305 303 306 307 308 309 308 305 309 311 313 309 314 310 319 308 314 317 305 303 304 305 305 305 305 305 304 304 303 302 301 300 299 297 296 293 289
300 302 303 304 303 306 304 306 306 308 306 306 307 308 309 308 310 307 308 314 314 305 311 307 306 302 299 300 301 301 301 300 299 298 297 297 298 297 297 293 290 288 288 287
299 302 303 304 303 302 303 303 304 301 300 303 307 305 306 303 309 305 313 307 308 314 311 307 301 299 297 296 295 296 295 293 294 293 292 291 291 290 288 288 288 287 286 286
296 296 299 299 297 294 296 295 300 298 297 300 303 302 304 304 307 307 309 311 307 304 302 300 297 297 296 296 295 294 292 291 290 290 289 289 288 288 287 286 286 285 285 284
292 289 291 291 293 292 291 292 294 294 295 296 299 304 307 305 303 302 300 302 299 297 294 293 295 296 294 293 292 291 290 290 290 289 288 288 287 286 285 284 284 283 283 283
292 291 288 288 289 288 289 289 291 291 299 301 299 297 297 299 298 295 292 292 291 290 291 289 293 293 293 292 291 290 289 289 288 287 287 287 286 286 285 284 283 282 281 280

GFSNW_925_thetae_057.txt.gz
Theta_e
305 305 304 304 304 303 303 304 306 303 305 306 308 310 311 311 313 312 312 316 319 314 319 320 319 319 319 318 319 320 320 321 324 323 320 320 323 323 324 327 327 327 326 328
305 305 305 304 304 303 303 304 305 304 305 308 310 308 309 309 312 312 312 317 318 320 321 322 319 319 319 318 320 320 320 320 323 322 322 322 322 324 324 324 325 329 333 326
301 305 305 304 304 304 303 303 305 306 307 308 309 308 308 308 310 312 312 316 316 318 321 322 322 320 319 320 319 320 321 320 321 324 322 321 321 322 322 323 328 325 323 322
300 300 305 304 304 304 303 302 307 306 307 308 309 308 307 307 309 312 312 313 316 318 320 321 323 321 321 318 317 318 321 321 320 320 320 319 319 320 321 321 321 323 322 322
301 300 299 302 304 304 303 301 307 308 309 308 309 308 308 307 308 309 312 315 316 316 317 320 322 321 320 319 319 320 321 323 321 320 319 319 318 318 318 319 319 319 320 320
301 301 301 300 300 305 303 300 304 308 307 308 309 310 308 307 308 309 310 313 315 317 316 320 320 319 319 318 320 321 321 323 322 324 320 320 324 319 319 319 319 319 320 320
301 301 301 301 300 302 300 301 305 309 309 310 310 308 307 307 307 309 310 311 314 315 316 317 317 318 317 319 319 319 324 323 324 328 324 330 321 320 320 320 319 319 319 320
302 301 301 300 302 301 301 302 306 308 311 309 307 307 308 307 308 310 310 311 312 316 316 315 315 315 315 315 317 318 321 325 327 330 326 321 319 320 321 320 320 320 320 320
303 302 301 300 301 301 300 304 304 308 310 308 307 308 307 308 309 310 311 312 312 315 315 314 313 310 311 311 316 317 319 322 329 327 327 328 321 320 320 320 325 320 320 320
302 302 301 301 301 300 301 304 304 307 309 306 307 309 308 308 309 310 311 312 315 316 318 319 319 313 310 312 313 324 324 325 331 330 328 323 320 320 320 324 325 321 320 319
302 301 301 301 301 301 302 304 304 306 307 306 306 308 310 308 310 312 310 313 315 318 319 319 315 319 315 315 316 322 325 325 330 328 331 331 321 320 322 323 323 321 321 320
302 301 301 301 301 301 302 305 304 304 307 307 307 308 308 308 308 309 312 313 314 314 316 318 318 322 325 317 322 316 324 324 326 324 325 323 321 323 321 322 322 323 322 321
301 301 302 301 302 300 303 304 304 304 306 306 308 308 308 305 308 309 314 315 313 315 315 314 316 319 317 327 322 318 320 320 324 323 323 322 322 322 321 321 322 322 322 321
302 302 301 302 300 301 302 304 304 305 306 308 307 305 306 304 305 305 310 313 313 313 314 317 319 321 313 320 317 317 319 319 320 320 319 320 321 321 321 321 320 320 319 320
300 301 301 301 301 301 301 302 303 304 305 307 306 305 305 304 302 302 306 313 315 313 316 321 319 315 313 314 317 319 314 315 321 321 317 323 321 322 321 322 322 319 318 318
302 301 301 301 300 300 300 300 300 302 302 304 306 306 306 304 305 304 308 310 315 315 315 318 314 312 315 325 322 315 312 313 316 319 319 320 321 319 318 320 321 320 317 317
302 301 300 300 300 301 302 303 302 301 301 303 304 304 307 306 306 306 308 310 314 316 317 317 317 317 315 324 325 314 315 316 316 318 318 318 317 318 316 316 319 315 316 315
299 299 299 300 300 299 302 301 300 300 302 303 305 307 308 306 307 307 311 314 314 314 315 317 319 318 320 321 316 315 315 315 317 319 318 317 314 312 313 312 313 314 314 314
299 298 299 299 300 302 302 300 299 302 303 303 305 308 311 307 308 310 312 314 315 314 318 317 317 319 321 317 316 316 317 318 318 319 318 316 314 314 312 310 309 311 311 311
298 299 300 302 301 300 299 298 300 302 303 304 306 306 307 302 307 312 312 315 315 316 318 317 319 319 314 306 311 315 315 314 316 316 317 315 314 313 311 309 309 309 308 307
300 302 303 301 300 301 304 305 306 306 307 307 306 307 305 303 310 311 311 314 314 316 315 318 320 318 304 301 305 309 311 311 312 312 311 311 312 314 310 308 307 306 304 303
301 302 301 300 302 304 305 306 305 305 306 308 308 307 308 308 308 312 311 313 312 318 309 313 308 305 300 300 300 303 304 307 308 307 308 307 307 307 307 305 303 301 296 291
303 302 304 304 305 305 304 305 305 309 308 307 309 309 309 308 309 308 313 318 315 308 310 309 305 300 298 298 297 298 296 297 298 298 298 296 295 295 294 292 291 290 290 288
301 302 304 305 306 301 300 300 302 301 300 306 309 308 309 306 309 306 315 307 309 316 314 306 300 298 297 297 295 294 293 292 292 291 290 290 289 289 288 288 287 287 286 286
296 296 296 298 296 295 294 296 299 297 296 299 305 303 304 305 309 306 309 313 307 303 302 298 296 297 296 295 294 293 292 291 291 290 290 289 288 288 288 287 286 286 285 284
292 289 290 290 294 293 292 293 295 295 294 296 300 305 307 305 304 303 302 303 298 296 295 293 294 295 294 293 292 292 291 291 290 289 288 287 286 286 285 285 284 284 284 283
293 291 288 287 288 288 289 290 292 291 297 301 300 299 299 301 298 295 293 293 292 291 290 289 290 290 291 291 290 290 290 289 288 287 287 286 286 285 284 284 283 282 281 281

GFSNW_925_thetae_060.txt.gz
Theta_e
305 305 305 305 304 304 304 304 306 304 305 307 308 308 310 308 308 309 312 313 312 314 316 321 324 320 321 320 319 320 320 322 323 321 320 320 321 323 323 330 327 330 332 328
304 305 305 305 305 304 304 304 305 304 306 307 308 308 308 308 309 309 310 312 312 314 317 321 321 324 321 321 320 322 321 322 324 323 323 322 321 322 324 325 326 329 335 330
304 302 300 306 305 305 304 303 305 306 307 308 308 309 310 310 308 309 309 313 313 314 319 321 323 322 321 322 319 319 321 322 323 325 326 323 322 322 324 327 333 328 330 328
300 301 300 306 305 305 304 303 305 306 308 307 309 308 307 309 308 308 309 311 313 314 319 320 322 323 322 321 319 319 322 324 323 321 320 321 322 321 320 321 327 330 327 322
300 300 301 301 305 305 305 299 307 307 307 307 308 308 309 309 308 307 308 311 313 314 318 319 322 323 323 324 320 320 321 324 323 323 320 320 321 322 320 320 320 321 322 322
300 300 301 301 301 305 305 300 304 307 307 308 308 309 310 309 310 308 307 309 313 316 316 318 319 321 321 323 321 322 322 323 324 324 322 321 321 321 320 320 321 321 322 322
301 301 301 301 301 304 301 299 305 307 309 309 310 307 308 308 309 310 308 309 311 313 315 318 318 316 319 322 320 321 323 325 324 326 323 326 322 321 320 320 320 319 319 319
302 302 301 301 301 300 303 300 305 306 310 309 309 308 307 309 310 310 309 309 310 312 318 318 320 319 318 318 320 320 320 323 327 328 326 323 321 321 321 321 321 320 320 319
302 303 302 301 301 300 301 301 304 307 308 309 308 308 308 309 310 310 310 310 311 314 319 319 320 320 316 319 316 319 319 321 326 328 327 327 324 322 320 321 322 321 320 322
302 302 303 302 302 301 300 299 303 307 309 308 309 309 309 309 309 311 311 311 314 315 318 319 319 317 312 314 317 320 321 322 325 327 328 327 321 320 320 323 324 323 322 322
302 302 303 301 301 301 301 300 301 305 308 308 307 307 309 309 310 311 310 311 314 314 318 319 318 321 314 312 311 321 323 324 325 327 329 330 322 321 321 323 323 324 323 323
301 302 302 301 301 301 300 301 301 303 308 308 308 308 308 309 311 311 311 312 313 315 318 318 317 324 322 317 319 314 319 321 325 324 325 325 323 322 323 324 325 325 324 324
301 302 302 302 301 301 301 302 301 306 306 308 309 309 308 308 310 310 314 312 313 316 315 315 318 321 317 325 321 319 320 320 322 322 321 323 323 323 322 323 324 322 323 323
301 302 301 301 300 301 301 303 304 304 306 308 307 307 309 307 307 308 307 309 309 316 316 317 320 321 317 321 319 317 317 319 321 323 322 320 319 320 321 321 322 323 321 321
301 301 300 301 301 300 303 304 303 304 307 307 309 307 307 306 306 306 307 307 308 315 314 319 317 317 318 319 318 318 315 315 319 323 319 319 319 317 318 320 319 322 322 321
301 301 302 301 300 300 303 303 303 304 305 307 308 307 306 306 304 305 308 307 310 315 315 316 316 315 317 324 315 312 313 313 312 313 314 319 320 320 320 319 319 319 322 320
302 301 301 302 302 302 303 304 303 303 304 305 305 305 306 306 307 306 306 307 310 314 317 318 316 315 314 317 320 313 314 314 314 314 315 318 319 320 317 316 316 318 319 319
301 301 301 300 301 302 302 302 302 302 303 304 306 306 308 307 308 308 307 310 311 313 316 316 317 316 318 318 313 314 314 314 314 314 318 319 319 316 315 314 314 315 316 316
300 300 300 300 301 303 302 300 302 303 304 304 304 306 310 307 308 308 311 312 313 312 316 316 317 319 318 312 311 314 316 316 316 317 318 318 319 317 315 313 312 312 313 313
300 301 302 303 302 300 300 301 302 303 304 304 303 306 306 302 306 311 314 314 312 314 315 315 317 317 305 302 301 304 308 311 313 315 317 314 316 316 315 313 311 310 311 310
302 303 302 301 300 302 304 303 303 303 303 304 306 308 307 300 304 308 312 311 313 315 316 317 318 311 301 299 299 300 302 305 309 310 311 311 310 312 313 311 309 308 306 304
303 302 301 301 302 304 305 306 306 306 306 307 308 307 306 303 300 303 307 309 312 317 312 316 309 301 298 297 296 297 297 299 301 301 301 301 301 303 302 298 295 293 292 290
303 304 304 304 305 305 307 304 306 308 303 306 308 308 307 307 305 303 307 312 312 308 310 306 301 298 297 296 294 294 292 292 292 292 292 292 291 291 291 290 288 287 286 285
300 304 301 303 301 299 298 299 301 299 299 298 301 308 306 305 307 303 310 306 307 313 310 301 296 297 295 294 294 292 291 291 290 290 289 289 289 288 287 287 286 285 285 284
295 296 297 295 295 294 294 295 297 297 296 297 303 304 305 306 307 305 308 310 302 299 298 295 293 294 293 293 292 292 291 290 290 289 288 288 287 286 286 285 284 284 283 283
291 289 291 291 293 292 292 293 294 295 294 296 300 305 307 303 302 300 299 299 295 294 292 291 290 291 291 291 291 290 289 289 288 287 286 286 285 284 284 283 283 283 283 282
292 291 289 289 289 290 291 291 292 292 294 301 301 299 299 300 297 294 293 293 291 289 287 287 288 287 288 288 288 288 288 287 287 286 285 285 284 284 283 283 282 282 282 281

GFSNW_925_thetae_063.txt.gz
Theta_e
302 303 304 304 305 305 304 304 305 303 303 306 306 307 306 306 306 307 308 308 309 310 312 313 314 320 321 318 317 318 317 320 319 320 320 319 319 320 319 324 328 328 324 324
302 303 303 304 305 305 305 305 304 304 304 306 306 305 307 306 307 307 307 308 309 310 311 313 316 322 318 320 319 318 317 318 320 321 319 319 319 318 320 321 324 326 326 326
302 303 303 304 305 305 305 302 304 305 306 304 303 305 306 307 307 307 308 308 307 308 310 312 316 321 321 319 320 319 318 317 318 320 321 322 321 320 320 322 325 325 326 325
302 300 299 302 305 305 305 301 304 304 307 306 305 304 306 306 308 306 307 308 308 308 310 312 317 320 321 320 322 318 319 318 318 319 319 322 322 322 320 321 324 328 327 326
300 300 300 303 304 306 305 298 305 304 304 306 306 306 306 307 308 307 309 308 307 308 310 310 318 322 322 324 322 321 320 320 318 319 320 321 321 322 320 320 319 326 325 325
299 300 300 299 301 301 306 302 301 304 305 307 307 306 306 308 307 307 306 307 306 307 308 312 319 321 321 322 322 321 322 320 322 321 320 321 320 319 320 321 321 319 324 323
299 299 299 300 301 301 304 302 303 304 307 305 307 306 306 306 307 307 306 307 306 307 316 318 318 317 318 318 320 321 322 321 320 319 320 323 320 318 319 320 320 318 317 317
300 300 300 300 300 301 302 301 303 304 307 305 306 306 306 306 307 307 308 308 307 306 306 315 318 317 317 317 319 320 318 323 321 323 323 321 320 319 320 320 320 317 316 316
302 302 301 301 300 301 301 301 301 305 306 308 305 307 306 306 306 306 307 307 306 308 309 312 316 318 320 321 319 318 318 319 319 320 324 324 320 320 320 319 320 318 319 318
301 302 301 302 301 301 301 300 299 304 305 305 307 306 307 307 307 308 307 307 308 313 308 310 311 316 316 319 318 317 317 318 321 322 324 321 321 320 320 322 319 319 319 320
302 302 302 301 302 301 302 300 299 303 304 305 306 308 308 308 308 308 307 308 309 310 309 311 309 310 314 314 314 319 319 319 319 321 321 324 320 320 320 319 318 319 318 319
301 302 302 302 302 302 301 300 300 300 305 308 306 306 307 307 309 310 308 308 308 311 311 311 311 309 309 311 312 314 318 316 318 318 319 320 321 321 319 320 321 321 320 321
300 302 301 302 302 302 301 300 299 300 302 306 306 308 307 306 309 310 309 307 310 312 310 312 314 311 311 309 311 312 316 316 319 319 318 318 318 319 320 319 320 319 319 319
301 302 302 302 302 302 300 301 301 300 303 306 307 308 308 308 309 308 308 307 308 310 310 312 312 312 312 310 314 313 314 317 319 319 318 319 318 317 319 316 317 319 318 319
301 302 302 302 302 300 300 301 301 302 305 305 308 308 307 307 308 307 307 306 307 309 309 309 311 311 312 312 313 313 312 311 316 318 317 318 317 316 318 319 319 318 317 318
301 300 300 301 301 300 301 303 302 303 304 307 306 306 307 306 305 306 306 306 307 309 312 310 312 312 312 309 310 311 311 311 310 310 311 311 313 316 318 319 317 315 315 315
301 301 301 301 300 301 302 302 302 303 304 306 304 305 306 306 305 304 305 306 307 309 310 313 311 310 312 307 310 312 313 311 310 312 314 312 312 316 314 313 312 312 313 313
301 301 301 300 300 302 302 303 303 304 303 304 302 303 305 305 306 305 304 306 307 309 309 310 312 311 311 313 309 308 309 311 313 313 314 315 315 314 313 311 310 310 310 311
301 300 300 301 302 302 301 302 303 304 304 303 297 301 306 301 306 304 304 306 303 307 308 309 313 311 309 304 303 304 304 307 308 310 312 312 312 313 312 310 309 308 308 308
301 301 301 299 301 301 301 302 302 302 303 301 299 301 299 302 302 301 302 301 302 305 309 310 310 305 301 298 299 299 301 302 305 309 309 309 309 310 310 308 306 305 303 299
302 302 301 300 300 302 303 300 301 302 300 302 301 302 303 300 304 305 304 306 301 304 307 309 310 300 298 296 297 296 296 298 300 301 300 300 299 301 300 297 296 295 293 291
302 301 300 301 302 303 302 300 301 301 303 302 301 303 304 301 300 302 305 308 303 308 306 309 303 298 296 295 294 293 293 294 294 294 295 294 294 294 293 291 289 288 286 285
303 303 301 303 299 301 297 302 300 304 299 299 302 303 301 301 301 301 304 306 310 306 304 299 295 295 294 294 293 291 290 290 290 290 289 288 288 287 287 286 285 285 284 283
298 300 296 297 297 297 295 296 297 297 297 297 298 303 303 300 301 303 309 305 304 305 301 294 292 293 292 292 291 290 289 288 288 287 287 286 285 285 284 284 284 283 283 282
290 290 293 291 294 291 292 292 295 294 294 295 299 302 303 303 304 302 303 302 296 295 291 291 290 290 291 290 289 288 287 287 286 285 285 284 284 283 283 283 282 282 282 281
288 287 288 286 285 285 286 290 292 292 292 293 297 302 303 300 297 296 296 294 292 289 288 287 287 287 288 288 287 287 286 286 285 285 284 283 283 283 282 282 282 281 281 281
291 290 288 287 285 288 289 290 288 291 293 298 296 293 295 295 291 290 291 289 287 285 284 285 284 284 285 284 284 284 284 285 285 284 284 283 282 282 282 282 281 281 280 280

GFSNW_925_thetae_066.txt.gz
Theta_e
300 301 302 303 303 304 304 305 305 302 303 303 303 305 305 306 306 306 307 308 308 309 309 310 313 315 315 317 319 317 315 316 318 318 318 317 317 319 318 321 325 324 322 324
300 301 301 302 303 303 305 304 304 303 302 303 303 303 304 305 305 306 306 307 307 307 309 309 312 313 315 320 321 321 317 317 319 318 317 317 317 318 319 319 320 321 323 325
300 300 301 302 302 303 305 299 304 304 303 301 302 303 304 304 305 305 305 306 307 306 306 307 309 311 315 319 319 320 319 321 317 319 318 318 319 318 318 319 320 320 322 322
300 301 301 301 302 303 305 300 303 304 305 304 304 303 304 305 305 306 306 306 306 308 308 307 308 313 320 320 320 321 321 321 319 317 317 318 320 320 318 319 320 323 322 324
300 300 301 302 303 304 305 298 304 304 302 305 304 304 304 304 305 306 307 306 306 306 308 307 308 309 317 322 321 321 321 323 319 320 317 318 318 318 319 319 318 319 322 322
300 302 303 303 301 301 304 302 300 304 305 304 306 304 303 305 304 305 305 306 306 307 307 306 307 313 318 320 322 322 320 322 323 323 318 318 320 319 319 319 319 321 324 322
301 299 299 300 300 300 302 303 302 304 306 304 305 305 305 305 305 305 305 305 306 306 306 310 314 315 316 318 319 321 319 319 321 320 316 323 319 317 317 318 318 317 318 319
299 299 299 299 300 299 299 302 303 304 306 304 304 305 305 305 304 305 306 306 306 304 304 308 312 311 312 314 317 321 318 318 317 322 319 320 319 318 318 318 318 317 317 315
299 299 299 300 300 300 298 301 301 304 305 306 304 304 305 305 305 305 305 305 304 305 305 306 307 309 315 318 319 318 316 316 316 318 322 322 318 316 318 319 320 317 317 317
299 299 299 300 300 300 300 301 300 300 301 303 304 304 305 304 304 304 304 305 305 305 304 305 307 308 312 315 317 315 314 313 318 319 322 319 318 319 318 322 319 318 318 318
301 301 300 301 301 301 301 300 300 299 298 301 305 304 304 305 305 305 304 306 306 306 306 307 306 305 312 314 315 316 315 317 317 317 320 319 319 321 321 317 318 320 319 318
301 302 301 301 301 301 301 301 300 300 302 303 303 305 305 305 305 306 305 306 306 307 307 306 305 306 303 309 312 312 316 316 317 318 317 317 318 321 319 319 319 319 319 318
301 301 301 301 301 301 301 300 300 300 301 301 303 305 306 307 308 307 306 306 308 310 307 308 309 309 307 311 310 310 311 314 316 317 315 316 316 319 317 319 317 317 318 317
301 301 301 302 302 302 301 299 300 300 301 302 305 306 306 306 308 308 308 308 308 308 308 308 306 307 309 307 310 310 309 312 314 316 316 317 317 316 315 316 316 316 317 316
301 301 300 302 302 301 300 299 300 300 302 304 305 306 307 306 308 307 307 307 308 309 309 307 307 308 310 309 311 311 311 313 316 314 315 316 316 313 314 316 314 314 316 316
300 302 302 302 302 301 300 302 299 300 301 302 306 306 306 307 307 306 306 307 306 307 305 305 309 310 310 311 311 311 309 311 309 312 312 315 313 312 313 315 315 315 315 314
302 302 301 301 300 300 301 301 301 301 300 302 305 307 306 305 304 303 303 305 305 306 307 306 308 310 312 307 310 306 306 306 309 308 312 314 313 311 312 311 311 311 311 310
300 300 300 301 301 301 302 302 301 302 304 303 301 306 307 301 303 303 301 303 304 305 306 307 310 310 310 312 303 302 302 304 306 305 309 310 310 310 309 309 308 309 308 307
300 300 300 301 301 301 302 303 303 303 302 299 294 298 304 301 304 301 301 303 303 303 300 306 309 309 303 299 300 300 300 301 303 304 304 307 308 308 306 306 306 305 301 298
297 300 300 299 301 301 301 302 301 300 301 298 297 298 301 300 302 302 300 294 301 307 305 307 304 300 299 295 297 296 296 297 300 303 302 301 303 303 300 298 297 296 293 291
301 300 300 299 300 302 301 299 300 300 300 299 299 300 299 299 297 302 302 306 302 303 305 304 303 298 295 294 294 293 293 294 295 296 297 297 297 297 296 293 290 289 288 286
300 299 300 301 301 300 300 301 301 299 304 302 299 300 299 299 300 302 303 307 304 307 302 299 294 294 293 293 292 290 290 291 291 291 291 291 291 290 289 288 286 285 284 283
302 299 297 298 294 294 294 299 301 302 298 297 299 303 297 300 301 301 303 306 306 304 298 293 291 292 291 290 290 289 288 288 287 287 286 285 285 285 285 285 284 283 283 283
293 294 291 291 292 292 293 294 295 295 294 295 295 300 303 299 301 302 307 301 299 297 294 290 290 290 289 289 288 286 285 285 285 285 284 284 283 283 282 282 282 282 281 280
288 288 288 287 288 285 290 288 291 293 292 293 297 300 301 300 300 296 298 296 291 291 288 288 287 288 287 287 286 286 285 284 284 283 283 282 282 282 281 281 281 281 280 280
284 286 284 283 280 281 280 281 284 285 291 293 296 297 299 296 293 292 292 290 288 287 286 285 285 285 284 284 285 285 284 284 283 283 282 282 282 281 281 280 280 280 279 279
287 284 279 275 276 280 284 281 287 288 292 293 294 291 293 291 290 289 288 286 285 284 284 283 282 282 282 283 282 282 281 281 282 283 283 282 281 281 280 280 279 279 278 278

GFSNW_925_thetae_069.txt.gz
Theta_e
298 298 299 300 301 303 304 306 305 302 303 303 300 300 302 304 305 305 306 307 309 309 308 308 311 313 312 316 319 319 314 315 317 316 315 316 316 317 318 319 321 322 320 323
297 298 299 300 300 302 305 304 303 302 303 304 301 300 301 303 305 305 305 307 307 306 307 306 308 311 312 318 317 319 320 318 318 317 316 315 316 316 317 318 317 321 323 321
297 298 299 300 300 301 304 297 304 303 303 300 301 301 301 303 303 304 304 305 305 307 306 306 307 308 309 314 320 320 319 321 321 320 317 316 317 317 317 318 319 318 320 319
298 298 299 299 301 301 303 298 302 303 305 304 302 301 302 302 304 303 305 305 305 305 307 306 305 305 306 314 320 321 321 323 322 321 320 318 317 318 317 317 318 319 318 318
298 298 299 300 300 301 303 298 303 304 303 305 303 304 303 303 303 304 305 305 306 305 305 306 306 305 308 314 318 320 320 323 320 321 319 317 317 316 317 317 317 317 318 318
298 299 299 299 300 301 302 301 299 304 305 304 305 304 303 304 304 304 304 305 305 306 305 304 305 305 306 307 319 319 320 320 320 320 318 319 321 318 316 316 318 318 319 318
298 299 299 300 300 301 302 302 302 304 306 303 304 305 304 303 304 304 304 304 305 305 304 304 308 307 312 315 317 317 317 317 317 320 318 325 320 316 316 316 316 317 317 318
299 299 299 300 300 301 302 302 303 304 306 305 304 305 304 303 302 304 303 304 304 303 304 306 307 308 312 311 315 316 315 314 316 317 319 319 315 318 317 317 317 316 315 315
298 300 300 300 300 303 303 301 301 304 305 306 304 304 305 304 303 303 304 304 304 304 305 305 308 306 309 315 318 318 316 314 315 317 319 318 311 314 312 316 319 315 317 316
298 298 301 300 299 299 301 299 300 300 302 304 304 303 304 303 303 303 304 304 304 303 303 305 306 307 308 312 316 315 315 314 318 318 319 315 315 314 317 323 319 319 318 317
299 298 298 299 299 299 300 299 298 299 299 301 303 304 304 303 304 303 302 305 304 303 304 305 305 302 307 310 312 312 313 314 312 317 318 314 316 318 324 318 317 318 318 316
300 300 299 299 298 298 299 300 299 299 300 301 300 302 304 303 303 304 304 305 305 305 304 302 303 302 300 308 310 311 313 311 311 312 314 313 312 315 315 316 319 319 319 318
301 301 301 300 299 299 299 300 300 299 300 299 300 302 303 304 304 304 305 304 305 306 303 304 305 306 304 304 306 308 308 311 313 314 312 313 312 313 317 318 317 317 317 316
301 301 301 301 300 300 300 301 300 299 300 301 302 300 301 302 307 304 305 306 307 306 305 306 303 304 306 304 307 307 306 309 311 311 311 313 314 314 313 314 315 316 315 315
301 301 301 301 301 301 301 300 300 299 299 300 301 306 304 305 307 307 307 306 305 305 306 306 305 306 309 306 308 308 310 311 312 310 312 312 313 314 312 314 314 313 315 316
300 301 301 301 301 299 298 298 300 300 300 303 303 305 306 306 307 306 306 305 305 306 308 307 307 309 309 304 307 308 306 306 307 309 307 308 311 310 309 312 313 314 314 313
300 301 301 302 300 299 300 300 299 300 300 300 302 306 306 306 304 304 304 304 306 306 306 306 307 309 310 306 309 304 303 303 305 304 306 311 309 310 308 308 308 308 307 306
300 300 301 301 300 300 302 300 299 300 300 299 303 305 306 303 303 305 303 304 305 305 305 304 306 307 308 308 300 300 300 301 304 302 304 305 306 303 303 304 305 304 300 297
301 300 301 301 300 302 301 300 300 300 301 302 299 302 307 301 302 300 300 301 305 302 300 303 305 306 299 296 296 297 296 297 299 300 302 301 303 302 299 298 296 296 293 291
300 300 298 297 303 302 302 301 300 302 299 297 298 294 304 302 302 298 299 295 300 306 304 303 299 298 295 293 294 293 293 294 296 298 301 299 299 298 295 292 291 290 289 288
300 299 298 300 301 301 300 299 299 300 300 298 297 297 298 298 299 304 298 304 298 299 302 304 300 296 293 292 291 290 290 292 293 293 293 293 293 293 291 289 287 286 286 285
300 300 300 299 298 297 300 300 298 301 303 300 297 300 298 299 300 299 302 305 304 307 300 297 294 292 291 290 289 287 287 288 288 288 288 287 287 287 286 286 285 284 283 282
299 295 293 294 290 291 292 297 296 296 298 295 298 303 299 299 300 299 303 305 306 298 294 290 290 290 289 288 287 286 285 285 285 285 284 284 283 283 283 283 282 281 281 280
291 290 286 286 286 289 290 291 292 293 292 292 294 299 302 299 301 302 305 296 296 295 290 287 287 288 287 286 285 284 283 283 283 282 282 282 282 282 281 280 280 279 278 278
287 286 285 286 286 285 287 286 288 291 290 293 297 299 299 296 295 293 292 293 289 288 286 286 285 285 286 285 285 284 283 282 282 282 282 281 281 280 280 280 279 279 278 278
285 284 283 283 281 282 282 282 285 287 289 293 295 298 297 292 291 289 290 288 287 285 284 283 284 284 283 282 282 282 283 283 282 282 281 280 280 279 279 278 278 277 277 277
284 282 279 274 274 277 281 282 285 286 290 293 292 289 291 289 289 288 285 283 283 282 281 280 279 279 279 280 280 279 279 279 279 280 280 280 279 278 278 278 277 277 276 276

GFSNW_925_thetae_075.txt.gz
Theta_e
297 297 297 297 297 297 299 300 303 303 304 304 303 303 302 301 301 303 306 306 307 307 307 306 307 312 311 306 312 318 317 313 314 313 313 314 316 318 319 322 321 322 322 322
296 297 297 296 296 297 299 302 301 302 304 305 305 303 301 300 301 304 305 305 305 306 306 306 307 308 309 307 306 307 316 319 318 316 315 316 317 315 317 318 317 321 324 321
296 297 297 297 296 297 299 297 301 301 304 303 305 304 302 301 300 301 304 305 304 306 306 306 306 307 307 307 307 311 316 320 322 321 321 321 322 321 320 318 321 319 320 319
295 296 296 296 296 296 298 296 300 302 303 303 304 304 303 302 302 301 303 303 304 305 305 305 306 305 305 305 307 313 315 316 315 316 314 316 318 319 319 320 319 319 318 317
295 295 295 296 296 296 298 298 301 302 303 303 304 304 304 302 301 303 302 303 304 304 305 304 304 305 304 304 306 308 308 318 319 319 316 315 318 318 315 319 319 317 317 317
296 296 296 296 295 296 298 298 298 303 305 304 305 305 304 303 301 301 302 303 303 303 305 304 304 304 304 305 305 306 308 317 319 318 319 319 316 314 318 316 316 317 319 317
298 297 297 297 296 296 297 298 299 301 303 304 305 305 303 303 303 302 302 302 305 305 304 304 304 304 304 305 305 305 307 309 316 317 316 319 313 314 316 315 316 316 315 314
299 299 298 297 297 297 297 298 299 301 302 304 304 304 303 303 303 303 303 304 303 303 303 306 307 306 309 308 306 306 307 309 317 319 318 315 312 311 312 316 314 318 318 319
298 298 299 297 297 297 298 299 299 301 304 303 303 304 304 304 304 304 303 303 303 304 306 306 308 309 308 309 311 308 309 311 316 315 317 317 312 312 316 314 317 317 318 320
299 298 298 298 297 297 298 299 299 301 301 302 304 304 305 303 303 304 303 303 304 303 307 306 308 307 306 308 313 311 311 315 315 314 315 315 313 313 317 317 316 315 315 317
299 299 298 298 298 298 299 298 300 300 299 302 303 304 305 304 303 304 303 304 304 306 307 307 307 307 308 307 308 313 313 313 313 313 315 315 311 316 317 315 316 314 314 314
300 299 298 298 300 299 298 300 300 300 300 302 301 303 303 303 303 304 304 305 304 304 305 305 305 307 305 308 309 309 313 314 316 315 315 312 312 313 311 314 315 314 314 313
300 299 298 298 299 299 299 298 300 299 296 299 300 303 302 303 303 303 304 304 304 303 303 304 305 306 305 309 309 310 309 308 312 311 311 311 309 309 311 311 311 312 312 313
301 299 299 298 297 298 299 299 300 298 299 302 301 299 301 303 303 303 303 304 305 305 306 305 305 307 304 306 307 307 306 308 310 310 309 310 310 310 309 308 309 309 309 312
301 299 299 298 297 299 297 298 298 298 300 300 300 300 300 301 302 302 303 305 305 306 308 307 308 305 308 306 307 309 308 309 311 310 307 307 308 308 306 305 307 305 302 301
301 300 299 298 297 297 298 297 298 298 300 301 301 300 301 300 300 302 304 305 305 306 306 306 306 305 308 308 308 306 306 304 304 306 305 305 305 306 302 301 300 300 297 295
301 300 299 298 299 298 299 299 299 298 299 300 299 302 302 300 302 304 305 305 306 306 307 307 306 307 308 306 307 303 301 299 299 301 301 306 305 305 299 297 296 296 293 291
302 300 299 299 298 299 300 299 299 298 299 300 298 299 304 303 305 304 303 304 304 305 304 304 306 307 306 306 298 297 295 295 298 295 296 298 301 300 296 294 293 293 290 289
301 300 299 299 298 299 300 300 299 299 299 299 298 300 305 303 303 302 300 303 304 303 303 304 306 305 303 295 293 293 292 292 292 294 295 297 298 296 293 292 290 290 288 288
298 298 297 298 300 299 300 299 299 300 300 299 300 298 304 302 302 302 303 301 304 306 304 301 302 295 291 290 289 289 288 289 290 292 294 292 292 293 290 289 288 287 286 285
298 298 300 300 300 298 299 300 300 301 301 297 299 298 302 298 304 303 300 304 302 303 304 305 298 293 290 288 287 286 286 286 287 288 288 288 288 288 288 286 285 284 283 282
299 299 297 295 293 296 299 299 298 301 301 298 302 300 300 299 298 303 301 303 302 303 296 296 291 289 287 286 286 285 284 285 285 285 285 285 285 284 284 283 282 281 280 279
293 290 289 291 288 288 290 295 296 297 294 293 297 300 298 299 299 302 303 300 298 292 291 288 287 287 286 285 285 284 283 283 282 282 282 281 281 280 280 280 279 278 277 277
288 286 283 282 283 286 287 288 290 291 291 291 293 300 298 296 296 294 297 292 293 291 288 286 285 285 285 284 283 282 282 281 281 280 279 279 278 278 278 277 276 276 275 274
284 284 283 284 283 284 284 284 286 288 288 291 298 294 293 291 290 290 292 290 288 286 285 284 283 283 282 282 282 282 281 280 280 279 279 278 277 277 277 276 275 275 274 274
283 281 283 281 282 283 282 282 284 285 285 291 292 293 291 290 288 286 286 286 285 283 282 281 281 281 281 280 280 280 280 280 279 279 278 277 277 276 276 275 274 274 273 273
283 281 280 278 280 280 280 280 282 283 289 290 289 288 288 288 287 284 283 283 282 281 280 279 279 279 279 279 279 278 278 277 278 278 277 277 276 275 275 275 274 273 273 272

GFSNW_925_thetae_078.txt.gz
Theta_e
296 296 297 297 297 295 297 299 302 304 304 305 305 306 305 303 304 303 305 307 308 309 308 308 308 313 310 308 310 314 315 316 318 318 316 316 317 319 319 322 322 322 323 323
295 295 296 296 297 295 298 300 302 303 304 305 304 306 305 304 304 304 305 306 307 308 308 308 308 308 308 307 307 310 315 316 315 314 315 316 318 318 318 319 320 322 327 323
295 295 296 296 296 295 297 300 303 303 303 304 306 304 305 305 303 303 304 305 306 307 307 307 308 308 307 306 306 312 312 321 322 317 319 320 322 321 321 322 323 321 321 320
295 295 296 297 296 295 297 298 302 303 304 303 305 305 304 305 305 303 303 304 305 306 307 307 308 307 306 306 307 311 314 314 317 318 318 316 318 318 319 320 321 324 321 320
295 295 295 296 296 295 297 299 302 301 302 304 304 305 307 306 305 304 304 305 305 306 307 307 307 306 306 306 307 308 311 312 313 312 313 313 314 315 316 317 317 319 321 321
297 296 295 295 295 294 297 297 298 301 301 303 305 307 306 306 305 304 304 304 305 305 305 305 306 306 307 307 307 308 309 316 316 315 314 314 316 315 315 316 320 320 320 316
298 297 297 296 296 295 296 297 298 299 301 303 304 303 306 306 305 305 303 303 305 305 305 306 306 307 307 308 308 308 309 313 316 316 319 317 314 314 316 318 316 317 317 316
299 298 298 297 296 295 296 297 299 300 301 300 300 301 305 305 305 304 304 304 304 305 305 307 308 309 309 309 309 309 308 310 315 317 314 312 312 312 314 315 314 319 319 319
299 299 299 298 298 296 297 296 297 300 301 301 300 303 305 307 306 305 304 303 305 305 307 307 310 310 308 310 311 309 309 310 313 316 313 315 313 315 316 315 314 316 318 317
300 300 299 299 299 297 297 297 297 298 301 301 302 302 304 305 305 306 305 305 306 305 309 310 309 308 308 309 311 311 310 311 313 314 316 315 313 312 316 316 316 314 314 313
301 301 301 298 299 299 297 298 297 298 299 301 302 303 304 305 306 306 306 306 305 306 308 308 308 309 308 308 309 312 312 313 314 313 314 315 314 314 314 313 313 314 315 315
301 301 300 298 299 299 298 297 298 298 299 302 302 302 303 304 304 305 305 305 306 306 307 308 308 309 309 308 309 308 312 311 313 312 312 313 315 313 313 314 315 315 316 316
300 300 301 299 298 298 298 298 298 298 299 300 302 302 303 303 303 303 306 305 306 307 306 308 308 308 307 310 309 308 310 311 313 313 312 311 312 313 313 312 312 313 312 311
300 301 301 299 298 299 298 298 298 299 299 303 303 301 302 303 303 303 303 304 305 306 306 307 308 308 308 309 308 309 309 309 309 310 310 311 311 311 311 310 310 310 308 307
300 300 299 298 298 299 299 299 300 299 303 303 303 302 302 303 304 304 304 304 305 307 308 309 309 308 309 310 310 309 308 309 310 310 311 310 310 310 307 308 308 307 305 303
300 300 299 298 298 299 299 297 299 299 300 302 303 303 303 302 303 304 305 304 305 305 307 308 309 308 310 310 309 309 308 307 306 308 306 307 308 308 305 305 303 302 301 299
299 299 299 297 296 298 300 301 297 299 299 302 303 303 303 302 303 305 305 305 305 305 305 308 309 309 308 310 310 303 299 299 300 298 299 306 303 302 301 300 299 297 296 295
299 299 297 298 299 299 301 298 299 299 300 302 304 304 305 302 304 306 305 306 306 306 306 306 309 308 309 309 298 296 295 296 298 295 296 297 299 298 295 294 293 294 292 290
298 297 298 298 297 299 300 298 299 299 301 302 301 305 306 304 304 303 303 303 306 304 306 307 308 310 306 294 293 292 292 292 293 293 296 296 295 294 293 291 290 290 289 288
298 297 298 297 300 299 299 299 300 301 301 302 304 303 304 304 304 304 305 303 308 308 306 304 308 296 291 290 290 289 289 289 289 291 293 292 293 292 291 290 288 288 286 285
299 300 300 300 299 300 301 302 303 301 302 300 302 302 304 300 307 305 302 307 306 308 305 308 303 297 291 289 288 287 287 287 288 288 288 288 288 289 288 287 285 284 282 281
300 299 296 295 296 301 302 303 302 303 303 301 304 302 302 300 302 307 304 306 305 306 299 303 299 291 288 288 287 286 286 286 286 285 285 285 285 284 284 283 282 280 279 278
294 294 292 295 292 296 300 301 301 301 297 297 301 303 302 302 303 305 305 305 302 298 299 295 291 288 287 286 286 285 284 284 283 283 283 282 282 281 281 280 279 278 278 277
292 293 291 293 292 292 292 294 294 293 293 295 298 301 301 299 299 297 301 296 297 299 297 292 288 286 285 284 284 284 282 282 281 281 280 279 279 278 277 277 277 276 276 275
289 290 290 290 288 288 288 288 291 289 289 294 299 298 298 296 295 294 296 296 294 292 292 288 285 284 284 284 283 282 282 281 281 280 279 278 278 277 276 276 275 275 275 274
286 285 290 288 290 289 288 288 290 288 289 294 296 296 295 293 291 291 291 293 292 288 286 285 284 283 282 282 281 281 281 280 280 279 278 277 277 276 276 275 274 274 274 273
285 285 284 284 286 285 285 285 286 286 293 295 294 294 292 291 290 288 286 287 286 284 283 282 281 281 281 280 279 279 279 279 279 278 277 277 276 276 275 275 274 273 272 272

GFSNW_925_thetae_081.txt.gz
Theta_e
296 296 297 295 296 297 296 299 302 304 305 306 306 306 305 306 305 305 306 309 310 310 310 310 311 318 311 310 311 315 313 315 317 317 315 316 318 318 320 325 326 326 326 327
296 296 294 297 296 297 298 300 301 303 304 306 307 306 305 305 305 305 305 306 308 309 310 309 309 311 310 309 309 311 311 315 316 322 318 316 317 318 319 321 322 326 332 326
296 296 296 295 296 296 297 301 303 303 305 304 306 305 306 306 306 306 305 306 307 308 309 309 309 309 309 308 308 311 312 317 319 320 319 319 318 319 319 320 324 322 322 323
295 295 295 296 296 296 297 301 301 303 304 305 305 306 307 305 306 306 305 306 306 307 309 308 309 308 309 307 307 308 312 316 318 319 320 318 320 321 321 321 322 324 323 323
296 295 295 296 296 296 297 300 300 302 303 303 304 305 305 307 305 305 305 306 306 307 308 308 310 308 309 309 307 308 310 311 313 315 315 316 316 316 317 318 319 319 319 319
297 297 295 295 295 295 298 297 299 301 302 302 305 306 304 306 306 305 305 306 307 308 307 307 307 308 308 308 309 309 310 312 311 316 315 316 319 316 316 316 316 317 319 319
298 298 298 296 295 295 297 297 298 301 301 302 302 302 305 305 307 310 306 306 307 306 307 307 307 308 308 308 309 309 310 311 313 316 316 318 315 315 315 317 317 318 319 318
298 299 299 298 296 296 296 297 299 300 302 300 301 302 304 306 306 307 307 305 305 306 308 309 308 310 310 310 309 310 310 311 313 315 313 312 312 313 313 314 316 319 318 318
299 299 298 299 298 296 297 297 297 300 301 301 300 301 302 303 305 307 307 306 306 306 308 310 310 311 310 312 311 310 310 311 313 315 315 313 311 314 315 315 316 317 317 316
300 301 300 299 298 297 296 297 297 299 301 300 301 301 301 303 305 308 307 307 306 305 310 310 310 312 310 312 313 312 313 313 314 314 315 313 315 314 315 317 317 315 315 316
300 300 300 300 299 298 298 297 297 299 301 300 301 302 304 303 306 308 307 308 307 306 311 310 310 311 310 309 310 313 313 315 315 314 316 315 312 313 315 317 315 315 315 315
300 300 300 301 300 298 298 297 297 297 301 300 299 300 301 303 304 305 306 306 307 307 308 308 309 312 310 310 311 312 315 311 313 311 312 314 316 315 315 315 315 315 315 313
299 300 300 301 301 300 298 297 298 298 300 299 301 302 302 302 304 304 306 306 306 308 307 310 311 311 309 311 310 311 311 311 314 316 315 314 314 314 313 313 313 313 312 312
300 300 300 301 300 300 299 297 298 298 299 300 301 299 299 302 303 304 304 304 305 307 308 310 310 311 308 310 309 312 310 312 310 311 311 311 313 312 311 311 311 310 310 310
300 300 300 300 301 299 300 297 298 298 301 303 301 303 302 301 303 304 304 304 305 307 308 310 310 309 310 309 310 311 310 312 312 313 312 313 312 310 309 309 308 307 307 306
300 300 300 301 300 299 298 298 298 299 299 304 305 303 304 303 303 303 305 305 305 306 305 307 309 308 310 311 311 309 307 306 305 306 304 307 308 305 303 303 305 304 303 302
300 300 301 299 298 299 299 301 300 299 300 303 304 305 304 303 304 304 305 305 304 305 306 308 309 309 309 311 311 303 302 302 302 301 302 306 303 302 299 298 298 298 295 294
300 299 298 299 299 298 300 299 299 299 300 302 305 306 305 304 306 306 305 304 304 304 305 307 309 308 310 309 299 298 297 299 300 298 297 299 299 299 298 297 296 296 293 292
298 298 298 298 298 300 300 300 300 300 302 305 305 306 309 304 305 304 305 303 305 304 306 308 309 309 305 296 295 295 294 294 295 295 297 297 296 296 296 295 295 294 292 290
297 298 298 297 301 299 299 299 300 301 302 303 304 306 307 305 306 306 306 306 308 309 307 308 310 298 293 292 292 292 292 292 292 293 294 293 293 293 293 291 290 289 288 287
300 301 300 299 299 301 302 303 303 303 303 303 304 305 306 303 305 305 306 308 307 309 307 309 307 299 292 291 290 290 290 290 290 289 290 289 289 289 290 289 287 285 284 282
301 298 297 297 299 303 304 304 303 304 305 302 303 304 303 302 301 306 304 308 306 309 304 308 303 292 290 289 289 288 287 287 287 286 286 286 286 286 286 285 283 282 280 279
297 297 295 298 297 302 305 303 303 303 300 300 302 304 303 302 303 307 308 309 306 301 305 299 294 290 288 287 287 286 285 284 285 284 283 283 282 282 282 282 281 280 279 279
295 297 294 298 298 296 296 298 298 295 296 299 301 303 304 303 302 303 303 299 301 303 303 296 291 287 286 286 285 284 283 282 282 282 280 280 280 279 278 278 278 278 277 276
293 294 295 293 292 292 291 292 295 293 294 297 303 302 302 300 299 298 299 300 299 298 296 291 288 286 285 285 284 283 283 282 281 280 279 279 278 278 277 277 276 275 275 275
290 290 294 292 295 293 292 293 294 291 293 297 300 301 300 297 297 297 296 299 297 292 288 287 286 284 283 283 282 282 281 281 280 280 279 278 277 277 276 275 274 274 274 273
289 289 288 290 290 290 290 290 291 290 296 298 299 299 295 295 295 293 290 291 289 286 284 284 283 283 282 282 281 280 280 280 280 279 279 278 277 277 276 275 275 274 273 272

GFSNW_925_thetae_084.txt.gz
Theta_e
296 295 296 296 296 297 297 299 301 302 304 307 306 307 305 304 305 306 305 307 308 310 311 311 312 319 312 310 310 314 316 316 314 313 317 316 319 320 321 329 333 328 330 331
296 296 295 295 295 296 298 300 300 299 305 306 307 305 305 305 306 306 305 306 307 307 309 309 311 311 312 310 309 309 310 315 315 316 315 316 316 319 320 321 325 331 334 331
296 296 296 295 295 296 295 301 302 301 306 306 305 306 306 305 305 305 306 306 306 307 308 309 310 310 310 309 308 309 310 314 317 323 322 323 319 317 321 322 326 328 328 328
297 297 296 296 296 296 296 299 301 302 305 305 305 305 308 306 305 306 305 306 306 306 307 307 308 308 308 309 308 308 310 315 314 314 320 320 323 322 323 320 323 325 324 324
298 297 296 295 296 296 296 300 299 300 302 304 304 305 305 306 307 306 306 306 305 306 306 306 307 309 310 312 310 309 309 312 312 313 315 315 316 319 317 323 323 322 321 321
298 298 297 295 294 295 296 298 299 300 302 302 304 306 304 304 305 306 306 307 305 305 306 309 309 310 309 310 309 310 310 311 312 314 313 316 320 318 317 316 316 317 318 319
298 297 297 297 295 295 296 298 299 301 301 301 303 302 304 304 304 305 306 308 309 308 308 308 308 308 308 308 308 309 310 310 312 315 314 321 316 316 316 317 316 316 317 321
298 298 298 298 297 296 296 296 299 300 301 300 300 301 303 303 306 307 307 307 308 308 308 309 309 309 309 310 309 309 310 311 315 316 315 313 312 312 312 313 314 319 320 319
298 298 299 299 297 297 296 297 298 300 301 301 300 301 302 303 305 306 308 307 307 307 307 309 309 310 310 311 311 310 310 312 314 316 314 314 310 311 314 314 314 317 317 317
299 299 299 299 299 297 297 297 297 299 301 300 300 301 301 303 304 305 306 308 307 306 310 311 309 310 310 312 313 313 312 314 315 315 316 313 312 314 314 316 319 317 317 316
299 300 300 300 300 298 298 297 297 298 300 299 300 301 302 303 303 306 307 306 307 306 309 311 309 311 312 312 311 313 313 315 315 314 315 316 313 313 316 318 316 315 315 314
301 300 301 300 301 300 298 298 297 298 299 299 299 299 300 301 303 303 304 306 307 306 308 308 309 313 314 311 311 312 314 312 313 312 312 312 316 317 315 315 315 314 313 312
300 300 301 300 300 301 299 297 297 298 300 299 300 300 300 301 301 303 306 305 306 307 308 310 311 312 310 313 311 312 314 312 315 314 315 316 316 313 312 312 312 311 311 310
299 300 300 300 300 301 300 297 297 297 299 299 300 299 299 300 303 302 304 305 305 306 306 308 311 313 310 312 311 311 312 313 313 314 314 314 312 311 310 309 308 307 308 307
299 300 300 299 300 301 301 296 298 297 300 301 301 300 301 301 301 303 304 305 305 305 305 306 311 309 311 311 311 313 312 311 315 316 309 310 308 307 307 307 306 305 305 304
299 300 300 300 300 301 295 295 298 298 299 302 306 304 302 303 301 303 304 306 305 304 304 307 309 308 311 314 312 307 306 305 304 304 303 307 305 302 301 302 302 301 300 297
299 300 300 300 301 297 299 301 299 298 299 301 304 306 303 303 304 305 306 305 305 304 305 307 308 310 310 311 312 304 301 303 300 300 301 304 301 301 300 299 299 299 296 294
300 300 300 300 297 298 299 302 300 299 300 301 303 305 306 305 306 306 305 305 304 304 305 307 308 309 310 308 300 298 297 299 297 297 299 300 299 298 298 297 297 297 294 292
300 300 299 297 298 299 301 299 299 300 301 303 305 306 308 305 306 304 304 303 304 303 305 306 309 308 300 297 296 294 294 295 295 295 298 295 296 295 295 294 292 292 291 289
297 298 298 297 301 299 299 299 299 301 302 304 305 306 307 306 306 306 305 305 307 308 307 307 308 297 294 293 293 292 292 292 292 293 292 292 291 291 291 290 288 288 286 285
300 300 300 300 300 300 301 301 304 304 305 304 305 306 306 304 307 307 307 306 307 308 308 308 307 298 293 291 291 290 289 289 289 289 288 288 288 288 289 287 285 284 282 282
300 298 298 299 301 303 304 304 304 304 304 303 305 305 305 303 302 306 304 305 306 308 305 307 300 293 290 289 289 287 286 287 286 286 286 285 285 286 285 283 282 281 280 279
298 298 297 300 299 304 305 303 305 304 302 302 303 302 302 302 303 302 304 308 307 304 307 298 293 289 288 287 286 285 284 284 283 283 282 281 281 281 281 280 280 278 278 278
297 299 296 299 298 297 296 298 299 296 298 300 302 303 304 302 303 303 303 301 303 305 304 294 289 287 287 286 285 284 283 282 281 280 280 279 278 278 278 278 277 276 276 276
294 296 296 294 293 294 295 295 296 295 297 300 303 303 302 301 300 300 301 301 301 297 294 290 287 286 285 284 284 283 282 281 281 280 279 278 277 277 276 276 275 275 274 274
291 291 295 295 296 295 294 296 295 294 297 299 302 302 301 299 299 299 298 301 297 292 289 287 285 284 283 282 282 282 282 281 280 279 278 277 277 276 275 274 274 274 273 273
291 290 291 293 292 292 292 292 293 294 298 299 301 299 297 297 297 293 290 290 288 287 285 284 284 283 282 282 282 281 281 281 280 279 279 278 277 277 276 276 275 274 273 272

GFSNW_925_thetae_087.txt.gz
Theta_e
297 297 296 295 297 296 297 298 297 300 303 303 305 306 306 305 305 305 306 306 307 308 309 310 311 317 313 309 309 309 311 315 315 312 313 315 318 320 323 329 326 328 331 331
297 297 296 295 295 296 297 300 297 299 302 301 305 305 306 306 306 305 306 306 306 306 307 309 310 314 312 310 309 308 307 316 319 317 315 315 316 320 321 322 323 328 330 331
297 297 296 296 295 294 296 296 296 297 300 300 304 304 305 305 305 305 305 305 306 306 306 307 310 311 311 309 309 307 309 313 316 321 322 317 322 321 321 324 327 324 329 328
298 297 297 296 295 295 296 296 299 299 294 303 303 305 308 308 306 305 305 305 305 306 307 307 307 308 309 311 310 308 310 313 314 314 314 318 318 321 321 324 323 327 324 325
297 297 297 297 296 295 295 297 297 297 299 301 304 304 304 304 305 306 307 307 306 305 305 305 306 310 311 311 311 309 309 312 312 312 312 314 320 319 319 319 323 325 324 324
297 297 297 297 296 295 295 296 295 298 299 300 302 302 304 304 304 304 304 306 307 309 308 308 308 308 308 309 310 310 310 311 313 315 313 312 318 318 320 319 320 320 324 322
298 298 298 298 297 295 295 296 296 297 295 298 300 302 302 303 304 305 305 306 307 308 305 307 308 308 308 308 309 309 309 310 312 311 310 317 318 316 316 316 318 318 321 319
297 298 298 298 297 296 295 295 297 297 295 298 299 300 300 301 303 304 306 306 306 306 307 307 308 307 308 308 308 308 308 309 309 312 314 313 311 312 313 312 320 319 320 319
298 298 298 299 298 297 297 295 297 297 298 297 299 299 301 301 302 304 305 305 305 307 305 306 307 308 309 309 310 308 308 308 310 310 315 312 312 313 314 316 321 318 318 318
299 299 298 298 299 298 297 296 296 297 297 298 298 300 301 301 302 304 303 305 305 305 304 304 305 307 308 310 312 311 309 309 311 311 313 314 312 313 314 318 318 315 314 314
300 300 300 299 299 299 298 297 296 297 297 297 298 299 300 301 302 301 304 302 305 304 304 305 305 304 308 310 311 313 310 311 311 311 311 312 314 315 318 317 315 313 312 312
300 300 300 300 300 299 299 298 296 297 297 297 297 298 298 299 301 303 303 306 303 305 304 305 305 306 309 311 314 313 312 310 311 310 310 313 314 314 313 313 311 311 310 309
299 299 300 300 300 300 300 298 297 297 298 297 296 297 297 298 300 301 304 304 305 305 306 307 308 308 309 312 311 314 311 312 311 311 314 312 310 311 309 308 308 307 306 306
299 299 299 300 301 301 300 298 297 297 298 298 298 298 297 296 298 300 302 303 304 304 304 305 306 308 309 310 311 311 313 312 313 314 311 309 308 307 308 307 305 305 304 303
299 299 300 299 300 300 300 297 297 297 298 298 298 298 299 299 298 297 302 303 303 303 305 304 305 308 309 309 311 311 307 307 311 309 305 308 305 302 303 303 302 300 299 298
300 300 299 300 300 300 298 294 297 297 297 300 300 302 302 300 300 299 301 302 302 302 304 304 305 307 309 310 310 304 302 300 300 302 302 304 301 300 299 300 299 297 295 293
300 300 299 300 299 300 298 298 297 297 297 299 301 300 302 302 301 299 301 303 304 302 304 305 305 307 308 306 306 300 299 298 297 298 302 300 299 299 297 297 297 294 292 290
300 300 300 300 300 299 299 301 298 297 298 299 300 301 302 302 303 303 303 304 304 303 304 305 306 306 305 301 296 295 295 295 295 296 295 295 294 294 294 292 292 291 290 288
300 300 300 299 297 297 299 300 298 298 300 300 299 300 304 303 303 302 303 303 303 302 303 304 306 300 296 296 294 292 292 292 292 293 291 291 291 291 291 290 289 288 287 286
299 298 297 296 300 298 299 299 300 300 301 301 302 302 304 305 302 304 302 300 304 305 303 306 298 294 293 292 290 290 289 289 289 289 289 288 288 290 287 286 285 284 283 282
298 296 298 299 300 301 300 299 299 299 300 301 302 303 304 303 304 304 300 302 304 304 305 306 300 294 292 289 288 287 287 287 286 286 285 285 286 286 284 283 282 281 280 279
299 298 299 299 301 302 303 300 302 301 303 302 303 303 303 301 301 303 303 303 303 306 303 305 295 290 288 287 285 284 284 284 283 283 282 282 282 282 282 281 280 279 278 277
298 298 298 300 298 302 299 301 302 301 299 299 301 302 300 300 301 302 302 304 303 298 300 292 289 288 286 285 284 283 282 282 281 280 280 279 279 279 279 278 277 276 275 275
296 296 291 296 296 295 296 298 298 296 298 299 299 300 301 300 300 301 300 299 300 305 295 287 287 285 284 284 283 282 280 279 278 278 277 276 276 275 275 275 275 275 275 274
293 293 294 292 293 294 294 295 295 294 296 298 300 297 298 299 296 299 298 300 296 293 286 286 284 283 282 283 283 279 278 276 277 277 276 275 275 274 274 274 274 274 274 273
289 290 294 294 292 292 292 294 294 293 295 296 297 297 298 296 299 297 292 296 288 286 285 284 281 281 280 280 280 280 280 279 278 277 276 275 274 274 274 273 273 273 272 271
290 289 288 290 288 290 289 289 290 291 294 295 298 297 295 296 293 288 287 285 284 284 283 283 282 281 280 279 281 281 280 279 279 278 277 276 275 275 274 274 273 272 272 271

GFSNW_925_thetae_090.txt.gz
Theta_e
297 297 297 297 295 295 296 296 296 298 299 297 299 301 306 305 306 305 306 306 306 307 307 308 311 317 314 308 308 308 308 312 311 311 310 316 318 321 321 328 326 327 330 328
297 297 297 297 295 295 296 298 295 298 300 298 300 304 305 305 305 305 305 305 306 305 306 307 312 314 310 309 308 307 307 312 317 315 316 316 318 318 319 322 322 326 328 328
297 297 297 297 295 295 296 295 296 293 297 299 301 302 304 304 304 304 305 305 305 306 306 306 307 312 312 309 308 309 308 310 315 319 318 318 319 317 319 321 325 322 326 325
297 297 297 297 295 295 295 294 291 298 301 301 298 301 305 306 305 305 306 305 305 305 305 305 305 307 308 309 310 307 309 311 313 313 312 317 319 318 318 322 322 327 325 325
297 297 297 297 296 295 295 294 295 297 297 300 301 303 304 305 304 305 305 306 307 307 308 307 306 309 309 310 310 309 308 309 310 311 311 312 311 318 319 319 321 323 323 324
297 297 298 297 296 295 295 294 294 294 296 298 298 301 302 303 304 304 304 304 306 308 308 306 306 306 307 308 309 308 309 310 311 312 311 308 313 317 320 316 320 318 321 321
297 298 297 298 297 296 294 295 294 293 293 296 298 299 300 300 301 304 304 305 306 307 306 305 306 306 307 307 308 307 308 308 309 311 310 309 312 311 315 319 321 317 319 321
297 296 297 298 298 297 295 295 295 294 291 296 297 298 299 300 300 302 303 305 306 305 306 306 307 306 306 307 307 307 307 307 307 310 312 311 308 310 313 317 320 319 319 319
297 298 298 298 298 298 296 294 295 295 297 295 297 298 298 298 299 300 304 304 302 304 304 305 308 307 308 308 308 307 306 306 307 308 312 311 310 312 313 316 321 317 316 317
298 299 299 298 298 298 297 296 294 295 294 294 296 298 300 300 300 300 301 303 303 302 301 303 307 306 307 307 310 311 309 307 309 308 309 311 312 314 315 317 318 314 313 313
299 299 300 299 298 298 298 297 296 295 293 295 296 297 298 300 302 302 302 299 303 303 304 305 305 302 306 308 308 310 311 311 310 308 311 311 313 315 318 314 311 311 311 310
299 299 300 300 299 299 299 298 296 295 295 295 296 296 296 297 299 299 301 303 304 304 305 303 304 302 301 307 309 312 314 310 310 308 308 311 310 310 309 309 309 308 308 307
299 299 299 299 300 299 299 298 297 296 296 295 295 295 296 296 298 299 298 301 303 304 302 305 307 307 306 306 309 311 308 309 312 312 312 309 310 307 307 306 306 303 302 301
299 299 299 299 299 300 299 298 297 296 297 296 297 297 296 296 297 299 300 301 303 303 302 304 304 304 307 311 311 309 309 310 308 313 310 308 306 305 305 303 300 299 297 295
299 299 299 299 299 300 300 300 297 296 297 296 296 298 298 298 297 296 299 299 301 301 302 302 304 303 307 307 307 305 302 303 307 306 303 305 303 301 301 300 298 295 294 292
299 299 299 299 299 299 297 294 297 297 296 299 300 298 300 298 298 295 296 302 299 300 300 302 303 304 305 307 307 301 299 299 298 301 298 299 299 298 297 298 295 293 290 289
300 300 300 299 299 300 298 297 297 296 296 298 298 299 299 299 298 297 298 300 301 302 302 303 304 305 305 302 299 297 298 296 297 294 299 297 295 294 294 294 293 290 288 286
300 299 300 299 300 299 299 300 298 297 295 298 296 295 299 301 300 300 298 299 301 303 303 303 305 305 301 295 294 292 293 294 292 292 292 292 292 292 291 290 290 289 287 286
300 300 300 299 298 298 300 299 297 297 298 299 297 294 297 301 300 301 302 302 303 302 303 302 304 296 295 293 291 289 289 289 290 289 289 289 290 289 288 287 286 286 285 285
299 297 295 296 298 298 298 298 298 298 300 298 300 297 302 301 302 303 302 301 304 304 303 301 295 292 290 288 287 287 287 286 287 288 287 287 288 286 285 284 283 283 282 281
298 298 299 299 298 298 297 298 299 300 299 297 297 301 303 299 303 302 298 303 303 305 305 305 297 293 289 286 285 285 284 284 283 283 283 284 284 284 283 282 280 279 279 278
299 299 298 298 299 301 299 299 298 298 299 299 299 302 302 300 301 302 302 302 303 305 303 295 290 289 287 285 284 283 282 282 281 281 281 281 281 280 280 279 278 277 276 274
298 297 297 298 294 300 292 299 301 302 299 300 301 301 300 298 301 300 301 302 299 300 293 289 288 286 285 284 283 281 281 280 279 279 279 278 278 278 278 277 276 275 273 273
295 292 286 289 285 289 289 296 297 296 298 299 296 300 301 299 299 300 300 296 298 300 286 285 285 284 283 282 281 280 278 277 276 275 275 274 274 273 273 274 274 273 273 272
291 290 288 286 289 290 294 293 295 294 296 298 299 297 296 296 294 297 297 299 286 287 284 284 282 280 282 281 279 276 275 273 274 274 273 273 273 273 273 273 273 273 273 272
289 289 291 290 287 288 291 292 292 293 294 296 295 294 292 293 295 291 289 291 285 281 278 280 279 278 278 277 278 277 277 276 276 275 274 274 273 273 272 273 272 272 272 271
288 287 284 283 283 285 289 289 290 290 293 289 291 290 291 292 287 284 284 280 280 282 282 280 277 276 274 276 279 278 278 277 276 275 274 274 274 273 273 272 272 271 271 270

GFSNW_925_thetae_093.txt.gz
Theta_e
297 297 297 297 296 295 295 295 296 296 298 294 296 295 301 303 305 304 305 306 306 305 308 309 315 317 313 308 308 309 307 311 311 310 309 315 317 318 320 323 327 324 327 323
297 297 297 297 296 295 296 296 297 296 298 299 290 297 302 302 304 304 304 305 306 305 306 308 313 313 310 308 307 308 308 312 314 314 315 315 318 318 317 318 320 323 326 323
296 297 297 297 296 295 295 294 292 292 296 298 300 299 300 302 304 303 304 305 305 305 305 306 307 311 311 309 307 309 307 309 313 314 315 314 317 317 318 319 323 323 324 324
296 296 297 298 296 295 295 294 291 295 297 300 297 299 302 304 305 305 306 306 307 307 306 306 306 308 307 308 309 307 307 309 311 312 314 313 316 317 318 319 320 323 322 323
296 297 297 298 296 295 294 293 294 295 297 299 302 301 302 304 305 304 304 304 306 307 308 308 308 308 307 309 308 308 307 307 309 309 310 312 313 309 308 316 319 320 322 322
296 297 297 297 297 295 294 293 293 293 294 296 298 300 300 302 302 304 304 305 305 305 307 306 305 305 306 307 309 307 308 308 309 310 308 308 308 311 312 318 317 319 323 321
296 297 297 298 297 295 294 294 292 290 291 295 296 297 298 300 300 302 303 303 305 306 305 304 304 305 306 306 306 306 307 307 307 309 307 307 306 306 317 318 318 317 318 320
296 296 296 297 298 297 294 294 293 292 291 295 296 296 298 298 299 301 305 305 305 303 305 304 306 305 305 305 306 306 306 306 305 307 308 305 306 310 312 313 316 319 321 319
295 296 297 297 297 298 296 294 295 293 292 292 296 296 297 298 299 299 302 302 301 303 302 303 307 307 307 307 307 306 305 305 306 306 309 306 309 313 313 315 319 317 318 319
296 297 298 298 298 298 298 296 294 294 292 292 294 297 298 299 299 299 299 302 303 301 301 305 306 307 306 307 309 310 306 305 308 308 309 308 308 312 314 315 314 313 315 315
296 297 298 299 299 298 299 297 296 294 290 293 294 295 295 299 299 301 300 297 300 302 301 303 304 303 305 307 306 308 307 307 306 307 310 308 309 312 315 312 309 310 309 309
297 298 299 300 300 299 298 298 297 295 295 293 295 295 295 296 298 296 298 300 302 304 305 303 304 301 299 305 307 308 307 308 310 306 306 310 308 308 307 306 304 303 304 305
298 299 299 299 299 300 298 298 296 294 296 295 293 293 295 295 296 296 296 298 299 299 301 302 304 305 304 302 302 308 309 306 309 311 311 310 308 305 303 303 301 298 297 297
299 299 299 299 299 300 300 298 296 296 296 295 294 296 295 295 295 296 297 298 301 302 301 302 303 303 303 306 309 305 304 304 304 309 306 306 304 304 301 298 297 296 293 292
299 299 299 299 299 299 300 299 297 297 297 296 295 297 297 297 295 296 298 299 300 301 302 301 299 301 304 304 304 301 301 300 302 304 300 303 301 299 299 297 294 292 291 289
298 298 299 299 299 299 300 294 297 297 297 299 299 297 298 296 295 295 295 296 300 301 302 301 301 301 304 305 302 297 298 298 295 300 298 296 296 296 294 293 291 290 288 287
298 298 298 299 299 299 299 297 296 297 297 297 298 297 297 297 295 294 295 297 299 301 300 302 303 304 305 300 299 295 296 294 293 293 296 296 293 293 292 292 290 288 285 284
298 298 299 299 299 299 298 298 297 297 297 298 297 293 295 299 297 300 295 297 299 300 300 302 304 302 299 295 291 290 291 292 291 291 290 291 291 289 288 287 287 287 286 284
299 299 299 300 298 296 299 299 297 296 297 297 297 294 292 299 298 298 298 297 300 298 302 302 301 294 290 291 289 288 288 288 288 288 287 288 288 286 285 284 284 284 283 283
300 300 295 295 298 298 297 296 297 295 297 297 297 292 297 300 299 300 298 300 302 302 303 296 293 289 288 287 286 286 285 285 285 287 286 286 286 284 283 282 282 281 281 279
297 294 296 298 297 297 297 297 298 299 299 298 297 297 299 299 301 301 300 302 301 303 304 301 293 291 287 285 284 284 283 282 282 282 283 283 283 283 282 280 279 278 277 276
299 298 298 298 297 298 299 299 298 298 297 296 300 302 302 297 296 301 301 300 302 304 299 295 288 288 285 284 283 282 281 281 280 280 281 280 280 280 279 278 276 275 274 273
298 296 295 298 295 297 298 299 298 300 300 300 301 301 299 297 298 300 301 301 302 296 289 287 287 286 284 283 282 280 279 279 278 278 278 277 276 277 277 276 275 273 272 272
292 292 286 287 283 287 287 293 293 292 298 299 297 300 301 298 297 298 296 294 295 289 286 286 285 284 282 282 281 278 276 275 274 274 273 273 273 272 273 273 273 272 271 271
290 288 284 285 286 285 292 294 295 295 296 297 297 295 296 294 293 294 294 292 286 286 283 280 281 282 280 279 278 275 274 271 272 272 272 272 272 272 272 273 273 272 272 271
287 286 289 289 287 290 291 292 294 293 295 295 294 294 293 292 291 289 287 292 288 281 277 280 280 280 279 279 277 275 274 274 274 273 273 273 273 272 271 272 272 272 271 271
287 284 284 281 282 288 289 288 289 289 291 290 291 290 293 289 285 284 282 280 279 280 280 274 273 275 273 272 275 276 275 275 274 274 273 273 273 272 272 271 271 271 270 270

GFSNW_925_thetae_096.txt.gz
Theta_e
296 297 297 297 297 296 295 294 294 296 297 299 293 291 298 300 300 304 305 305 309 308 307 314 315 316 312 307 308 309 307 310 311 311 310 313 315 317 317 323 323 324 325 321
296 296 297 297 297 296 295 293 294 295 297 297 298 296 298 300 301 300 304 304 306 305 307 311 312 312 310 309 307 308 309 313 314 316 314 313 317 317 317 317 318 317 320 318
296 296 296 297 297 296 295 293 292 289 297 299 299 299 298 298 302 303 303 304 305 307 307 307 308 310 310 308 307 310 308 310 311 312 313 312 315 316 316 320 320 320 322 320
296 296 296 297 298 296 294 293 291 293 293 298 296 299 299 300 301 304 304 306 306 307 308 308 308 309 307 308 309 307 307 308 310 310 310 313 313 314 315 317 318 320 317 320
296 296 296 297 297 296 294 288 292 295 296 295 296 299 299 301 302 305 306 305 305 307 308 307 308 307 307 308 307 307 306 307 308 309 308 311 312 309 307 308 309 313 318 319
295 296 296 297 297 295 292 292 293 292 293 294 296 299 298 298 301 302 303 303 305 304 306 305 305 305 305 306 307 306 307 307 308 309 308 307 305 306 315 315 317 318 319 318
295 296 296 297 298 296 294 293 291 289 290 294 296 295 297 297 298 301 302 305 304 305 303 303 303 303 304 305 306 306 306 307 307 309 307 305 302 303 314 314 317 317 316 315
295 296 296 296 297 298 295 294 293 292 292 294 295 296 296 296 296 300 302 304 304 301 302 303 304 304 304 304 305 305 305 305 306 307 308 305 305 310 313 314 315 319 320 317
295 295 295 296 296 297 296 294 294 294 292 291 294 295 295 295 299 298 300 300 300 301 301 302 305 305 306 306 305 305 304 304 306 306 308 304 303 311 310 312 316 313 318 318
295 294 295 297 297 297 298 296 294 294 293 292 293 296 298 298 298 298 298 300 302 299 299 303 305 306 305 305 308 309 306 305 308 307 309 308 307 309 310 314 313 310 312 315
294 294 296 297 297 298 298 297 295 294 289 291 293 293 293 294 298 299 297 295 300 300 302 303 304 303 304 306 305 307 306 307 305 307 309 307 308 309 311 309 304 305 306 306
294 295 296 296 298 299 299 298 297 294 294 292 294 294 294 295 297 295 295 299 302 302 304 304 304 304 301 305 307 306 306 309 310 307 306 308 306 306 303 301 300 299 301 300
295 296 297 298 299 299 299 298 296 294 295 296 293 295 296 295 295 295 294 295 298 300 300 301 304 305 304 303 302 308 306 304 308 307 308 307 305 301 301 299 298 295 295 295
295 297 298 299 299 299 299 298 295 296 296 295 294 295 294 295 295 295 296 296 299 301 300 301 303 301 301 304 306 305 302 301 301 307 303 303 301 300 298 296 295 292 290 290
296 298 299 299 299 299 300 298 297 297 297 294 294 295 297 296 295 294 295 297 297 299 302 300 299 298 302 303 302 299 299 298 298 302 298 300 298 297 295 293 291 290 289 287
297 298 299 299 299 299 300 294 296 297 297 299 297 296 297 295 294 294 295 296 298 300 300 301 301 300 303 304 295 297 295 294 293 295 296 295 294 293 292 290 288 286 285 284
296 297 298 298 299 299 298 297 296 297 297 297 298 296 295 295 294 293 293 295 297 298 301 300 299 301 303 299 294 294 294 293 292 291 294 295 290 290 289 289 287 285 283 282
297 297 297 298 298 299 298 298 297 297 296 297 297 293 295 297 296 296 294 296 296 298 300 299 301 301 298 296 291 290 289 291 289 289 289 290 287 285 285 284 285 285 284 282
297 297 298 298 298 295 298 298 297 296 297 299 296 292 291 297 297 298 297 295 295 294 300 299 301 296 291 291 290 288 287 286 286 287 286 287 285 284 283 282 282 283 281 282
297 298 296 293 292 298 297 295 295 295 296 297 296 290 298 299 298 299 299 297 293 300 298 295 295 286 287 286 285 284 284 283 284 286 285 285 285 283 281 281 280 279 279 278
296 293 295 296 297 297 295 296 297 297 299 298 296 296 298 297 297 299 297 299 300 302 301 301 293 290 287 285 283 283 282 282 281 282 282 282 282 282 280 279 277 276 276 275
296 297 296 297 297 297 299 298 298 298 297 295 298 298 300 297 298 301 299 300 300 302 297 294 287 286 285 284 282 281 281 280 280 280 280 280 279 278 277 276 275 274 273 272
298 296 295 298 294 298 295 298 298 291 297 297 301 301 299 297 297 300 300 300 300 294 291 289 286 285 284 282 281 280 279 279 278 278 277 276 275 275 275 274 273 272 271 271
293 294 293 293 287 289 287 291 293 294 298 299 299 300 300 298 299 298 299 294 296 294 287 286 284 283 282 281 280 278 276 275 274 273 273 272 272 271 272 273 273 272 271 271
289 289 286 288 285 287 292 294 296 295 297 297 295 294 295 291 292 289 292 293 290 287 286 279 280 279 279 278 277 274 273 270 271 271 271 271 271 271 271 272 272 271 271 271
286 285 288 288 290 291 292 293 294 293 296 294 292 292 291 290 290 291 290 294 289 282 275 278 280 279 277 275 275 273 273 273 272 272 272 272 272 272 271 271 271 271 271 270
286 283 282 277 279 288 289 289 290 289 294 293 290 291 293 290 287 286 282 280 277 278 278 272 273 275 273 271 273 274 274 273 273 273 273 272 272 272 272 271 271 271 270 270

GFSNW_925_thetae_099.txt.gz
Theta_e
296 296 296 297 297 296 294 293 292 295 296 296 295 296 296 297 297 298 298 304 306 306 309 314 315 313 311 309 308 310 310 312 314 314 313 313 315 316 316 318 322 319 322 318
295 296 296 296 297 296 294 293 293 294 297 295 297 297 297 297 296 299 301 303 303 302 307 311 315 313 311 310 308 311 312 313 319 318 315 313 316 316 316 316 319 319 320 318
295 296 296 296 297 296 294 291 291 291 297 297 297 298 298 299 299 300 303 304 303 307 309 309 311 311 310 310 310 311 311 311 311 314 313 313 315 315 315 317 319 318 319 317
295 296 296 296 298 296 293 293 291 292 292 296 296 298 299 301 302 302 304 305 307 308 309 309 309 309 309 309 308 308 309 310 310 310 310 312 312 312 311 311 313 316 314 315
294 295 296 296 297 296 293 290 292 293 295 295 296 297 298 298 299 303 305 305 305 306 308 308 309 308 308 309 308 308 308 309 309 309 308 310 309 308 306 308 311 312 312 312
294 295 296 296 297 295 292 291 292 293 293 294 295 296 296 298 298 298 302 304 305 307 307 305 305 305 305 307 308 307 308 309 308 306 308 308 305 305 306 313 316 316 318 317
294 295 296 296 298 296 294 292 292 292 292 294 295 294 295 296 298 297 301 304 305 305 302 303 303 303 304 305 306 306 308 308 308 308 308 304 303 305 308 309 312 316 318 318
294 295 296 296 296 297 294 293 293 293 292 294 294 295 295 296 295 300 300 303 302 301 303 304 303 304 304 305 306 306 306 307 309 308 307 306 306 311 310 311 308 314 318 316
293 294 295 295 296 297 295 293 293 294 295 293 294 296 295 296 298 299 300 300 300 300 302 304 305 306 306 306 306 305 305 306 308 308 307 307 306 308 309 311 312 310 312 316
293 293 294 294 296 296 297 295 293 294 295 293 293 296 296 298 297 298 299 299 302 300 302 306 306 306 305 306 307 308 308 308 309 309 308 308 308 308 309 305 309 307 306 308
292 293 294 293 296 297 298 296 295 294 293 292 292 293 294 294 297 298 299 298 301 303 304 305 305 305 305 306 306 308 307 308 308 308 308 308 307 308 310 306 302 303 302 300
291 292 293 294 295 296 298 297 295 295 294 294 293 294 294 294 295 297 296 299 299 302 301 301 302 305 304 304 307 306 310 309 309 308 310 306 304 303 301 300 299 299 300 298
291 293 294 294 295 296 298 298 295 294 295 296 294 296 296 295 294 294 296 297 299 300 300 300 302 305 304 305 306 307 305 301 305 305 304 300 301 299 298 296 293 292 293 294
291 293 294 296 297 298 299 298 295 296 295 296 295 295 294 295 295 294 294 296 298 300 300 301 301 301 302 304 305 304 301 300 299 304 300 301 297 297 295 293 292 290 288 288
293 294 295 298 298 299 300 299 296 297 298 296 295 295 296 296 295 294 295 295 296 299 301 302 302 300 301 304 301 299 298 297 299 300 297 297 296 294 292 290 289 287 287 286
293 294 296 298 299 299 300 294 296 297 297 299 297 296 296 294 293 293 295 295 297 299 301 302 302 300 302 304 301 297 295 294 293 295 295 293 291 291 290 289 287 285 284 283
293 295 297 298 299 299 298 298 297 297 297 296 298 297 295 294 293 293 295 295 298 301 300 299 301 301 302 301 300 295 294 292 291 290 294 293 289 288 287 287 285 283 282 281
293 295 296 297 298 298 298 298 297 297 295 297 298 296 296 295 296 296 294 296 296 298 299 300 301 300 299 299 292 290 289 290 289 289 290 288 286 284 284 284 284 284 283 281
294 295 296 296 297 298 298 298 297 296 296 299 297 295 297 297 298 297 297 296 296 296 300 300 301 298 299 293 290 288 286 286 286 287 287 286 285 283 282 282 282 282 281 280
295 295 296 294 294 298 298 296 295 295 296 297 296 292 300 300 299 299 298 296 298 299 298 297 299 293 288 287 285 285 284 283 284 288 285 285 285 283 281 280 279 279 278 277
294 292 295 295 297 297 295 296 298 298 297 297 295 295 299 298 299 299 298 299 299 299 300 300 296 294 288 285 284 283 282 282 282 282 282 282 282 281 280 278 277 276 275 274
294 296 297 297 296 297 298 298 298 297 298 297 297 296 297 298 298 299 298 299 299 300 299 298 294 288 285 284 282 281 281 281 280 280 280 280 279 278 277 276 275 274 272 271
297 297 295 297 295 298 299 297 296 296 295 296 299 299 298 297 298 300 300 299 300 296 298 297 288 285 284 283 281 280 279 279 278 277 277 276 275 276 275 274 273 272 271 270
295 296 294 296 294 293 290 294 293 292 295 298 298 299 298 297 298 300 302 298 297 298 296 294 286 284 283 281 280 279 277 275 274 274 273 273 272 270 271 271 271 271 269 269
291 290 290 286 286 286 292 295 297 296 298 297 298 296 297 296 298 294 294 297 299 296 295 285 283 282 281 279 277 275 274 272 272 271 271 270 271 271 270 271 271 271 270 270
287 285 287 288 291 293 293 296 295 294 295 294 295 295 297 295 294 296 297 298 298 291 283 281 281 280 278 277 276 273 272 272 271 272 272 272 272 272 271 271 271 271 271 270
285 284 283 281 286 290 289 290 291 290 296 294 293 293 295 291 290 291 288 292 285 280 280 279 278 278 275 273 273 272 272 272 272 272 272 272 271 271 271 271 271 271 270 270

GFSNW_925_thetae_105.txt.gz
Theta_e
296 295 296 296 297 296 298 300 303 299 300 306 302 302 301 301 302 303 303 303 305 307 308 309 310 313 307 309 310 310 311 314 317 319 314 315 315 316 318 320 322 320 324 325
294 294 296 296 297 296 300 301 300 299 302 304 303 301 301 302 302 303 304 306 307 307 308 308 308 314 312 311 311 312 312 315 318 322 317 317 318 316 318 321 320 323 323 325
294 294 295 296 297 296 298 302 303 301 301 301 302 302 302 303 303 305 304 306 307 309 310 307 310 315 312 312 312 313 313 315 316 318 316 316 318 318 317 318 321 320 319 317
292 294 295 296 297 297 297 302 301 299 302 302 302 302 302 302 303 303 304 308 306 308 309 307 310 310 312 311 312 312 313 316 317 317 316 317 316 317 316 317 315 315 316 319
292 293 295 296 297 296 299 299 302 300 299 300 301 301 301 300 301 303 304 305 306 306 306 307 308 309 310 312 311 312 312 310 310 311 312 313 313 311 308 308 310 314 315 321
292 294 295 296 297 296 299 298 298 301 299 299 300 301 299 299 301 302 302 304 305 305 306 307 307 308 308 308 309 310 310 309 310 310 307 307 308 309 310 310 316 317 322 319
294 294 295 296 297 297 299 299 299 301 302 299 299 299 299 300 300 300 302 304 304 304 305 307 307 308 308 308 308 309 307 308 308 308 308 308 310 310 310 314 313 312 313 312
293 293 294 296 296 297 298 298 299 300 301 299 298 299 299 301 301 302 302 303 303 306 308 308 306 308 308 307 308 308 309 309 309 308 309 310 313 311 311 312 313 310 311 309
293 293 293 295 296 297 298 298 298 299 301 301 299 300 299 301 302 303 303 303 304 307 308 308 306 307 307 307 308 307 308 309 309 310 308 314 313 311 310 310 314 307 307 306
291 292 293 294 296 296 297 296 296 299 301 301 300 301 301 300 301 302 303 303 305 306 309 310 308 307 306 308 307 308 309 310 311 310 310 313 305 307 309 316 309 304 304 303
292 292 292 293 295 296 297 298 297 298 301 301 300 300 300 301 302 302 302 305 305 305 307 306 307 309 308 309 308 309 311 313 312 312 311 315 301 307 309 304 301 301 300 300
292 291 291 292 294 295 297 298 297 296 299 300 299 300 300 300 300 301 301 301 304 304 305 305 305 308 308 308 313 308 311 308 310 307 306 300 299 298 297 299 299 298 299 298
291 292 291 292 293 295 296 297 297 295 297 299 301 302 301 301 300 299 302 302 303 304 303 303 304 308 307 308 308 308 307 306 307 305 301 300 299 297 297 297 296 295 296 296
291 292 290 291 292 294 295 297 296 296 297 301 303 299 301 300 299 300 300 301 301 302 302 304 304 306 305 306 306 307 305 305 303 303 300 299 297 296 296 294 294 295 294 294
292 291 290 292 294 294 295 297 297 297 299 304 303 301 301 300 300 300 300 299 300 301 302 304 305 304 305 306 305 305 302 301 304 304 299 299 296 294 294 294 293 292 293 292
291 291 292 293 294 295 297 295 296 297 297 299 304 302 302 301 300 300 300 300 300 301 301 303 304 303 304 306 306 301 298 297 297 298 295 295 294 293 292 292 291 290 290 289
291 290 292 293 295 296 297 300 299 297 297 299 302 303 300 300 300 300 300 300 300 302 302 303 303 303 303 305 305 299 296 295 294 295 295 295 294 293 291 291 290 289 288 287
291 291 292 293 296 297 298 300 298 297 297 298 302 303 302 300 301 301 300 300 300 301 302 302 303 304 303 303 300 298 295 294 294 294 293 292 290 290 289 289 289 289 288 286
291 292 294 295 295 294 298 298 297 297 299 301 300 303 305 301 302 301 301 300 303 302 303 302 303 303 304 302 299 297 296 295 294 292 291 290 289 288 288 288 288 287 286 284
292 293 294 295 294 297 297 296 297 298 297 299 301 302 304 301 301 302 301 302 303 304 302 301 302 303 297 297 297 295 293 292 292 293 292 290 289 287 286 285 284 284 283 282
292 293 296 298 297 298 298 299 300 300 299 299 301 303 304 302 303 303 302 302 302 302 303 302 303 302 296 293 292 291 290 290 290 290 289 288 288 287 285 284 282 281 280 279
293 296 295 295 297 300 301 302 301 300 301 302 300 302 303 303 302 303 302 302 301 302 303 303 303 295 292 291 290 289 288 288 287 286 286 285 284 284 283 282 280 278 277 275
293 296 298 298 299 303 301 301 302 303 303 302 301 303 302 302 302 302 301 301 303 303 303 304 300 293 291 289 289 287 286 285 285 284 283 282 282 281 280 279 278 277 275 274
296 297 301 300 301 302 303 302 305 305 303 303 302 301 301 301 301 306 303 304 303 304 304 305 296 291 289 288 286 285 283 282 282 281 280 279 277 275 274 274 273 273 272 271
296 298 302 301 302 301 302 302 304 303 304 305 303 301 301 301 302 301 303 303 304 304 305 299 293 289 287 286 284 282 280 279 279 278 277 275 275 275 274 274 274 272 272 271
294 293 297 297 300 298 301 299 302 303 304 304 302 303 302 303 304 302 303 304 305 306 298 293 289 287 286 284 282 280 279 279 279 277 276 276 275 276 276 274 273 272 272 272
293 295 293 296 303 303 301 302 300 302 304 306 303 304 303 303 303 303 304 306 300 295 292 290 288 286 284 281 280 279 279 279 279 278 277 277 276 275 276 277 275 275 273 272

GFSNW_925_thetae_108.txt.gz
Theta_e
296 296 296 296 297 297 298 303 305 301 303 307 307 303 302 303 304 305 306 306 308 309 309 309 309 311 311 307 313 315 314 318 319 317 315 315 318 320 320 323 319 322 326 327
296 296 296 296 297 296 301 304 302 301 304 307 305 303 303 304 305 305 305 307 307 308 309 309 309 309 314 313 314 316 314 316 320 319 316 316 318 316 317 320 321 323 325 327
295 296 295 296 297 297 298 304 306 303 303 303 303 303 304 304 304 305 305 306 308 309 309 307 310 312 313 312 313 314 316 316 316 322 320 318 319 319 318 317 321 320 321 325
295 295 295 296 297 297 299 305 305 302 305 304 302 303 304 303 303 304 305 307 306 307 307 308 311 311 312 312 313 313 313 320 317 318 319 316 318 317 317 317 314 317 320 320
294 293 294 296 296 297 300 299 305 300 301 301 302 303 302 302 302 304 304 305 305 305 305 307 310 310 311 311 312 312 311 314 313 316 317 317 317 310 309 316 318 319 322 319
293 294 294 296 297 297 301 300 300 302 302 300 301 302 301 301 302 302 303 304 305 305 305 307 309 309 309 309 312 311 311 311 313 310 309 311 312 312 315 313 313 314 318 314
294 294 294 296 297 298 300 300 301 302 304 300 300 300 301 301 302 302 303 304 304 304 306 309 308 308 308 308 308 310 310 309 311 308 308 317 314 313 312 312 310 311 311 310
294 294 294 295 296 297 300 300 300 302 304 302 300 300 301 302 303 303 303 304 304 306 308 309 309 309 309 307 307 308 309 311 312 312 310 313 314 311 311 313 309 307 308 307
293 292 294 295 296 297 299 299 299 301 302 304 300 300 302 302 302 304 304 303 305 306 309 312 309 307 307 308 311 308 309 312 314 313 310 316 309 305 307 309 309 305 304 305
293 292 293 294 296 296 298 299 299 300 302 302 301 301 301 301 301 303 304 303 305 306 310 311 309 310 308 310 310 310 312 313 314 314 314 311 303 304 307 313 307 303 302 302
292 293 292 293 295 296 298 299 299 299 301 301 301 301 301 302 302 303 302 304 305 305 308 306 307 308 307 312 309 310 309 313 311 312 313 311 300 304 305 302 301 301 300 300
292 292 292 293 295 295 296 299 299 299 299 301 300 300 301 301 301 302 302 302 304 305 306 305 305 309 310 308 314 308 309 308 307 305 305 300 299 299 298 299 298 298 298 298
293 292 292 291 293 294 296 297 298 297 298 299 301 303 302 302 302 301 302 305 304 304 303 305 306 308 306 308 310 309 307 306 307 305 302 300 299 297 296 297 297 296 296 296
292 292 291 291 292 294 295 296 296 297 297 300 303 301 302 301 301 301 301 302 301 302 303 305 305 307 305 306 307 307 305 305 304 302 301 299 297 296 295 295 295 295 295 293
292 292 291 291 291 292 295 296 296 297 299 302 303 302 302 302 301 301 301 301 301 301 302 304 305 305 305 306 307 306 303 302 303 302 300 299 296 294 294 294 293 293 292 292
291 292 291 291 292 293 296 296 297 297 297 298 302 303 304 302 302 301 301 301 301 301 301 303 304 304 305 306 307 300 298 297 298 298 296 296 294 293 293 293 291 291 290 289
292 291 291 292 293 295 297 299 299 298 297 299 301 303 302 301 301 302 302 300 301 302 303 303 303 304 304 306 305 300 297 295 296 296 295 295 295 294 293 292 291 290 289 288
291 291 292 292 293 295 295 297 298 297 297 299 301 303 303 301 302 302 301 301 301 301 303 303 303 303 304 303 302 299 296 295 294 294 294 293 292 292 291 291 291 290 288 286
291 291 292 294 293 295 298 298 298 297 299 301 300 302 305 301 303 303 302 302 303 302 304 303 303 304 304 304 301 298 296 296 295 293 292 291 290 289 289 289 289 287 285 284
291 293 294 295 294 297 297 297 297 298 298 300 302 302 304 302 302 302 301 302 303 304 303 303 303 303 300 300 299 298 296 294 295 294 293 292 290 288 287 286 285 284 283 281
293 293 295 297 297 296 296 298 300 299 300 299 301 303 304 302 304 304 303 303 303 302 304 303 303 302 298 296 294 293 292 292 292 291 290 290 289 287 286 284 283 281 280 278
294 295 296 297 298 298 301 302 301 300 301 302 301 303 304 305 304 304 303 303 303 302 304 304 303 297 295 294 292 291 290 290 289 288 287 286 285 285 284 282 280 278 277 276
294 294 295 298 299 302 301 302 302 303 306 304 304 305 304 303 303 302 302 301 303 303 304 303 300 295 293 291 290 289 288 287 286 285 284 283 283 282 281 279 278 276 274 274
296 298 299 300 300 301 302 303 305 307 306 305 305 303 302 303 302 303 301 304 303 303 303 305 297 294 292 290 288 286 285 284 283 282 280 278 277 275 275 274 274 273 272 271
296 297 300 301 303 302 302 306 307 306 306 304 303 301 302 302 300 300 301 303 303 303 305 300 294 291 289 287 285 283 282 281 281 279 277 275 275 275 275 275 274 273 272 272
295 295 297 300 302 300 301 304 305 306 305 304 303 302 302 301 302 302 302 303 304 306 297 293 291 289 288 286 283 281 281 281 279 277 277 276 276 277 276 275 274 273 272 273
294 296 295 295 298 303 301 300 303 304 304 304 303 304 302 303 303 302 304 307 301 295 293 291 289 288 285 283 281 280 281 280 279 279 278 277 278 276 276 276 275 274 274 273

GFSNW_925_thetae_111.txt.gz
Theta_e
296 297 297 296 296 297 298 301 302 301 303 301 303 299 302 304 305 305 305 306 307 308 307 306 306 308 309 310 313 313 313 313 320 319 317 317 317 319 318 323 324 322 325 320
296 297 297 296 296 296 300 301 301 300 304 299 298 303 304 304 305 305 305 307 306 306 305 305 304 308 308 311 313 315 314 317 319 317 317 317 318 317 319 320 320 324 325 320
296 296 297 296 297 297 298 299 299 300 300 300 303 303 304 304 303 304 304 305 305 305 302 306 308 310 310 311 312 315 315 316 318 320 320 318 320 319 318 320 321 322 321 316
296 296 296 296 297 297 298 297 298 301 298 300 301 302 303 303 303 303 304 303 304 304 302 305 306 309 309 310 311 311 312 316 314 315 316 317 316 316 316 318 318 320 315 312
295 295 295 295 296 297 299 291 302 297 298 300 300 303 304 301 301 302 303 304 304 303 304 305 307 309 310 310 310 311 311 316 312 315 314 316 316 314 314 315 318 318 314 310
294 293 293 295 296 297 301 301 300 298 301 299 300 301 300 301 302 302 301 303 303 303 303 304 305 306 308 309 312 310 311 311 313 314 312 315 317 313 311 311 311 311 312 311
294 293 294 295 296 297 300 301 300 299 299 300 300 300 300 301 301 303 303 303 302 303 304 305 307 308 309 308 311 309 310 312 311 310 310 318 310 308 307 307 307 307 308 305
294 294 295 295 296 297 299 300 300 299 299 300 301 300 300 301 302 302 305 302 301 303 305 309 308 308 308 309 310 309 310 311 312 312 316 315 309 305 305 309 306 304 304 303
294 293 294 295 296 297 299 300 300 299 299 301 302 301 302 300 299 300 303 301 303 302 306 307 309 309 309 311 310 309 310 310 313 312 314 314 305 301 302 306 305 303 302 300
293 292 293 294 296 296 299 299 298 300 295 302 301 300 300 300 300 301 301 300 302 302 301 307 306 309 308 312 311 310 308 308 309 312 313 307 300 301 303 308 304 303 301 299
293 292 293 294 296 296 298 299 298 300 298 299 301 301 300 300 300 298 299 298 300 299 303 304 305 307 308 311 309 309 308 310 306 307 308 306 299 301 303 303 300 300 300 299
292 293 292 293 295 296 297 299 299 298 297 297 298 298 299 300 301 300 299 301 303 302 299 301 303 307 305 307 309 307 307 307 304 303 302 300 298 299 298 297 298 297 297 297
292 292 292 292 294 294 297 298 298 297 294 295 298 302 302 302 301 302 300 303 302 302 301 299 304 306 305 305 306 307 307 306 303 303 300 299 298 296 296 296 297 295 293 293
292 292 292 291 292 294 295 296 297 297 296 299 301 301 302 301 301 302 301 301 301 300 299 301 303 303 304 305 306 303 304 302 303 301 299 297 296 296 295 294 294 293 292 290
293 292 292 291 291 293 295 296 297 296 298 300 298 299 302 302 301 301 301 301 299 298 298 298 301 302 302 303 305 302 299 300 302 300 300 297 295 294 294 293 292 290 290 289
292 292 291 291 290 291 296 294 297 297 297 297 298 301 303 302 302 301 301 301 299 298 299 299 300 303 300 301 299 299 297 296 298 297 296 295 294 293 293 291 290 289 288 287
292 292 291 290 292 293 296 295 298 298 297 298 298 300 301 301 300 300 298 299 298 298 299 299 300 301 302 295 297 298 296 295 295 295 295 295 294 293 292 291 290 288 286 285
292 291 290 292 293 293 294 295 297 298 297 297 300 298 300 300 298 299 298 298 298 298 299 299 300 300 300 299 299 297 296 295 294 294 293 292 291 291 290 289 288 286 285 283
292 291 291 293 293 294 295 296 297 298 298 299 298 300 295 300 301 299 299 299 300 298 297 300 299 297 297 300 298 296 295 296 293 292 292 291 289 287 286 286 285 284 282 281
291 292 293 294 294 296 298 297 297 297 298 298 300 297 298 299 299 297 299 299 297 298 300 299 296 296 299 299 298 295 294 293 293 292 291 289 287 285 284 283 282 281 279 278
292 293 294 296 296 297 296 296 298 298 299 297 297 299 297 299 296 298 299 295 296 297 298 296 296 299 296 292 291 291 290 290 289 288 287 288 286 284 283 281 280 278 277 276
293 293 295 297 297 297 299 298 299 298 298 297 295 297 300 297 300 298 298 298 295 299 296 295 293 297 294 291 290 289 288 287 286 285 284 284 283 282 280 279 277 276 275 274
294 294 294 296 296 299 298 300 300 295 297 297 296 300 301 298 297 294 300 299 294 295 294 297 295 294 291 290 287 286 285 285 284 283 281 280 280 280 279 277 276 274 273 273
292 295 297 296 296 294 295 296 297 296 298 298 297 295 296 294 297 297 299 298 298 300 296 297 295 292 289 287 285 283 281 280 279 277 277 276 275 275 275 274 274 272 271 271
294 296 297 293 294 299 298 297 297 297 297 297 295 295 295 298 299 298 298 300 299 296 299 297 292 288 284 283 282 280 278 277 276 276 275 275 275 275 274 274 273 272 272 272
293 294 295 296 299 299 298 297 300 297 295 293 295 296 299 299 299 299 299 299 296 297 295 291 288 285 283 281 280 279 279 278 276 276 275 275 275 275 275 274 274 274 273 273
293 293 292 293 294 298 298 297 298 298 295 298 295 295 299 296 298 300 296 293 297 293 291 289 287 283 280 279 279 280 279 278 277 277 276 276 277 276 275 274 275 275 275 274

GFSNW_925_thetae_114.txt.gz
Theta_e
297 297 297 296 296 297 297 299 301 302 302 299 298 298 301 303 304 304 304 305 306 305 305 305 305 308 310 309 311 315 313 312 313 319 316 317 316 317 317 312 320 322 321 314
296 297 296 296 297 297 300 301 299 300 304 298 296 300 303 304 304 304 304 304 306 304 304 300 301 307 309 309 310 314 314 316 318 319 316 317 317 317 317 318 317 323 321 315
296 296 296 296 297 296 298 297 298 297 298 297 300 302 303 303 302 303 303 303 302 301 297 301 301 306 308 308 310 314 314 313 314 315 316 316 320 317 318 319 320 315 314 311
296 296 296 296 297 297 298 294 297 298 297 299 299 301 302 301 300 302 302 302 303 301 297 301 301 306 307 309 309 309 311 313 313 316 315 315 313 318 317 319 315 314 310 307
295 296 294 295 296 297 299 292 299 296 296 301 299 301 303 300 300 300 300 302 302 302 303 302 303 305 307 309 308 309 310 313 312 314 313 312 312 311 312 315 313 310 307 305
295 294 293 295 296 297 299 300 299 296 299 297 297 298 300 299 301 301 301 302 301 301 302 302 303 303 304 306 308 310 308 310 313 314 313 313 309 309 309 308 307 310 311 305
294 293 292 294 296 298 300 300 298 296 297 298 298 300 299 300 301 302 302 301 301 301 301 302 305 305 306 308 309 310 310 310 311 313 312 310 307 306 305 305 306 304 304 300
294 293 293 294 296 298 299 299 298 296 296 299 301 302 302 300 299 300 301 300 300 300 302 306 306 306 306 309 309 309 310 311 311 315 314 310 305 303 302 305 304 304 301 302
293 293 293 295 296 297 299 299 300 296 296 299 301 300 299 298 298 299 301 299 299 300 303 303 307 310 308 310 310 308 308 308 311 313 311 309 303 300 300 303 304 303 300 298
293 293 293 295 296 297 299 299 298 297 294 298 299 299 299 299 299 299 298 299 300 299 297 303 305 307 309 311 309 309 307 308 307 311 309 305 299 300 302 306 302 301 298 296
293 292 292 295 296 296 298 298 299 298 293 295 300 300 300 299 298 296 297 296 298 298 300 301 302 305 308 309 308 308 308 308 304 306 304 304 298 299 303 300 299 298 298 297
292 292 293 295 295 296 298 298 298 298 295 294 298 297 297 299 300 297 297 302 302 299 297 302 301 304 304 305 305 306 305 303 303 303 301 298 297 298 297 296 296 294 294 296
292 293 292 294 295 296 298 298 297 296 291 293 296 300 302 301 299 300 298 298 300 299 298 300 302 304 303 305 308 304 305 303 300 300 300 298 297 296 295 293 294 291 290 291
292 292 292 293 294 295 296 296 296 296 296 293 300 300 301 301 301 301 301 299 299 297 296 298 302 302 302 304 305 300 301 301 301 300 298 297 296 295 294 292 291 289 289 288
292 292 291 292 293 294 295 296 296 296 297 298 297 298 301 301 301 300 301 300 297 295 297 295 299 299 301 300 302 299 298 299 302 300 298 297 296 294 292 290 288 288 287 286
293 292 291 291 292 293 295 290 296 296 297 296 295 297 301 301 301 300 300 299 297 296 297 297 297 300 298 298 300 298 297 297 297 298 295 295 294 292 290 288 287 286 285 285
292 292 291 290 291 293 294 292 297 297 297 297 295 299 300 300 300 299 296 297 296 296 297 297 297 299 299 290 296 297 296 296 295 295 294 294 293 291 291 287 286 285 283 282
292 292 291 291 293 292 293 295 298 297 297 297 296 295 297 299 296 296 295 296 295 296 296 296 298 297 297 296 297 296 295 295 294 293 293 292 289 287 287 286 284 283 282 281
291 291 292 293 293 293 293 296 297 297 297 297 297 294 293 297 300 296 297 297 296 295 295 297 296 295 299 298 296 294 295 294 293 292 291 287 286 285 284 283 282 281 280 279
291 292 292 292 293 295 297 297 297 296 297 297 299 293 298 297 295 294 297 296 294 296 296 296 294 298 296 298 296 294 293 292 291 291 289 286 285 284 283 281 280 279 278 277
291 292 294 294 296 295 296 296 298 297 297 296 297 295 294 295 294 294 295 293 293 296 297 295 293 298 294 291 290 289 288 289 287 288 288 286 284 282 281 280 279 277 276 275
291 293 295 296 297 296 298 296 297 296 297 293 293 294 297 293 296 295 296 296 292 298 294 295 291 292 291 290 288 286 286 285 284 284 284 283 282 280 279 278 277 275 275 274
294 293 294 295 295 297 297 298 299 292 291 292 293 295 299 296 293 290 296 297 291 292 297 294 293 292 290 288 286 284 283 282 281 281 281 280 279 279 278 276 275 274 273 273
289 293 294 294 295 295 292 295 293 292 291 294 292 292 299 295 293 293 291 291 296 299 296 295 289 291 288 286 284 283 281 280 279 278 278 277 277 276 276 276 274 273 272 272
291 294 292 294 291 291 295 296 294 291 293 294 293 292 292 292 298 298 295 300 301 296 293 290 289 287 284 283 281 278 276 275 275 275 275 274 275 274 274 273 273 272 272 272
290 291 291 295 297 298 297 296 298 289 291 289 292 294 292 297 295 298 297 298 294 291 289 283 285 284 282 280 279 277 276 276 275 275 275 275 274 274 274 273 273 273 273 273
291 291 292 293 293 296 297 296 297 296 294 290 293 291 294 294 297 298 298 291 288 293 288 282 283 281 279 277 277 277 276 275 275 275 275 275 275 275 274 273 274 274 274 274

GFSNW_925_thetae_117.txt.gz
Theta_e
297 297 297 296 296 297 297 300 301 301 301 299 296 298 302 302 303 303 304 304 305 302 302 305 305 306 307 308 309 312 313 313 313 314 313 315 315 313 312 311 314 319 314 310
297 297 296 296 297 297 300 300 299 300 303 300 296 300 303 303 303 303 303 303 303 302 298 300 300 304 306 307 308 311 313 316 314 315 316 315 316 316 316 316 317 317 317 311
297 296 296 296 297 298 300 298 298 297 298 296 299 301 302 302 301 302 302 302 300 299 296 300 300 303 306 306 308 311 313 314 314 315 316 315 318 316 317 315 314 312 310 307
297 296 296 296 297 297 300 295 297 298 297 298 298 300 302 300 299 300 301 300 302 299 295 297 300 301 305 305 308 307 311 314 311 310 311 311 313 319 316 315 313 311 307 303
296 296 296 296 296 298 299 297 299 294 298 299 299 300 301 299 299 299 299 301 301 301 301 300 301 302 304 305 306 307 308 313 311 311 308 306 307 308 310 309 306 305 303 301
296 296 295 296 296 298 299 298 297 296 298 296 297 298 300 298 300 300 301 301 301 301 300 300 301 301 302 304 305 307 308 310 313 314 311 311 306 306 306 305 306 308 305 300
296 295 294 296 297 300 300 299 297 296 297 298 297 301 299 300 301 301 300 300 301 301 299 300 302 302 303 304 306 305 310 310 310 313 313 308 305 302 304 303 303 303 300 298
295 294 294 296 297 299 300 299 297 296 298 299 300 301 300 298 298 299 301 300 299 297 300 305 305 305 306 308 307 306 307 310 314 313 309 308 304 301 302 304 303 301 301 298
294 293 294 296 298 299 299 299 299 296 297 299 300 298 299 298 298 298 299 299 297 298 299 301 306 309 308 309 307 306 306 306 312 312 310 309 303 299 300 301 302 300 297 296
293 293 294 296 297 299 298 298 299 296 295 297 298 298 298 297 297 298 296 298 299 297 296 302 304 307 308 307 308 309 306 306 306 309 308 304 298 299 302 306 301 300 296 294
293 293 294 296 297 299 298 298 298 297 293 295 299 300 299 297 296 295 296 294 297 296 298 301 301 304 306 309 306 307 304 305 304 305 303 304 297 299 302 299 297 298 297 294
292 293 295 296 296 298 298 298 298 297 294 294 298 298 298 299 298 296 297 301 299 298 296 300 299 301 302 304 304 304 303 301 302 301 300 297 296 297 296 295 292 291 294 294
292 293 295 295 296 297 297 297 297 296 291 293 296 299 300 299 298 299 297 296 299 298 296 298 299 302 301 303 303 304 303 301 300 299 299 297 296 294 292 291 289 289 290 289
292 293 295 295 296 297 297 297 296 296 293 297 300 299 300 301 301 300 300 298 297 295 294 297 298 300 301 303 303 300 299 300 297 298 297 296 295 293 291 289 288 288 288 286
292 292 293 294 295 296 296 296 296 296 295 294 296 298 301 300 300 300 300 299 295 294 296 294 298 298 300 299 299 298 297 299 299 298 296 296 295 292 289 288 287 286 286 284
292 292 292 293 294 295 295 291 296 296 296 292 295 295 298 301 300 300 299 297 295 294 296 296 295 297 297 297 298 297 297 297 297 298 296 295 294 289 287 286 285 285 284 283
292 291 291 292 293 294 293 292 297 296 296 293 291 299 300 300 299 298 294 295 294 294 295 296 296 297 296 289 297 297 296 295 295 294 293 293 292 288 286 285 284 283 281 281
292 291 291 291 292 294 294 296 297 297 296 295 294 295 297 297 295 295 293 295 294 294 295 294 297 296 295 296 296 296 295 295 294 293 292 289 288 286 285 284 283 282 281 280
291 291 293 293 292 292 293 297 297 297 296 297 290 294 293 295 297 295 294 294 291 293 294 296 295 294 295 298 296 294 295 295 293 290 288 287 286 284 283 282 282 281 280 279
291 292 291 291 292 295 296 296 296 295 297 297 297 291 300 296 293 292 293 291 293 295 295 294 293 296 295 295 296 294 293 291 290 288 287 286 285 284 283 282 280 279 278 277
291 291 293 293 296 296 295 296 297 296 298 296 296 294 293 294 293 293 292 292 292 297 296 295 292 298 291 291 290 290 291 290 289 288 286 286 284 282 281 280 279 278 277 275
291 293 295 296 296 296 296 295 297 297 296 293 294 294 295 292 294 294 294 294 291 297 292 296 292 288 288 288 288 286 286 286 286 286 284 283 282 281 280 278 277 276 275 274
293 294 294 295 295 296 294 293 297 296 290 290 291 293 298 293 291 289 295 291 290 290 298 292 291 288 288 287 286 285 283 283 282 282 282 281 280 279 278 276 275 274 274 273
289 289 294 294 294 292 292 294 293 291 289 291 291 296 296 292 293 289 290 290 294 296 295 294 288 289 287 286 286 284 281 281 281 280 279 279 278 277 277 276 275 275 274 273
290 293 294 294 290 290 295 294 296 294 289 291 292 291 292 289 293 295 290 294 297 294 292 288 283 286 285 284 281 279 277 276 275 277 276 276 276 275 275 275 274 273 273 272
290 290 290 292 296 296 295 296 298 293 288 288 292 292 289 291 291 296 295 295 291 290 285 282 284 284 282 281 279 278 277 277 275 276 276 275 275 275 275 274 273 272 273 273
291 290 285 284 292 294 295 296 296 292 290 289 292 291 293 293 293 293 294 289 287 285 291 278 280 282 279 277 276 276 276 275 275 275 275 275 275 274 274 273 273 273 273 273

GFSNW_925_thetae_120.txt.gz
Theta_e
296 296 297 297 296 297 298 299 301 300 302 301 297 300 300 303 303 302 304 303 303 300 300 301 300 304 307 306 307 309 310 314 313 312 311 312 315 312 311 310 310 315 308 306
296 296 296 297 297 297 300 299 299 300 301 303 298 300 303 303 302 302 302 303 302 299 296 296 294 301 304 305 306 310 311 315 315 310 313 314 315 315 315 313 313 315 312 307
296 297 298 298 297 298 300 298 298 298 298 297 300 301 301 302 301 301 301 301 299 297 292 295 295 302 304 304 305 308 312 312 309 309 310 313 313 315 315 313 310 308 307 303
297 298 297 296 297 298 299 294 298 299 300 299 299 300 301 300 299 299 300 300 301 298 295 295 298 300 302 304 306 306 310 313 311 309 307 308 308 312 313 311 310 307 303 300
297 297 297 297 297 298 297 297 298 296 299 298 299 301 300 299 298 298 298 300 301 300 300 298 299 300 302 304 305 305 309 312 312 310 312 306 304 304 307 307 305 303 301 298
297 296 296 296 297 298 298 297 296 297 297 297 299 300 300 298 298 300 300 300 300 300 299 298 298 299 300 303 304 305 308 310 311 310 309 307 304 304 303 303 302 304 302 298
296 296 296 296 297 300 299 298 296 297 298 297 298 300 298 299 300 300 300 299 300 300 297 298 299 299 300 301 303 303 307 311 309 312 311 308 304 303 303 301 301 300 297 296
296 294 295 296 299 299 300 299 297 297 299 299 300 300 299 298 298 299 300 299 298 296 299 304 305 304 305 307 306 304 306 308 313 310 308 307 305 300 302 303 301 299 299 296
294 293 295 297 299 299 300 298 298 297 299 299 300 298 298 298 298 297 298 297 297 297 298 300 307 307 308 309 306 305 305 305 312 309 310 308 301 298 299 301 302 297 296 294
293 292 295 297 299 298 299 298 298 298 297 297 297 297 298 296 297 297 296 297 297 296 295 301 304 306 307 307 306 306 305 305 306 308 306 303 297 298 300 305 300 296 293 291
293 293 295 297 299 298 298 297 297 298 295 295 298 299 297 296 295 294 294 293 295 295 297 300 301 303 305 305 305 305 302 304 304 306 304 304 297 299 301 299 296 296 292 292
292 293 296 296 298 298 297 297 297 297 294 295 298 298 298 299 297 295 295 297 298 297 294 296 298 301 300 303 301 302 303 300 301 300 299 296 294 295 294 291 291 292 292 289
292 294 296 296 298 298 297 297 296 296 293 295 297 299 299 298 299 299 297 295 297 296 294 298 295 301 300 303 302 304 302 300 299 299 297 295 293 291 290 289 289 290 288 287
292 295 296 296 297 297 297 297 296 296 293 298 299 299 299 300 298 299 299 297 296 294 293 296 297 299 299 301 301 299 298 298 297 298 297 295 292 290 289 288 288 287 286 285
293 295 295 296 297 297 297 296 296 297 296 295 297 298 299 300 300 300 299 298 294 293 295 294 297 297 299 298 297 298 297 298 298 293 295 294 293 289 288 288 287 286 284 283
293 294 295 295 296 296 296 292 296 296 296 294 296 295 299 300 299 299 298 296 293 293 295 295 295 295 296 294 294 297 297 297 297 297 295 293 290 287 286 286 285 284 283 281
292 293 294 295 295 295 293 293 296 296 296 291 293 300 299 299 298 296 293 294 292 293 294 296 295 296 294 288 295 296 295 295 295 293 292 291 289 287 285 284 283 282 281 280
293 292 293 294 295 295 296 296 296 296 296 292 293 298 300 297 295 295 292 294 293 293 294 293 297 295 294 295 295 295 295 294 294 293 292 290 286 285 283 282 282 281 281 280
291 291 291 292 293 292 296 297 296 297 295 292 288 298 298 294 294 293 293 292 290 291 291 296 295 293 296 296 295 294 294 295 292 289 287 286 285 284 283 282 281 281 280 279
292 292 291 286 293 296 296 296 292 291 296 294 292 290 293 294 292 292 291 289 292 295 294 293 292 293 294 295 294 294 292 292 289 288 287 286 285 284 283 282 281 280 279 278
291 290 293 293 295 295 295 295 293 293 296 295 294 293 293 293 293 292 291 292 291 295 295 296 292 297 292 291 293 293 290 290 288 288 287 286 285 283 282 280 279 278 277 276
292 294 295 296 296 296 294 295 297 296 296 293 294 293 294 291 292 294 293 293 290 296 290 296 295 289 289 289 290 291 289 289 288 287 285 284 283 282 281 279 277 277 276 274
294 295 294 292 294 292 291 296 297 297 291 289 291 292 297 290 290 288 294 289 290 289 297 291 291 287 288 287 286 286 285 286 285 283 283 282 281 280 279 277 277 275 274 273
290 290 291 288 292 291 292 294 292 290 288 290 288 291 293 289 292 286 290 288 290 286 289 292 287 287 287 286 286 285 283 282 282 281 280 280 279 278 278 277 276 275 274 273
290 290 294 294 288 290 293 291 295 293 287 290 290 290 291 286 290 289 288 290 291 291 290 287 283 284 285 283 282 279 278 277 277 278 277 277 277 276 275 275 275 274 273 272
288 289 289 290 294 295 295 296 297 291 287 288 291 290 288 290 290 292 289 293 290 289 285 282 281 283 282 280 279 278 278 278 276 277 277 276 276 275 275 274 273 273 273 273
289 287 288 290 289 291 295 296 296 289 293 294 290 289 292 291 290 292 290 287 286 283 283 284 278 280 279 277 278 277 277 276 276 276 276 276 275 274 273 272 273 273 273 273

GFSNW_925_thetae_123.txt.gz
Theta_e
300 300 299 298 296 296 298 300 302 299 300 303 299 301 302 304 303 303 304 304 303 303 303 304 303 305 307 306 306 308 309 312 313 313 311 311 313 314 313 315 314 315 313 306
296 296 296 296 296 297 300 301 300 299 300 303 302 300 303 303 303 303 303 304 302 300 300 301 299 302 303 304 305 309 310 311 311 308 310 308 314 315 316 313 313 313 316 306
296 295 295 295 297 299 299 299 301 299 300 298 301 303 302 302 301 302 301 301 300 299 297 298 298 303 303 304 304 307 310 309 307 308 308 307 310 312 313 315 314 308 305 301
296 296 297 298 298 299 298 297 299 302 303 301 301 302 301 301 301 300 300 302 301 300 297 299 299 301 302 303 306 306 310 314 312 309 307 305 305 308 309 307 309 309 302 299
297 297 297 298 298 298 296 299 299 298 300 301 302 302 300 300 298 300 300 301 301 301 301 299 300 301 302 305 306 306 309 312 312 310 309 306 304 304 305 305 303 301 300 297
298 297 297 297 297 298 297 296 296 299 298 299 302 302 300 299 301 301 300 301 301 301 300 300 300 300 301 302 303 305 308 311 312 312 310 308 305 303 303 302 301 304 302 298
296 297 296 296 297 299 299 298 296 299 299 299 300 300 299 300 300 301 300 300 301 299 298 299 300 300 300 301 302 302 307 309 311 312 312 309 305 303 301 301 301 298 297 296
295 295 296 296 299 299 299 298 297 298 300 299 300 300 299 299 299 300 300 299 297 297 299 305 306 306 306 306 305 305 305 307 312 311 309 307 305 300 302 303 300 298 299 296
294 295 297 299 299 299 299 298 297 298 300 300 299 299 299 299 299 298 299 297 296 298 300 304 308 307 308 309 306 305 305 306 312 309 310 309 301 298 299 301 302 296 294 295
294 295 297 299 299 299 299 297 297 298 299 298 298 299 299 297 297 298 297 298 299 297 301 305 306 308 307 307 305 305 304 305 307 308 307 303 297 298 300 306 302 294 293 291
293 295 297 298 298 298 299 296 297 298 297 297 298 298 298 297 296 297 296 297 298 298 301 303 303 306 306 306 304 305 303 305 304 306 306 306 296 300 302 299 296 294 292 290
293 295 296 298 298 297 297 297 296 298 297 297 297 297 298 297 296 297 297 298 299 299 300 300 301 305 303 305 304 302 303 301 302 301 300 296 294 295 294 295 295 293 291 289
293 295 296 298 298 297 297 296 296 298 297 298 298 299 298 298 298 299 299 297 298 298 296 300 301 304 302 305 303 303 302 300 299 299 297 295 293 291 291 292 293 291 289 288
294 295 296 298 297 297 296 296 296 297 296 300 300 298 298 298 298 299 298 297 295 295 296 299 300 304 301 304 302 302 300 299 299 298 297 294 292 291 290 289 288 287 286 286
295 296 296 297 297 296 296 296 296 297 297 300 300 297 298 299 300 299 298 296 296 296 298 299 301 300 301 301 299 300 298 298 299 299 297 296 293 290 289 289 287 286 285 284
295 296 296 296 296 296 296 294 296 296 296 298 301 295 299 298 299 297 296 296 295 296 298 298 297 296 299 301 301 298 297 297 298 297 295 294 291 289 287 287 286 284 283 282
295 295 296 296 295 295 294 295 295 296 296 297 300 301 298 298 298 295 295 294 295 296 297 299 298 299 298 298 302 297 297 296 295 292 291 290 289 288 286 285 284 283 281 281
295 294 294 296 296 296 296 296 296 296 294 294 299 300 300 297 296 298 293 296 295 296 297 297 300 298 298 302 297 296 296 294 293 293 293 291 288 286 285 283 283 282 282 280
293 294 294 294 294 295 296 296 296 297 295 295 295 300 301 296 296 295 295 294 298 293 298 298 298 298 301 300 297 296 295 295 293 290 288 287 287 285 284 283 283 283 282 280
291 293 291 290 294 296 296 296 293 293 295 295 295 292 300 296 295 295 296 293 297 300 298 295 299 301 295 296 296 295 295 293 290 290 288 287 286 285 284 284 283 282 281 280
291 291 292 293 296 295 295 293 293 295 295 295 294 295 298 294 298 297 293 297 296 299 299 300 299 299 296 294 295 294 293 291 291 291 290 288 287 286 284 283 281 280 279 278
292 293 295 296 295 296 295 296 296 296 297 295 296 295 296 295 294 298 295 297 295 299 294 299 299 297 292 293 294 294 291 289 289 288 287 286 286 285 283 282 280 278 277 276
295 294 295 293 294 295 293 296 297 297 294 293 294 296 297 294 294 293 296 296 296 293 299 297 297 291 290 291 291 291 290 289 287 285 285 284 283 282 281 279 277 276 275 275
290 290 295 291 292 293 292 295 295 292 292 293 293 295 297 292 295 290 296 292 293 294 296 296 295 291 290 289 288 288 288 285 285 283 282 281 280 279 279 279 277 276 274 273
291 290 291 293 290 290 293 292 295 293 290 293 294 294 294 291 292 291 292 295 296 295 296 295 292 287 287 286 285 284 282 280 280 280 279 278 277 277 275 276 276 276 274 273
289 289 292 292 295 295 296 296 297 291 291 291 293 293 293 294 293 294 294 295 295 295 292 290 286 285 285 284 283 281 280 279 278 278 278 277 276 276 275 275 274 274 273 273
289 290 290 291 291 294 296 296 296 289 294 294 293 292 293 293 294 294 293 294 293 291 290 291 285 284 283 280 279 278 278 277 277 277 277 276 276 275 273 272 273 273 273 273

GFSNW_925_thetae_126.txt.gz
Theta_e
305 303 302 300 298 299 300 299 301 298 301 306 305 305 303 305 305 305 305 305 306 308 307 309 310 310 310 308 308 311 310 314 315 313 311 313 313 314 312 315 316 315 319 312
302 302 300 298 299 300 299 299 299 299 301 306 306 303 305 305 304 305 304 305 306 305 309 312 310 307 306 306 308 310 312 314 314 311 313 309 310 314 316 317 317 320 320 311
297 298 298 299 298 299 299 300 302 300 302 303 303 304 305 304 304 304 304 305 305 305 305 303 306 306 305 305 307 307 311 311 312 313 309 307 308 309 312 314 322 317 309 304
297 297 297 298 298 298 298 300 302 301 304 305 304 305 304 304 303 303 304 304 304 305 304 304 305 304 305 306 307 309 311 314 310 309 309 307 307 307 309 310 311 313 305 301
297 297 297 297 298 299 300 302 303 304 305 304 305 304 305 304 302 303 303 304 304 304 302 302 303 304 307 310 309 311 310 313 314 314 311 308 306 306 308 306 304 302 301 299
295 295 296 298 298 298 300 298 299 303 304 305 305 305 304 302 302 302 303 304 304 303 303 302 302 303 304 306 308 310 311 311 313 317 311 311 309 305 306 304 304 305 306 300
297 297 298 298 297 298 299 299 301 304 304 304 304 303 302 303 303 303 303 303 302 302 301 303 304 304 304 306 307 307 309 310 311 315 314 315 306 304 302 303 302 301 299 298
297 297 297 297 297 299 299 299 302 303 306 304 303 302 302 303 303 303 302 301 301 302 303 309 309 310 310 309 308 309 308 309 313 315 313 308 306 304 305 306 301 299 300 298
296 296 297 298 299 299 299 298 299 304 304 304 302 303 302 303 303 303 302 300 301 302 302 308 307 308 308 310 309 307 307 308 311 312 313 313 306 301 300 302 306 298 298 299
295 296 299 299 299 299 300 298 298 303 304 301 302 302 302 301 301 301 301 301 303 301 304 309 308 309 309 310 307 308 307 308 312 311 311 306 300 300 301 308 305 297 296 297
295 297 298 298 298 298 298 298 298 303 303 302 301 301 301 301 301 301 301 302 302 303 306 307 308 309 309 309 306 306 306 309 310 310 311 311 298 301 306 301 298 297 296 295
295 296 298 298 298 298 297 299 298 300 302 301 299 298 298 299 299 301 300 303 303 303 305 305 307 308 308 308 309 304 307 305 307 305 305 298 297 299 299 299 298 296 295 293
294 296 298 298 297 297 298 299 300 301 303 302 301 301 299 299 299 299 302 302 302 302 302 307 307 308 307 309 307 306 303 302 303 302 298 297 296 296 296 297 296 294 293 292
295 296 298 298 297 297 297 298 297 302 303 304 302 299 300 298 300 300 301 301 300 301 302 304 306 307 306 306 306 306 304 303 301 299 297 297 295 295 295 294 293 291 290 290
295 296 297 297 296 296 297 297 297 297 302 303 302 301 299 300 300 300 300 300 301 302 302 304 306 305 305 305 305 306 303 303 305 306 300 299 297 294 293 292 291 290 289 288
296 296 297 296 296 296 298 301 298 298 301 302 303 300 301 300 300 300 300 300 301 301 302 303 303 303 304 305 306 302 301 300 301 301 299 297 295 293 292 291 290 288 287 286
296 296 296 296 296 296 299 300 298 296 299 303 302 302 301 300 300 299 300 300 300 301 301 301 302 304 304 305 305 301 300 299 299 298 295 294 293 292 290 289 287 286 285 284
296 296 296 296 296 297 297 297 296 296 299 302 302 303 302 299 300 301 299 300 300 300 301 302 302 303 303 304 302 301 299 298 298 297 296 296 293 290 289 287 286 286 285 283
295 296 295 295 296 298 297 296 296 296 300 302 302 303 303 300 300 300 301 300 302 300 302 302 302 303 303 302 302 300 299 298 298 296 294 293 292 290 288 288 287 286 285 283
294 293 295 298 297 296 296 298 300 300 299 299 301 300 302 301 301 300 301 301 301 302 302 301 303 303 302 301 301 300 299 298 296 295 294 293 292 290 289 288 287 287 285 283
293 295 294 294 296 297 298 299 300 299 300 299 299 301 301 299 302 301 300 302 301 302 303 302 303 303 302 300 300 299 298 297 296 296 295 293 292 291 289 288 286 285 283 282
294 295 296 296 297 297 298 299 298 299 299 298 301 301 301 300 300 301 300 302 301 302 301 301 303 303 299 299 299 298 297 296 295 294 293 292 291 290 288 287 285 284 282 280
295 296 296 298 296 297 299 299 299 299 298 298 300 301 301 300 301 301 301 302 302 300 302 302 302 299 297 299 299 298 296 294 293 293 291 290 289 288 287 285 283 280 278 276
296 296 296 297 297 298 298 299 299 297 298 298 301 300 303 300 300 300 302 299 300 301 301 301 302 298 296 297 297 296 294 293 292 290 289 287 285 284 282 281 279 278 275 274
295 295 296 296 295 296 296 296 297 295 298 299 300 300 301 300 299 299 299 300 301 301 301 302 300 294 293 293 293 293 291 289 288 286 284 282 280 280 278 278 277 277 275 273
294 294 296 295 298 298 298 299 298 295 298 297 300 299 301 300 300 300 301 300 300 302 301 299 296 292 291 292 290 290 288 287 286 285 282 280 279 278 278 276 275 275 274 273
293 295 293 294 297 298 298 297 296 295 298 303 299 300 299 298 299 299 299 301 301 301 299 296 292 291 290 289 287 284 284 284 284 282 281 280 278 276 275 276 274 274 274 274

GFSNW_925_thetae_129.txt.gz
Theta_e
310 313 312 309 303 302 303 302 301 300 300 303 305 310 312 307 306 306 307 308 308 311 310 311 312 312 312 311 311 312 312 317 318 315 313 313 314 314 316 317 317 318 321 316
308 304 303 301 302 303 300 299 300 299 301 308 308 309 308 306 306 307 307 307 308 310 315 315 314 312 311 310 311 312 313 316 318 316 317 312 311 312 313 314 321 321 323 314
302 302 301 302 302 302 299 301 301 300 299 303 307 309 307 306 306 306 307 308 307 308 309 307 311 311 308 308 310 308 311 313 316 318 315 310 310 309 310 313 319 322 314 306
299 299 298 300 300 300 300 304 304 303 305 306 307 305 306 306 306 305 307 307 307 307 308 308 308 309 308 308 308 310 313 315 314 311 310 309 308 309 309 314 314 316 308 304
297 297 298 298 298 299 300 301 305 303 305 306 305 306 306 305 305 305 306 306 307 306 306 307 307 309 310 312 311 312 312 315 313 314 311 309 308 309 310 308 307 306 304 302
298 297 298 298 299 300 301 302 303 305 306 306 306 307 305 304 304 304 305 306 306 305 304 305 307 308 310 311 311 312 312 315 314 318 313 312 313 307 308 306 307 307 309 302
298 297 298 299 298 299 302 303 304 306 306 305 306 304 305 305 304 305 305 305 305 305 304 306 306 306 307 308 309 310 312 312 312 318 314 316 308 305 305 305 304 303 301 300
296 296 298 298 298 298 302 301 304 305 307 305 305 304 305 305 305 305 305 304 304 304 305 310 311 311 311 310 310 310 310 311 313 315 316 309 307 306 306 308 304 302 302 300
298 297 297 297 298 299 301 301 302 307 307 305 305 305 304 305 306 305 304 303 304 304 304 309 307 309 308 311 310 309 309 310 313 314 314 316 311 306 304 305 309 302 302 300
296 297 298 298 299 299 302 302 304 307 308 306 305 305 305 304 304 304 305 304 304 304 305 309 307 308 308 310 310 311 311 311 312 314 314 310 305 304 304 309 308 300 301 301
296 297 299 299 298 298 302 302 304 306 307 305 304 304 304 304 304 305 304 304 304 303 306 306 307 309 309 310 308 308 309 310 311 311 312 313 303 304 307 304 301 299 299 298
296 298 298 298 297 297 302 303 303 304 305 305 302 301 302 302 303 304 304 304 303 304 305 306 308 310 310 309 312 306 309 308 311 308 307 300 301 304 302 301 300 299 298 296
296 298 298 297 297 298 302 303 303 303 306 304 303 303 301 302 303 303 303 304 305 305 307 308 309 309 308 310 309 309 306 305 307 305 300 299 299 300 300 299 299 297 296 295
296 298 298 297 297 300 302 303 304 303 304 304 302 301 301 302 302 303 304 304 304 305 307 307 308 308 308 308 309 308 308 306 304 302 299 299 299 299 298 297 296 294 293 293
296 298 297 296 297 299 301 302 302 303 305 304 304 301 302 301 301 302 302 303 305 305 305 308 307 306 307 307 307 308 306 306 306 309 302 303 300 298 297 295 294 293 292 291
297 297 296 296 298 300 302 303 302 302 302 304 304 302 302 301 301 301 301 302 303 303 304 305 306 306 308 307 307 307 305 304 304 304 302 302 299 297 296 294 293 291 291 290
297 297 296 296 296 298 302 304 301 301 303 304 303 303 302 301 301 302 302 302 302 303 303 303 304 305 305 307 306 305 304 303 302 302 300 299 298 297 295 293 291 290 289 288
296 296 296 296 298 299 300 298 297 301 303 303 304 304 303 301 302 303 302 302 302 303 303 302 303 304 304 304 305 304 303 302 301 299 300 299 297 295 293 291 290 289 288 287
296 296 296 298 299 301 299 296 300 301 304 305 305 304 305 302 302 302 302 302 305 302 304 304 303 305 304 303 303 303 302 302 300 300 299 298 296 294 293 291 290 289 288 286
295 296 297 301 299 297 299 301 303 304 302 303 305 304 304 303 303 303 303 303 303 304 304 303 304 305 305 302 302 302 302 301 300 299 298 296 295 294 292 291 290 289 287 286
296 298 298 297 297 300 301 303 303 303 303 303 302 303 303 302 304 303 303 304 303 304 305 304 305 305 305 303 302 302 301 301 300 299 298 297 295 294 293 292 290 289 287 285
296 297 298 298 299 300 303 301 301 301 302 302 304 303 302 303 303 303 303 303 303 304 303 304 305 306 302 302 302 302 301 299 299 298 297 296 295 293 292 291 289 288 286 284
297 298 298 300 299 301 302 301 301 303 301 302 303 304 303 303 303 304 303 305 305 303 303 304 304 302 301 302 302 301 299 298 297 296 295 294 293 292 291 290 288 285 284 281
297 301 299 301 300 301 301 301 303 300 301 303 305 304 304 303 303 303 304 302 303 304 304 303 305 302 300 301 301 300 299 298 297 295 294 293 292 289 288 287 284 283 280 278
298 299 298 298 298 298 298 298 299 299 302 303 303 303 304 303 302 302 301 302 303 303 303 307 305 298 298 299 299 297 295 293 292 291 289 287 286 284 284 282 281 280 277 276
296 296 297 298 299 299 300 301 298 299 303 303 302 303 304 303 303 302 303 301 301 304 306 304 301 296 295 296 295 295 292 292 290 289 287 285 283 283 283 280 280 277 276 275
296 297 296 299 300 299 298 299 299 300 302 304 302 303 302 301 302 302 301 303 305 304 304 301 294 293 293 293 292 290 290 290 289 287 286 284 283 282 280 280 278 277 276 276

GFSNW_925_thetae_132.txt.gz
Theta_e
301 303 306 309 311 312 305 303 303 302 302 304 305 309 309 310 315 311 309 309 309 311 311 311 311 310 310 311 311 313 313 317 319 315 313 314 315 316 317 320 318 318 322 314
304 306 309 311 312 306 303 301 302 303 302 309 306 308 310 312 314 309 308 309 310 311 317 314 315 312 312 312 312 313 313 317 315 316 315 313 313 315 313 316 317 319 321 312
301 302 303 307 305 304 301 301 302 301 302 302 307 309 311 312 310 309 308 309 309 311 315 310 313 312 311 311 310 310 313 314 316 321 317 313 311 309 309 311 316 319 315 305
299 299 299 299 299 300 301 306 303 302 303 303 308 309 313 310 309 308 307 310 309 310 310 309 310 312 310 309 309 310 312 316 315 313 310 310 309 309 309 313 315 319 310 306
298 297 298 299 300 301 301 305 304 303 304 305 309 311 312 309 308 308 309 309 309 308 309 309 309 311 310 310 310 310 313 315 313 313 311 310 308 309 307 308 309 308 305 301
298 297 297 297 299 300 301 304 305 307 305 308 311 311 309 309 308 306 307 306 308 308 307 307 308 310 310 311 312 313 314 314 313 314 313 313 314 308 309 308 308 308 308 303
299 298 297 298 298 301 301 304 307 308 308 309 309 307 308 308 305 306 306 307 308 305 306 307 308 308 310 311 312 313 314 314 314 316 314 317 308 307 307 306 305 303 301 300
298 298 297 299 298 298 302 302 305 305 309 308 307 306 306 306 304 306 306 306 306 305 307 309 309 310 310 310 310 310 311 313 315 314 316 309 307 306 306 308 306 304 302 300
297 298 297 298 298 299 302 303 303 306 307 307 306 307 306 307 307 307 306 305 305 305 308 311 309 310 309 310 309 310 309 310 313 315 315 316 311 307 306 307 309 304 302 301
297 296 296 298 299 300 300 303 302 307 309 306 307 308 308 306 306 307 305 305 304 306 308 312 310 310 308 312 311 311 311 312 313 314 312 311 307 306 305 309 310 303 303 301
296 297 298 298 299 298 299 305 306 307 309 307 307 307 307 307 307 307 306 306 305 306 307 308 308 312 310 310 310 312 311 313 313 312 311 314 305 305 308 305 303 302 303 302
297 297 298 298 299 297 298 304 305 306 307 305 303 303 304 304 306 307 306 305 306 304 307 307 309 311 312 308 313 308 310 309 313 308 307 303 303 305 304 302 301 300 299 297
296 297 298 298 297 298 301 305 304 304 306 306 304 304 303 303 304 305 306 306 306 306 309 311 312 310 308 312 311 309 308 306 309 306 301 301 302 302 302 301 300 299 297 295
296 298 298 297 300 302 304 305 305 304 304 306 303 302 302 303 303 305 305 306 306 307 309 309 309 310 309 310 311 311 309 307 306 303 301 300 300 301 300 299 297 296 296 295
296 298 297 297 301 303 304 305 305 305 305 305 304 302 302 302 302 303 304 305 307 307 307 309 308 308 307 307 308 308 308 307 307 308 302 303 301 300 298 296 295 294 294 293
297 298 296 300 302 302 303 301 304 303 302 305 304 302 302 302 302 303 304 305 305 305 305 307 307 308 309 310 307 307 306 306 306 306 302 303 301 299 297 296 295 293 292 292
298 296 296 296 297 301 304 304 302 303 303 305 305 303 302 302 302 302 302 302 304 304 304 305 305 306 305 310 307 306 305 304 304 303 302 301 299 298 297 295 293 292 291 290
297 296 297 299 300 301 301 299 301 303 305 304 305 304 303 302 304 303 303 303 304 305 304 303 304 305 305 306 307 305 304 303 302 302 301 300 299 297 296 294 292 291 290 289
296 298 299 300 301 302 300 299 301 303 304 305 306 304 304 303 304 303 303 304 308 303 306 305 303 306 305 304 304 304 303 303 302 301 300 299 298 296 294 293 292 290 289 288
296 297 298 300 300 298 302 303 305 306 304 305 306 305 304 304 304 304 304 306 306 305 305 304 306 308 306 303 303 303 303 302 301 301 300 299 297 296 294 293 291 290 289 287
298 299 299 299 299 302 303 302 304 304 304 304 305 304 306 304 305 305 305 307 305 305 305 305 307 307 305 303 303 303 302 302 301 300 299 298 297 296 294 293 291 290 288 287
298 298 299 300 301 302 303 302 302 302 303 303 306 305 303 305 305 304 305 304 306 306 305 305 306 306 303 303 303 302 302 301 300 300 299 298 296 295 294 293 291 290 288 286
299 298 300 302 300 302 302 301 301 305 304 304 305 305 303 304 305 306 304 305 306 304 304 305 308 304 302 303 302 302 301 300 299 299 298 297 296 294 293 292 290 288 285 283
299 300 298 302 301 301 303 303 305 302 304 305 306 305 305 305 303 306 304 304 304 304 305 304 307 303 302 303 303 301 300 298 298 297 296 295 293 292 292 290 288 285 283 281
299 300 299 300 300 300 300 300 301 301 305 305 306 306 304 304 302 304 302 302 303 303 305 308 304 300 300 301 300 297 294 292 293 292 290 288 288 287 285 286 285 284 281 280
297 297 298 299 300 299 298 301 302 301 304 305 305 305 305 304 304 303 304 302 303 306 307 306 301 298 299 299 296 293 293 292 291 290 289 287 286 285 285 283 282 280 279 278
297 297 298 298 301 300 299 301 300 301 304 306 304 305 303 303 303 303 303 307 307 306 305 300 294 295 294 294 293 292 291 291 291 289 287 286 285 284 282 282 280 278 277 277

GFSNW_925_thetae_135.txt.gz
Theta_e
299 303 303 303 304 305 305 306 308 306 305 304 304 307 306 306 308 306 309 315 315 311 310 310 309 310 310 311 312 313 313 314 316 315 314 313 314 316 316 314 317 317 313 309
301 301 301 303 308 308 307 307 303 305 305 308 306 306 307 307 308 309 311 312 311 312 308 306 308 312 311 311 312 313 313 314 315 314 314 315 314 316 313 317 315 314 313 305
300 300 299 301 306 309 303 300 302 303 305 307 305 306 309 309 308 310 311 310 310 310 308 308 306 312 313 312 312 313 314 315 315 317 315 314 312 310 309 310 307 306 308 305
299 299 299 299 300 300 299 301 303 303 304 306 305 307 308 309 310 309 309 309 309 309 310 309 310 312 312 311 312 311 312 315 311 314 312 310 309 309 309 310 311 313 301 302
299 298 298 299 299 299 300 299 302 302 303 304 306 307 309 309 308 311 308 309 309 308 309 309 309 311 311 310 309 310 311 313 307 306 311 310 303 302 303 307 310 309 304 302
299 298 298 299 300 300 301 302 303 304 303 304 307 308 307 309 309 308 307 308 308 309 308 307 307 309 309 309 310 310 313 313 311 312 310 311 313 302 305 308 307 308 305 301
299 299 298 298 299 300 301 303 305 305 304 304 307 308 308 310 309 307 307 306 308 308 306 306 307 307 309 311 311 311 314 313 313 312 312 315 305 306 306 307 305 301 299 298
298 299 299 298 298 299 300 302 304 305 302 304 309 310 309 308 307 305 306 306 305 305 306 308 309 310 310 310 313 313 313 313 312 312 314 308 307 307 307 305 304 301 300 298
297 299 298 298 298 299 301 301 302 305 306 307 308 308 307 306 305 305 306 305 305 305 307 309 310 312 311 311 310 312 312 312 313 310 315 314 308 306 305 305 306 301 300 297
297 298 298 297 299 300 300 302 302 304 305 306 307 306 306 305 306 306 305 305 304 305 305 310 308 309 309 311 311 312 310 310 310 309 311 311 307 305 306 307 303 302 299 297
297 297 297 298 299 299 298 301 304 305 306 306 306 305 306 305 306 305 304 305 304 303 305 308 306 307 310 311 311 311 310 309 308 308 311 312 304 304 306 302 302 302 300 298
297 297 298 299 299 298 297 301 305 305 304 304 304 304 304 305 305 304 303 304 303 303 304 304 304 309 309 308 309 308 312 309 308 306 306 302 303 304 302 300 299 298 296 295
297 298 298 299 298 297 298 302 304 304 302 302 302 303 302 304 305 304 302 304 304 306 307 307 308 308 306 307 307 308 308 307 302 302 301 302 302 302 301 299 297 296 294 293
297 297 298 298 298 302 302 302 304 305 302 303 303 302 303 303 305 305 305 305 305 305 306 306 307 307 307 309 309 308 307 305 302 301 300 301 301 301 299 297 296 295 294 293
296 297 298 297 301 304 304 304 304 305 302 303 302 302 302 302 303 304 304 304 304 304 304 305 305 305 306 305 306 307 306 304 300 297 298 298 298 300 297 295 295 295 294 293
297 298 297 300 302 303 302 298 302 302 302 301 301 302 302 302 303 304 303 303 304 303 303 304 306 306 306 303 303 305 305 304 305 303 299 299 299 298 296 294 293 293 292 292
297 296 297 298 299 302 302 301 302 302 301 301 300 301 301 302 301 300 300 302 301 302 301 302 303 303 303 300 303 305 304 303 302 300 299 299 298 298 295 294 293 293 292 291
297 297 299 300 301 301 300 301 304 304 305 302 300 300 300 302 301 301 301 300 301 300 301 300 304 301 301 302 304 303 302 302 301 300 299 297 298 297 294 293 292 289 288 287
297 299 300 300 301 300 299 301 303 303 304 301 298 299 297 302 302 300 300 301 299 300 302 302 301 301 301 303 304 303 302 301 301 300 298 297 296 294 292 291 289 288 286 286
298 299 298 297 299 299 301 300 300 300 301 302 300 300 298 301 300 300 300 300 300 302 302 301 300 302 303 301 302 302 301 301 299 298 297 296 295 293 291 290 288 287 286 286
298 296 297 298 301 301 299 296 298 301 301 302 302 300 300 301 300 300 301 300 300 302 302 301 301 303 301 301 301 301 300 299 299 298 297 295 294 292 290 289 289 288 287 286
298 298 299 299 301 299 298 298 298 301 302 301 300 301 302 300 302 300 301 301 300 306 300 299 300 299 301 301 301 300 299 299 298 298 296 295 294 293 291 290 289 288 287 286
298 298 297 299 295 295 295 296 299 300 299 301 300 300 300 299 300 297 299 299 299 298 296 299 300 299 301 301 300 299 298 298 298 297 297 296 294 293 292 290 289 288 286 285
296 296 293 296 294 297 300 301 300 298 298 300 298 298 299 297 298 298 297 299 299 297 298 302 296 298 298 298 298 296 294 291 292 292 293 292 292 291 292 290 288 286 283 282
296 297 295 295 298 297 298 296 297 296 300 299 298 299 299 297 299 298 298 298 299 299 300 301 294 296 296 296 294 291 290 288 287 289 287 287 288 287 286 286 286 286 283 282
295 295 295 294 294 294 297 297 297 297 296 299 299 300 298 300 298 301 300 301 300 300 297 294 292 293 292 293 292 291 290 290 289 288 287 287 286 285 284 284 284 284 283 281
296 294 296 297 297 297 297 295 297 298 297 299 298 299 302 300 300 301 300 302 300 298 295 292 294 294 294 293 292 290 290 289 288 287 287 286 286 284 283 280 280 281 280 280

GFSNW_925_thetae_138.txt.gz
Theta_e
299 298 301 301 301 302 303 303 305 305 304 304 304 305 304 304 304 304 306 314 315 311 307 307 307 309 310 310 310 310 312 310 310 314 313 313 313 312 313 315 316 315 308 309
299 299 300 300 300 302 304 303 303 305 305 306 305 304 305 305 305 305 306 306 312 311 305 305 304 310 310 311 311 312 312 312 312 313 312 312 316 313 316 316 317 317 310 308
299 299 300 300 301 305 305 301 304 304 306 305 304 304 305 306 305 305 304 308 308 309 305 306 303 310 311 310 312 314 312 315 313 311 313 313 313 313 309 311 311 305 307 305
299 299 299 299 302 303 303 301 304 303 307 306 306 304 305 306 307 305 307 309 309 307 304 308 307 310 311 311 313 312 313 314 312 313 314 313 312 310 309 309 308 308 301 304
298 298 299 300 300 301 299 299 302 302 305 306 308 308 306 306 307 306 306 307 309 307 307 306 307 309 311 312 311 310 312 313 309 313 311 311 307 304 305 307 309 308 304 303
298 298 298 300 300 300 299 299 300 303 303 305 305 308 307 306 307 308 306 305 308 308 307 307 307 308 309 310 311 310 312 312 310 312 308 311 312 304 302 305 307 307 306 303
298 298 298 299 300 300 300 300 301 302 304 304 305 307 307 308 308 307 306 307 308 306 305 306 306 307 308 309 310 309 312 312 311 312 312 314 303 305 304 307 305 302 300 298
297 298 298 299 299 300 300 302 303 305 303 304 304 307 307 307 307 306 307 306 306 304 307 308 310 310 310 310 310 311 311 312 312 313 314 309 307 307 306 306 305 300 299 297
297 297 299 298 299 299 300 300 301 304 304 302 304 306 306 307 307 306 306 305 303 305 307 307 311 312 312 312 312 312 313 312 313 311 314 312 308 305 304 304 306 299 298 295
298 298 298 298 298 299 300 301 302 302 304 304 305 306 307 305 303 305 304 304 305 304 305 309 309 310 310 312 312 314 314 311 311 309 313 310 306 304 304 306 305 299 296 294
298 298 298 298 298 299 299 299 302 303 305 305 306 305 305 305 304 305 304 304 303 303 306 308 307 306 307 309 311 311 311 311 308 307 310 310 304 304 306 302 300 299 296 294
298 297 297 298 299 298 298 298 303 303 304 305 305 304 304 305 304 304 304 304 303 303 305 304 304 307 307 308 308 310 310 307 307 306 305 301 302 303 301 299 298 297 296 295
297 297 298 299 298 298 297 298 303 303 302 302 303 303 304 305 305 304 304 303 302 303 302 306 306 308 305 309 306 308 307 305 302 302 300 301 301 301 298 297 295 294 294 292
297 297 298 298 297 297 298 299 303 303 300 303 302 302 303 305 305 304 304 303 305 304 304 305 306 305 305 306 308 306 304 303 301 299 299 300 300 299 296 294 293 293 292 292
296 298 298 297 298 301 301 302 304 304 302 303 302 302 302 303 304 304 304 303 303 301 302 303 304 303 304 303 305 305 304 302 299 299 298 298 297 296 295 294 293 292 291 290
297 298 297 298 301 302 303 297 302 302 301 301 301 300 301 301 303 302 301 301 301 300 301 303 304 304 304 302 304 305 304 303 302 303 298 298 296 295 295 293 293 293 292 291
297 297 296 298 302 300 300 299 302 301 301 300 299 300 300 301 300 299 299 299 300 299 300 301 301 301 302 298 304 304 303 301 299 298 298 297 296 295 295 293 293 292 291 290
297 297 300 300 300 300 299 301 303 304 302 299 299 300 300 300 299 299 298 299 299 299 299 299 302 299 299 302 303 302 301 299 299 299 298 296 296 295 294 292 291 289 287 285
297 299 300 300 300 298 299 302 302 303 302 299 297 299 298 300 299 298 299 299 298 298 300 300 300 299 299 302 302 302 300 300 299 297 296 296 296 294 291 290 288 287 285 284
297 298 297 296 298 300 300 299 297 299 299 299 298 297 300 299 298 298 299 297 298 301 300 298 298 299 301 302 302 301 300 299 298 296 295 294 292 291 290 289 287 287 285 284
297 294 296 299 300 298 296 293 296 297 300 300 299 299 300 299 299 298 297 298 298 301 301 299 300 302 299 300 300 300 299 298 297 297 296 294 292 290 289 288 287 286 285 285
297 298 299 299 298 295 296 294 296 301 301 299 299 300 300 298 298 298 297 299 297 304 296 297 298 298 300 300 299 299 298 297 297 296 294 293 292 290 289 288 287 287 286 286
297 297 295 294 290 291 290 293 298 298 296 297 298 299 298 298 296 295 297 296 295 295 292 297 298 296 299 299 298 297 296 297 296 295 295 294 292 291 290 288 288 287 286 286
294 294 291 293 289 298 299 301 298 295 294 297 296 296 298 293 296 298 295 296 297 293 296 302 295 297 297 296 295 294 293 291 292 292 292 291 290 290 290 290 289 287 285 284
294 293 293 293 297 295 296 293 291 293 295 297 296 297 297 293 295 294 295 296 297 298 299 299 292 294 295 294 293 291 289 287 287 288 287 287 288 288 287 288 288 287 285 283
293 295 294 292 291 296 293 295 296 293 293 295 296 298 296 298 296 299 297 301 298 302 300 292 291 293 293 292 289 287 288 288 287 287 287 286 286 285 285 284 284 285 284 282
294 294 295 297 291 296 295 296 295 294 296 296 296 297 301 298 299 300 299 302 301 297 294 292 290 290 292 292 290 290 287 286 286 285 286 285 285 284 283 281 282 283 283 283